GFSMA_925_temp_000.txt.gz
Temp
13 12 14 14 13 13 14 13 13 12 13 13 14 14 13 12 13 13 15 14 13 14 14 14 15 15 15 14 13 13 12 12 12 12 11 11 12 12 12 12 12 12 12
13 13 12 12 12 12 13 14 13 13 13 13 13 13 13 14 12 11 11 12 14 12 14 14 14 14 14 14 13 13 13 12 12 12 11 11 11 11 12 12 11 11 11
12 12 12 12 11 11 12 12 13 13 13 13 13 14 13 13 12 12 11 11 13 16 13 14 14 14 14 14 15 13 13 13 12 12 11 11 11 11 11 11 11 11 11
12 12 12 11 11 11 11 11 11 12 12 12 12 12 13 13 13 12 11 12 12 14 13 15 14 14 14 14 13 13 13 13 12 12 12 11 11 11 11 11 11 11 11
12 12 12 11 11 11 11 11 10 11 11 10 11 13 12 12 13 12 12 12 13 12 13 14 15 15 14 14 14 13 13 13 13 13 12 12 11 11 11 11 11 11 11
12 12 12 11 11 11 11 11 11 11 11 11 10 11 12 13 13 13 12 11 11 12 13 13 15 15 15 14 14 14 14 13 13 13 12 12 12 12 11 11 11 11 11
12 12 12 12 12 11 11 11 11 11 12 11 12 12 12 12 13 12 12 13 11 12 11 13 12 16 16 15 14 14 14 14 13 13 13 12 12 12 12 11 11 11 11
12 12 12 12 12 12 11 11 11 11 11 11 10 11 13 15 13 12 13 12 13 11 12 11 11 14 16 16 14 14 14 14 14 13 13 12 12 12 11 11 11 11 11
11 11 11 11 11 11 11 11 11 11 11 11 10 11 12 12 10 12 13 12 12 11 10 12 11 13 15 16 16 14 14 14 14 13 13 13 12 12 12 11 11 11 11
11 11 10 10 10 10 10 10 11 10 10 11 11 11 10 10 11 12 11 10 11 11 11 10 10 11 13 15 16 16 14 14 14 14 13 13 13 12 12 11 11 11 11
10 10 10 10 9 9 10 9 9 10 10 10 10 11 11 10 10 10 11 12 10 9 10 10 10 11 11 14 15 15 15 14 14 14 13 13 13 13 12 12 12 11 11
10 10 9 8 8 8 8 8 9 9 9 9 9 10 10 10 11 11 11 11 11 10 8 9 9 10 11 11 14 15 15 14 14 14 14 13 13 13 12 13 12 11 11
9 8 8 7 7 7 7 7 7 8 8 8 9 9 9 9 9 9 10 10 11 10 9 8 8 9 9 10 11 13 14 14 14 14 14 13 13 13 12 12 12 11 11
6 6 6 6 6 6 6 6 6 7 7 8 8 8 9 9 9 9 9 9 10 11 10 10 8 8 9 8 10 11 13 13 14 14 14 14 13 13 12 12 12 11 11
6 6 5 4 4 4 4 5 5 6 6 7 7 7 7 8 8 8 8 8 9 9 11 11 10 8 7 8 8 8 10 11 12 13 14 14 13 13 13 12 12 11 11
5 4 4 4 4 3 4 4 4 5 5 6 6 7 7 7 8 7 7 7 7 8 9 10 10 9 7 7 8 8 9 9 10 12 13 14 14 13 13 13 12 11 10
4 3 3 3 3 3 3 3 3 3 4 4 5 6 6 6 6 7 7 7 7 7 8 8 9 8 7 5 6 6 6 7 9 10 11 12 13 13 13 13 12 10 10
3 2 2 2 2 2 2 2 2 2 3 3 4 4 5 6 6 6 6 6 6 7 7 9 8 8 7 6 5 6 5 6 7 8 10 10 12 12 12 12 12 10 9
2 2 2 2 1 1 1 1 1 1 2 2 2 3 4 4 5 5 5 6 6 6 7 7 8 8 7 6 4 4 5 6 6 7 8 9 10 11 11 12 10 9 8
1 1 1 1 1 0 0 0 0 0 0 -0 -0 -0 0 1 2 3 4 5 5 5 6 7 7 8 7 6 4 4 3 4 5 6 6 7 8 10 10 10 9 8 7
1 1 0 0 0 -0 -0 -0 -1 -1 -2 -2 -2 -2 -1 -1 -1 -0 1 2 4 5 5 6 7 7 7 7 3 3 3 2 2 4 4 5 5 8 9 8 7 6 6
1 1 0 -0 -0 -1 -1 -3 -4 -4 -4 -4 -3 -2 -2 -2 -2 -2 -1 -1 -1 1 2 5 6 7 7 7 6 3 1 1 1 0 2 2 2 3 4 4 5 5 4
0 -0 -0 -1 -1 -2 -2 -4 -4 -5 -4 -4 -3 -3 -2 -2 -2 -1 -2 -2 -2 -1 -1 -0 2 6 7 8 7 4 2 3 2 0 1 -2 -0 -0 0 2 3 3 4
-1 -1 -1 -2 -2 -3 -4 -4 -5 -5 -5 -4 -4 -3 -3 -2 -2 -1 -1 -1 -1 -1 -1 -1 0 2 6 7 7 4 3 2 1 -0 0 -2 -2 -3 -2 -0 0 1 0
-2 -2 -2 -3 -3 -4 -4 -5 -5 -5 -5 -4 -4 -4 -3 -3 -3 -2 -2 -2 -1 -1 -1 -1 -0 1 3 4 4 5 1 1 -1 -2 -2 -3 -4 -4 -4 -3 -2 -2 -2
-2 -3 -4 -5 -4 -5 -5 -5 -5 -5 -4 -4 -3 -3 -3 -3 -3 -3 -3 -3 -2 -1 -0 -1 -1 -1 1 1 0 3 2 2 -0 -2 -3 -4 -5 -5 -6 -4 -3 -3 -3

GFSMA_925_temp_003.txt.gz
Temp
15 15 14 14 13 13 12 12 12 13 12 13 12 12 13 13 13 13 13 13 13 15 17 17 15 15 15 15 16 15 13 13 12 12 12 12 13 13 13 12 12 12 12
15 15 14 14 13 12 12 13 12 13 13 14 14 13 13 13 14 14 14 13 13 14 15 16 17 15 15 14 15 15 14 13 12 12 12 12 12 12 12 12 12 12 12
13 14 14 14 13 12 11 12 12 12 12 13 13 14 14 14 14 14 13 13 13 13 14 14 14 15 14 14 14 15 14 13 13 12 12 12 12 12 12 12 12 12 12
13 14 14 13 12 13 12 11 11 11 12 12 12 12 13 14 14 14 13 13 13 14 13 13 14 15 15 15 14 13 14 14 13 13 12 12 12 12 12 12 12 12 12
13 14 14 13 12 13 12 12 12 12 12 13 12 11 12 13 14 14 14 13 13 13 13 14 14 15 16 16 15 14 14 13 14 13 13 12 12 11 11 12 12 12 11
13 14 14 13 13 13 13 12 12 12 12 12 12 12 13 12 13 13 13 14 14 13 12 12 14 15 15 16 15 14 14 14 13 13 12 12 12 11 11 12 12 11 11
13 13 14 14 13 13 12 12 12 12 12 12 12 13 13 14 13 14 13 14 14 13 12 12 12 13 15 15 16 15 14 14 14 13 13 13 12 12 12 12 11 11 11
13 13 13 13 13 13 13 12 12 12 12 13 12 12 13 14 15 13 13 14 14 14 13 12 12 12 13 15 16 16 15 14 14 13 13 13 12 12 12 12 11 11 11
13 13 13 13 12 12 12 12 12 12 12 12 12 13 12 13 13 13 14 13 12 12 13 13 12 11 12 13 15 15 16 15 14 14 13 13 13 12 12 12 11 11 11
13 13 13 12 12 12 12 11 12 11 11 11 12 12 12 12 12 11 12 12 13 12 11 11 12 12 11 11 13 15 15 15 15 13 13 13 13 12 12 12 11 11 11
13 12 12 12 11 11 11 11 11 11 11 11 11 11 12 12 12 13 12 13 12 13 12 11 10 11 11 11 13 15 15 14 15 14 14 13 13 13 12 12 11 11 11
12 12 11 10 10 10 10 10 10 10 10 10 10 10 11 11 12 12 13 13 13 13 13 12 10 10 10 11 11 12 13 15 15 15 14 14 13 13 13 12 11 11 11
10 10 9 9 8 8 8 8 8 8 8 8 9 9 10 10 11 11 12 12 12 12 12 12 11 9 9 10 10 11 12 13 13 15 14 14 13 13 13 12 12 11 11
9 8 7 7 7 7 7 7 7 7 7 8 8 8 9 10 10 11 11 12 12 12 12 12 12 10 9 9 9 9 10 11 12 13 15 14 14 13 13 12 12 11 11
8 8 7 6 6 6 6 6 6 6 6 7 7 8 8 8 9 9 10 10 11 10 11 11 12 12 10 10 9 9 9 9 10 10 13 14 14 14 13 12 12 11 11
7 7 6 6 6 6 5 5 5 5 6 6 6 7 7 7 8 9 9 9 9 10 10 10 10 11 11 8 7 7 8 9 9 10 10 12 13 14 13 13 11 11 11
6 6 5 5 5 5 5 5 5 5 5 5 5 5 6 6 7 7 7 7 7 8 9 9 9 10 10 9 7 7 7 8 8 8 9 10 12 11 14 13 12 11 11
5 5 5 4 4 4 4 4 4 4 4 4 5 5 5 6 6 7 7 7 7 7 8 9 9 9 9 10 10 8 6 7 7 9 8 8 10 10 11 13 13 12 11
5 5 4 4 4 4 4 3 3 3 3 3 3 4 4 4 5 5 6 6 6 7 7 7 8 8 8 9 10 8 6 5 6 6 7 6 7 9 10 11 13 13 12
4 4 3 3 3 3 3 3 3 2 2 2 2 1 1 1 2 2 3 4 5 6 6 7 7 7 8 8 9 8 4 4 4 5 5 6 6 7 8 10 11 12 12
3 3 3 3 3 2 2 2 2 1 0 -0 -1 -1 -2 -1 -1 -1 -0 0 1 3 5 6 6 6 7 7 8 8 5 4 3 3 4 5 7 6 6 8 9 10 11
3 3 3 2 2 2 2 0 -1 -1 -2 -3 -3 -3 -3 -2 -2 -2 -2 -2 -1 -0 0 1 4 5 6 7 8 8 6 2 3 2 2 3 6 5 5 6 8 8 10
2 2 2 2 1 1 -0 -1 -3 -3 -4 -4 -4 -4 -3 -2 -2 -2 -1 -2 -2 -2 -2 -1 -1 1 4 6 7 8 6 3 4 2 2 -0 1 5 3 3 6 7 8
2 1 1 0 -0 -1 -2 -3 -4 -4 -5 -5 -4 -4 -3 -3 -3 -2 -2 -2 -1 -1 -1 -2 -1 -0 0 3 3 4 5 3 1 1 1 -1 -1 -2 1 1 1 4 8
1 0 -0 -1 -3 -3 -4 -4 -5 -5 -4 -4 -4 -4 -3 -3 -3 -3 -3 -3 -2 -2 -1 -1 -1 -0 1 1 1 1 2 1 -1 -1 -1 -2 -4 -3 -3 -1 -0 -0 1
0 -1 -2 -3 -4 -4 -4 -4 -4 -4 -3 -3 -3 -3 -3 -3 -4 -3 -3 -3 -2 -2 -1 -1 -1 -1 -1 0 1 0 -0 2 1 -1 -2 -3 -4 -4 -4 -3 -2 -1 -1

GFSMA_925_temp_006.txt.gz
Temp
15 15 15 14 14 13 13 14 14 14 13 13 14 14 14 13 13 15 14 14 14 14 14 15 15 15 16 15 15 16 16 15 15 14 14 14 14 14 14 14 13 13 12
15 15 15 14 14 13 12 13 12 13 13 13 12 13 13 14 14 13 13 14 14 14 13 14 15 15 15 15 15 15 15 15 15 14 13 13 13 13 13 13 13 12 12
14 14 14 14 14 12 12 12 11 12 12 13 13 13 13 13 13 13 14 14 14 14 13 13 14 15 15 15 15 15 15 15 15 15 13 12 12 12 13 13 13 12 12
14 14 14 14 13 13 13 12 12 12 12 12 12 12 12 13 13 14 14 14 14 14 13 14 13 14 14 15 15 14 14 15 15 14 13 12 12 12 12 12 12 12 12
13 14 14 13 13 13 13 12 12 12 12 12 12 13 12 12 13 13 13 14 14 14 14 14 14 14 14 14 14 14 14 14 14 15 14 13 12 12 12 12 12 12 12
13 14 14 13 13 13 13 12 12 12 12 12 12 12 12 12 13 13 13 13 14 14 14 14 14 14 14 14 14 15 14 14 13 13 14 13 12 12 12 12 12 11 12
14 13 14 14 14 13 13 13 12 12 12 12 12 12 12 12 12 13 13 13 13 14 13 13 13 12 13 14 14 14 14 15 14 13 13 13 13 12 12 12 11 11 11
14 14 13 13 13 13 12 12 12 12 12 12 11 11 9 11 13 12 12 13 13 13 13 13 13 13 12 13 14 15 15 15 14 14 13 13 12 13 12 12 11 11 11
14 13 13 13 13 12 12 12 12 12 11 11 11 11 9 9 10 12 12 12 12 12 12 13 12 12 12 12 12 13 14 15 14 14 14 13 13 12 12 12 12 11 11
13 13 13 13 12 12 12 12 11 11 11 10 11 11 11 11 9 9 11 12 12 12 12 13 13 12 11 13 12 12 13 14 14 15 15 14 12 13 13 13 12 11 11
13 13 12 12 12 11 11 10 10 10 10 10 10 10 10 10 10 9 9 10 12 12 12 12 13 12 12 10 11 12 12 13 13 14 14 15 14 12 13 13 13 12 11
12 12 11 10 10 9 9 9 9 9 9 9 8 8 9 9 9 9 9 9 10 11 12 12 12 12 12 12 11 11 11 12 12 13 14 14 15 13 12 13 13 12 12
10 10 9 8 8 8 8 8 8 7 7 7 7 7 8 8 8 9 9 9 9 10 10 11 11 11 11 12 12 12 11 10 11 12 12 12 13 14 13 12 12 12 12
9 9 8 8 7 7 7 7 6 6 6 7 7 7 7 7 8 8 9 9 8 8 10 10 11 11 11 11 11 12 11 11 10 10 11 11 11 13 13 13 12 12 12
8 8 7 7 6 6 6 6 6 6 6 6 6 6 6 6 7 7 7 8 8 7 7 9 10 10 11 10 11 10 10 10 10 9 9 10 10 11 12 13 13 12 12
6 6 6 6 6 6 5 5 5 5 5 5 5 5 5 5 6 6 6 7 7 7 6 8 9 9 9 9 9 9 9 9 9 8 9 9 9 10 11 12 13 13 12
5 5 6 5 5 5 5 5 5 5 4 4 4 4 4 5 5 5 5 6 6 6 6 7 7 8 9 9 9 9 9 9 9 8 7 9 8 8 10 11 12 13 12
5 5 5 5 5 5 5 4 4 4 4 4 4 4 4 4 4 4 5 5 5 6 6 5 6 6 7 8 8 8 9 9 8 9 9 8 6 8 8 9 11 12 13
5 5 5 5 4 4 4 4 3 3 3 3 3 3 3 3 3 3 3 4 4 5 5 5 5 6 6 7 8 8 8 8 8 6 7 7 6 7 7 8 8 11 12
5 4 4 4 3 3 3 3 3 3 3 2 2 2 1 1 1 1 1 1 2 2 2 2 4 5 5 6 7 7 7 7 8 6 4 5 6 6 6 8 7 6 10
4 4 3 3 3 3 3 3 2 1 0 0 -0 -1 -1 -1 -1 -1 -1 -1 -1 -0 0 0 2 3 4 5 6 6 6 7 6 5 4 4 3 4 5 6 7 6 7
4 3 3 3 2 2 2 1 0 -1 -2 -2 -2 -2 -3 -3 -3 -2 -2 -2 -2 -2 -1 -1 -1 0 1 3 5 6 6 5 3 4 3 2 2 3 4 5 6 7 6
3 3 2 2 1 1 0 -1 -2 -3 -3 -3 -4 -4 -4 -3 -3 -3 -3 -2 -2 -2 -2 -2 -1 -1 -0 0 1 3 3 2 3 4 4 1 2 2 3 3 6 6 7
2 2 1 1 -0 -1 -2 -3 -3 -4 -4 -4 -4 -4 -4 -4 -4 -3 -3 -3 -3 -2 -2 -2 -2 -2 -1 -1 -0 0 1 -0 2 2 2 1 -0 -1 -0 2 4 5 6
1 1 0 -1 -2 -3 -3 -3 -3 -4 -4 -4 -4 -4 -4 -4 -3 -3 -3 -3 -3 -3 -2 -2 -1 -1 -1 -1 -1 0 -1 -1 0 -0 0 1 -2 -2 -2 -1 1 3 6
1 -0 -1 -2 -3 -3 -3 -3 -3 -3 -3 -3 -3 -3 -3 -3 -3 -3 -3 -3 -3 -3 -3 -2 -2 -1 -1 -1 -1 -0 -0 -0 -1 -1 -1 -1 -3 -2 -3 -3 -1 0 2

GFSMA_925_temp_009.txt.gz
Temp
16 15 15 14 14 13 13 13 12 12 12 12 13 13 13 13 15 14 15 16 16 15 15 15 15 15 15 16 16 16 16 16 16 16 16 15 15 15 14 14 14 14 13
15 15 14 14 14 13 13 13 12 12 12 12 12 12 13 12 13 13 13 14 14 14 14 15 15 15 15 15 15 15 15 16 16 16 15 15 15 14 14 14 14 14 13
15 14 14 14 13 13 12 12 12 12 12 12 12 12 12 12 12 12 12 13 14 14 14 14 14 14 14 14 15 15 15 15 15 15 15 15 15 14 14 14 14 14 13
14 14 14 14 14 13 13 12 12 12 12 12 12 12 12 12 12 13 13 13 13 14 14 13 14 14 14 14 14 14 14 15 14 15 14 14 15 15 14 13 13 13 13
14 14 14 14 13 13 13 12 12 12 12 12 12 12 12 12 12 12 13 13 13 13 13 15 14 14 14 14 14 14 14 15 14 14 14 14 14 14 13 13 13 13 12
14 14 13 14 13 13 13 13 12 12 12 12 12 12 12 12 12 12 12 12 13 13 13 13 13 13 14 14 14 14 13 14 14 14 14 14 14 13 13 12 12 12 12
14 14 14 13 13 13 13 12 12 12 12 12 11 11 11 12 11 12 11 12 12 12 12 12 12 13 13 13 13 13 12 13 14 14 13 14 14 13 12 12 12 12 12
14 14 14 13 13 13 13 12 12 11 11 11 11 10 7 10 11 11 11 11 11 12 12 12 12 11 11 13 13 13 13 13 14 14 14 14 13 13 13 12 12 12 11
15 14 13 13 13 13 12 12 12 11 11 11 11 10 7 7 8 10 10 11 11 11 11 12 12 12 12 11 12 13 13 13 13 14 14 14 13 12 12 12 12 11 12
14 14 13 13 13 12 12 11 10 10 10 9 10 10 10 9 8 8 9 9 10 10 11 11 12 12 12 12 12 10 11 13 12 13 13 13 13 13 12 12 12 12 11
14 13 13 12 11 11 11 10 9 10 9 8 8 8 8 8 8 7 7 8 9 9 10 11 11 11 11 12 12 11 11 10 11 12 12 13 12 13 12 12 12 12 12
12 12 12 11 11 9 9 8 8 9 9 8 8 8 7 7 7 7 6 7 7 8 9 9 10 10 11 11 11 11 11 12 11 11 11 11 12 12 12 12 12 11 12
11 10 9 9 8 8 8 7 6 6 7 7 7 7 6 6 6 6 6 6 6 7 7 8 9 9 10 11 11 11 11 11 12 12 11 11 11 11 12 12 12 11 12
9 8 8 7 6 5 5 4 4 6 6 6 6 6 6 5 5 6 6 6 5 6 7 7 8 8 9 10 10 10 10 9 9 10 10 10 10 10 10 11 12 12 11
8 7 6 5 4 4 4 5 6 6 6 5 5 5 5 5 5 5 5 5 5 4 5 6 7 7 8 8 10 10 10 9 9 9 9 9 9 9 9 10 10 12 12
6 5 4 4 3 5 5 5 5 5 5 5 5 4 4 4 4 4 4 4 4 4 4 5 6 6 7 7 8 9 9 9 9 9 9 9 9 8 9 9 9 10 12
5 4 4 4 4 5 5 5 5 5 4 4 4 4 4 4 3 3 3 4 4 4 3 4 5 5 6 6 7 7 8 9 8 9 9 8 8 8 8 8 8 8 9
5 4 5 5 5 5 5 4 4 4 3 3 3 3 3 3 3 3 2 2 3 3 3 3 4 4 5 5 6 6 7 8 8 8 8 8 8 8 8 8 8 8 7
4 5 5 5 4 4 4 3 3 3 3 3 3 2 2 2 2 2 1 1 1 2 2 1 2 2 3 4 5 5 6 7 8 8 7 7 8 8 8 7 7 7 8
5 5 4 4 4 3 3 3 2 2 2 1 1 0 0 0 -0 -0 -1 -1 -1 -1 -0 0 1 1 1 2 3 4 5 6 7 7 7 7 7 7 7 8 7 6 6
5 4 4 3 3 3 2 2 1 0 -1 -1 -1 -1 -1 -1 -1 -1 -1 -1 -2 -2 -1 -1 -1 -0 1 1 2 3 3 5 6 7 7 6 6 6 7 7 7 6 5
4 3 3 3 2 2 1 0 -1 -2 -2 -3 -3 -3 -3 -3 -3 -3 -3 -3 -3 -3 -3 -2 -2 -1 -1 -0 -0 -0 -0 1 -1 5 5 6 5 5 6 6 5 3 4
3 2 2 1 1 -0 -1 -1 -2 -3 -3 -4 -4 -4 -4 -4 -4 -4 -4 -3 -3 -3 -3 -3 -3 -3 -2 -2 -1 -1 -1 -1 0 1 2 1 4 4 4 4 3 4 4
2 1 1 0 -1 -1 -2 -2 -3 -3 -4 -4 -4 -4 -4 -4 -4 -4 -4 -4 -4 -4 -3 -3 -3 -3 -3 -2 -2 -1 -1 -1 -1 -1 0 0 2 1 3 3 2 2 4
1 1 -0 -1 -2 -2 -3 -3 -4 -4 -4 -4 -4 -4 -4 -4 -4 -4 -3 -4 -4 -4 -4 -3 -3 -2 -2 -2 -2 -2 -2 -1 -1 -0 0 -0 -0 -0 1 2 2 1 2
-0 -1 -1 -2 -3 -3 -3 -4 -4 -4 -4 -4 -4 -4 -4 -4 -4 -3 -3 -3 -3 -3 -3 -3 -3 -3 -2 -2 -2 -2 -3 -3 -1 -1 -0 -1 -2 -2 -2 -1 0 0 1

GFSMA_925_temp_012.txt.gz
Temp
15 15 15 14 14 13 13 13 12 11 11 12 12 12 12 12 12 13 14 14 15 15 14 13 14 15 15 15 15 16 15 15 16 15 16 16 15 15 15 15 14 14 14
15 15 14 14 14 13 13 13 13 12 12 12 12 12 12 12 12 12 12 13 14 14 14 14 14 14 14 15 15 15 15 15 15 15 16 16 16 15 15 15 14 14 14
15 14 14 14 13 13 13 13 13 12 12 12 12 13 12 12 12 12 12 13 13 14 14 14 14 14 14 14 14 14 15 15 15 15 15 15 15 15 15 14 14 14 14
15 14 14 14 13 13 13 12 13 12 12 12 12 12 12 12 12 12 12 12 12 12 13 13 13 14 14 14 13 14 14 14 15 14 15 14 15 15 14 14 14 14 13
14 14 14 13 13 13 13 12 12 12 12 12 12 12 12 12 12 12 12 12 12 12 12 12 13 13 13 13 14 13 14 14 14 14 15 15 15 15 14 14 14 14 13
15 14 14 13 13 13 13 12 12 12 12 11 11 11 11 11 12 12 12 11 11 11 12 12 12 12 12 13 13 13 13 14 14 13 14 14 15 15 14 14 14 13 13
15 14 14 13 13 13 13 12 12 12 11 11 11 11 11 11 11 11 11 12 11 11 11 11 12 12 12 11 12 12 13 13 13 14 14 13 14 15 14 14 14 13 13
15 15 14 14 13 13 12 12 12 11 11 11 10 8 6 9 10 10 10 10 10 10 10 11 11 11 12 12 11 11 12 12 13 13 13 14 13 13 14 14 14 14 13
14 14 14 14 13 13 13 12 12 11 10 10 10 9 6 5 7 9 9 9 10 9 10 10 10 11 11 11 11 10 9 10 11 12 13 13 13 13 13 13 13 13 12
15 14 14 13 13 12 12 11 10 9 9 8 8 9 8 7 5 6 8 8 8 9 8 9 9 10 10 10 10 11 9 9 9 10 11 12 12 13 12 13 12 12 12
15 14 13 12 12 11 10 9 9 8 7 7 7 7 7 7 7 5 5 7 7 7 7 7 8 9 9 10 10 10 10 8 8 10 10 11 11 12 13 12 12 12 12
14 14 12 11 10 9 9 8 7 6 5 6 7 6 5 5 5 5 4 5 5 6 6 6 6 8 8 9 9 10 10 10 10 8 11 11 10 11 11 11 12 12 12
11 10 9 8 7 5 5 5 5 6 6 6 6 6 6 5 5 5 4 4 4 5 6 6 6 6 7 8 8 8 9 9 9 9 10 10 10 10 10 10 11 12 12
9 7 6 6 5 4 4 3 3 4 4 5 6 5 5 5 5 4 4 3 3 4 5 5 6 6 6 7 7 8 8 9 10 9 9 9 9 9 9 10 10 11 12
6 5 5 4 4 3 4 3 4 5 5 5 5 5 5 4 4 4 4 4 3 2 3 4 5 5 6 6 6 7 7 7 8 9 9 9 9 9 9 9 9 10 11
5 5 5 4 3 3 4 4 5 5 5 5 4 4 4 4 3 3 3 3 3 2 2 3 4 4 4 5 5 6 6 6 7 7 8 9 9 9 8 8 8 9 9
6 6 4 5 5 5 5 5 4 4 4 4 3 3 3 3 3 2 3 2 2 2 1 2 3 3 3 4 4 5 5 6 6 7 7 8 8 8 8 8 8 8 8
6 5 4 4 5 5 4 4 4 3 3 3 2 2 2 2 2 2 2 1 1 1 1 1 2 2 2 3 3 3 4 5 5 6 7 7 8 8 8 8 8 8 8
5 5 5 5 4 4 4 3 3 3 2 2 2 1 1 0 0 0 0 -0 -0 -0 0 -0 -0 0 1 1 2 2 3 4 4 5 6 7 7 7 7 7 7 8 8
5 5 5 4 4 3 3 2 2 1 1 0 -0 -0 -1 -1 -1 -1 -1 -1 -1 -1 -1 -1 -1 -1 -0 0 1 1 1 2 3 4 5 6 6 7 7 7 7 7 7
4 4 4 3 3 2 1 1 0 -0 -1 -2 -2 -2 -3 -3 -3 -2 -2 -2 -2 -2 -2 -2 -2 -2 -1 -1 -1 -0 -0 1 2 3 4 5 6 6 7 7 6 6 7
3 3 3 2 1 1 0 -1 -1 -2 -2 -3 -4 -4 -4 -4 -3 -3 -3 -3 -3 -3 -3 -3 -3 -3 -3 -2 -2 -1 -1 -1 -1 1 1 3 5 5 6 6 6 5 6
3 2 1 1 0 -1 -1 -2 -2 -3 -3 -4 -4 -4 -4 -4 -4 -4 -4 -4 -4 -4 -4 -4 -3 -3 -3 -3 -3 -2 -2 -2 -1 -0 -1 -0 1 3 5 5 5 5 5
1 1 0 -1 -1 -2 -2 -3 -3 -4 -4 -4 -4 -4 -5 -5 -4 -4 -4 -4 -4 -4 -4 -4 -4 -4 -4 -3 -3 -3 -3 -2 -2 -1 -2 -1 0 1 2 3 3 4 4
0 -0 -1 -2 -3 -3 -3 -4 -4 -4 -5 -5 -5 -5 -5 -4 -4 -4 -4 -4 -4 -4 -4 -4 -4 -4 -3 -3 -3 -3 -3 -3 -3 -2 -2 -2 -1 0 1 3 3 3 3
-1 -2 -2 -3 -3 -4 -4 -5 -5 -5 -5 -5 -5 -5 -5 -5 -5 -4 -4 -4 -4 -3 -3 -4 -4 -3 -4 -3 -3 -3 -3 -3 -3 -4 -2 -2 -2 -1 -1 1 3 2 3

GFSMA_925_temp_015.txt.gz
Temp
16 15 14 14 14 14 13 13 13 13 12 12 12 13 12 12 12 12 12 13 14 14 13 13 14 14 14 14 15 15 15 15 15 15 15 15 15 15 15 15 15 15 15
15 15 14 14 13 13 13 13 13 13 13 12 12 12 12 12 12 12 12 13 14 14 14 13 13 13 13 14 14 15 15 15 15 15 15 15 15 15 15 15 15 15 14
15 15 14 14 13 13 13 13 13 13 13 12 12 12 12 12 12 12 12 12 13 14 13 13 13 12 12 13 13 14 14 15 15 15 15 15 15 15 15 15 14 14 14
15 14 14 14 13 13 13 13 13 12 12 12 12 12 12 12 12 12 12 12 11 12 12 12 12 13 13 12 12 13 13 14 14 14 15 15 15 15 15 15 15 14 14
15 15 14 14 13 13 13 13 13 12 12 12 12 12 12 12 12 11 11 11 11 11 11 12 12 12 12 12 12 12 12 13 13 14 14 14 14 15 15 15 15 14 14
15 15 15 14 13 13 13 13 12 12 12 12 11 11 12 12 11 11 11 10 11 11 10 11 11 11 12 12 12 12 12 12 12 13 14 14 14 14 14 15 14 14 14
15 14 15 14 13 13 13 13 12 12 12 11 10 11 11 11 11 11 10 10 10 10 10 10 10 10 11 11 11 11 11 11 12 12 13 13 13 14 14 14 14 14 14
16 15 14 14 14 13 13 13 12 12 11 11 10 8 6 8 10 10 10 9 9 9 9 9 9 9 10 10 11 10 10 11 11 12 11 12 12 13 13 13 14 14 14
16 15 15 14 14 14 13 13 12 11 11 10 9 9 5 5 5 9 9 9 9 8 8 8 8 8 9 9 9 9 9 10 10 9 8 10 11 12 12 13 13 13 14
16 15 15 14 14 13 13 12 11 10 10 8 8 8 8 7 4 3 7 7 7 7 7 7 7 7 8 8 9 9 9 9 9 9 8 7 9 11 11 12 12 13 13
14 15 15 14 12 12 11 10 9 8 7 7 6 6 6 6 5 3 4 5 5 5 6 6 6 6 7 7 8 8 8 8 8 9 8 8 8 9 11 11 12 13 12
13 13 13 11 11 10 8 6 5 5 5 4 4 4 4 4 4 4 2 4 4 4 5 5 5 6 6 6 7 7 7 8 8 9 9 8 9 9 9 10 11 12 12
11 10 9 8 7 5 4 3 3 3 3 3 3 3 2 2 3 4 3 3 3 4 4 4 4 5 6 6 6 6 6 7 8 9 8 8 8 8 9 10 10 11 11
8 6 5 4 3 3 4 4 4 4 3 2 2 4 4 4 4 4 3 3 2 3 3 3 4 4 5 5 5 5 6 6 6 7 7 8 8 8 9 9 9 9 10
5 4 4 4 4 4 3 3 3 4 4 4 4 4 4 4 4 4 3 3 2 1 2 3 3 3 4 4 4 5 5 5 5 5 6 7 7 8 9 9 9 9 9
5 5 5 5 5 4 3 3 4 4 4 4 4 3 3 3 3 3 3 2 2 1 1 2 2 2 3 3 3 4 4 4 4 5 5 6 7 7 8 8 9 8 8
6 6 6 5 4 4 4 4 4 4 3 3 3 3 2 2 2 2 2 2 1 1 0 1 1 2 2 2 2 2 3 3 4 4 4 5 6 7 7 8 7 8 8
6 6 5 5 5 4 4 4 3 3 3 2 2 2 2 1 1 1 1 1 0 0 0 0 1 1 1 1 1 2 2 2 3 3 4 4 5 5 6 7 8 7 8
5 5 5 4 4 4 3 3 2 2 2 1 1 1 0 -0 -1 -1 -1 -1 -1 -1 -1 -1 -1 -1 -1 -0 -0 0 0 1 1 2 3 3 4 5 6 7 7 7 7
3 3 4 3 3 3 2 2 1 1 1 -0 -1 -1 -1 -2 -2 -3 -3 -2 -2 -2 -2 -2 -2 -2 -1 -1 -1 -1 -1 -1 0 1 1 2 3 4 5 6 7 7 7
3 3 3 3 2 2 1 1 0 -1 -1 -2 -2 -2 -3 -3 -3 -3 -3 -3 -3 -3 -3 -3 -2 -2 -2 -2 -2 -1 -2 -1 -1 -0 0 1 2 3 4 5 6 6 6
2 2 2 1 1 0 -0 -1 -1 -2 -3 -3 -3 -4 -4 -4 -4 -3 -4 -4 -4 -4 -4 -3 -3 -3 -3 -3 -3 -2 -2 -3 -2 -1 -1 -1 0 1 2 3 5 5 5
2 1 1 -0 -1 -1 -2 -2 -3 -3 -3 -4 -4 -5 -5 -5 -5 -5 -5 -5 -5 -4 -4 -4 -4 -4 -3 -3 -3 -4 -3 -3 -3 -2 -1 -2 -1 -0 1 2 2 4 5
0 -0 -1 -2 -2 -3 -3 -3 -4 -4 -5 -5 -5 -5 -5 -5 -5 -5 -4 -5 -4 -4 -4 -4 -5 -4 -4 -4 -4 -4 -3 -3 -3 -3 -2 -2 -2 -1 -0 1 1 2 3
-1 -2 -2 -3 -3 -3 -4 -4 -5 -5 -5 -5 -5 -5 -5 -5 -5 -5 -5 -5 -5 -4 -4 -4 -4 -4 -4 -4 -4 -4 -4 -4 -4 -3 -3 -3 -2 -2 -1 -0 1 2 2
-2 -3 -3 -4 -4 -4 -4 -4 -5 -5 -5 -6 -6 -5 -5 -5 -5 -5 -5 -4 -4 -4 -4 -4 -4 -4 -4 -4 -4 -4 -3 -3 -3 -4 -2 -3 -3 -2 -2 -0 0 2 2

GFSMA_925_temp_018.txt.gz
Temp
16 15 15 15 14 14 14 13 13 13 13 13 13 13 12 12 12 12 13 13 13 13 13 13 13 13 13 14 15 15 15 15 15 15 15 15 15 15 16 16 15 15 15
16 15 15 15 14 14 13 13 13 13 13 13 13 13 13 12 12 12 13 13 13 13 12 12 13 13 12 13 14 15 15 15 15 15 15 15 15 15 15 15 15 15 15
16 15 15 14 14 13 13 13 13 13 13 13 13 12 13 13 12 12 12 12 12 12 12 12 12 12 13 12 12 13 14 14 14 15 14 14 15 15 15 15 15 15 15
16 15 15 15 14 13 13 13 13 13 13 12 12 12 12 12 12 12 11 11 11 11 11 11 11 11 12 12 11 12 13 13 14 14 14 14 14 14 15 15 15 15 15
15 15 15 15 14 14 13 13 13 13 12 12 12 12 12 12 11 11 11 11 11 11 11 10 10 11 11 11 11 11 12 12 13 13 13 13 14 14 14 15 15 15 15
15 15 15 15 14 14 13 13 13 13 12 12 12 11 11 11 11 11 11 11 11 11 11 10 10 10 10 10 10 10 11 11 11 12 12 13 13 13 13 14 15 15 15
16 15 15 14 14 14 14 14 13 12 12 12 11 11 11 11 11 11 10 10 10 10 10 10 10 9 9 9 10 9 9 10 10 9 9 11 13 12 12 14 14 14 14
17 16 15 14 14 14 14 13 13 12 12 11 10 7 6 8 10 10 10 9 9 9 9 9 9 8 8 8 8 9 9 8 9 9 9 10 11 13 12 13 13 13 13
15 16 16 15 15 14 13 14 13 12 11 11 10 10 4 5 4 9 9 9 8 8 8 7 7 7 7 8 8 8 8 9 9 8 9 9 10 11 12 12 12 13 13
15 14 13 13 14 12 12 12 12 11 10 9 7 8 7 7 4 5 7 7 7 7 6 7 6 6 6 6 7 7 7 7 7 8 8 8 8 10 9 11 12 12 13
13 13 12 11 11 10 10 10 9 9 8 8 7 5 5 5 6 4 3 4 5 5 5 5 5 5 6 6 6 6 6 7 7 7 8 8 8 8 10 9 9 11 12
12 12 11 10 9 8 8 7 7 6 5 5 4 4 3 3 2 2 1 2 3 4 4 4 4 4 5 5 5 6 6 6 6 7 7 7 8 8 7 8 8 9 11
11 10 9 7 6 5 4 4 4 3 3 3 2 2 2 1 0 -0 -0 1 2 3 3 3 4 4 4 4 5 5 5 5 5 6 6 6 7 8 8 7 8 8 9
8 6 5 4 4 3 3 3 2 3 2 2 1 0 -0 0 0 0 2 2 2 2 3 3 3 3 3 4 4 4 4 4 5 5 6 6 6 7 7 8 7 8 9
6 4 4 4 4 4 4 3 2 1 0 0 -0 0 0 1 1 2 2 2 1 1 2 2 2 2 2 3 3 3 3 4 4 4 4 5 5 6 7 7 8 7 8
4 4 5 5 5 5 4 3 2 2 1 2 2 2 2 2 2 2 2 2 2 1 1 2 2 2 2 2 2 2 2 3 3 3 4 4 4 5 6 6 7 7 8
5 5 5 4 5 5 4 3 3 3 3 3 3 2 2 2 2 2 1 1 1 0 -0 0 1 1 1 1 1 1 1 2 2 2 2 3 3 4 4 5 6 6 7
4 4 3 4 4 3 3 3 3 3 2 2 2 2 1 1 0 -0 -0 -1 -1 -1 -1 -1 -1 -1 -0 0 0 1 1 1 1 1 2 2 3 3 4 4 5 6 6
3 1 1 2 2 3 3 3 2 2 1 1 1 0 -0 -1 -1 -1 -1 -2 -2 -2 -2 -2 -2 -1 -1 -1 -1 -1 -0 -1 -0 0 0 1 1 2 3 4 5 6 6
1 1 2 2 2 2 2 1 1 0 -0 -1 -1 -1 -2 -2 -3 -3 -3 -3 -4 -4 -3 -3 -3 -3 -3 -2 -2 -2 -2 -2 -1 -1 -1 -0 0 1 2 3 4 5 6
2 1 2 2 1 1 0 -0 -1 -1 -1 -2 -2 -2 -3 -3 -3 -3 -4 -4 -4 -4 -4 -3 -3 -3 -3 -3 -3 -3 -2 -2 -2 -2 -2 -1 -1 -0 1 2 3 4 5
1 0 1 1 0 -0 -1 -1 -2 -3 -3 -3 -4 -4 -4 -5 -4 -5 -5 -4 -4 -4 -4 -4 -4 -3 -3 -3 -3 -3 -3 -3 -3 -3 -3 -3 -2 -1 -0 1 2 3 4
1 0 -0 -1 -1 -2 -3 -3 -4 -4 -4 -5 -5 -5 -5 -5 -5 -5 -5 -5 -4 -4 -5 -5 -4 -4 -4 -3 -3 -4 -4 -4 -3 -3 -3 -3 -2 -2 -1 -1 -0 1 2
-0 -1 -2 -2 -3 -3 -3 -4 -5 -5 -5 -5 -5 -5 -6 -6 -6 -6 -5 -5 -5 -5 -5 -4 -5 -5 -4 -4 -4 -4 -4 -4 -4 -4 -3 -3 -3 -3 -2 -1 -1 0 0
-2 -2 -3 -3 -4 -4 -4 -5 -5 -5 -5 -5 -5 -6 -6 -6 -5 -5 -5 -5 -5 -5 -4 -4 -4 -4 -4 -4 -4 -5 -4 -4 -4 -4 -4 -4 -3 -3 -3 -2 -1 -0 0
-3 -3 -4 -4 -5 -5 -5 -5 -6 -6 -6 -6 -6 -6 -6 -5 -5 -5 -5 -5 -4 -4 -4 -4 -4 -4 -4 -4 -4 -4 -4 -4 -4 -4 -3 -4 -4 -3 -3 -1 -0 0 1

GFSMA_925_temp_021.txt.gz
Temp
16 16 15 15 15 14 14 14 14 14 14 13 13 13 13 13 13 12 12 13 13 13 13 13 14 13 12 13 13 14 15 15 15 16 15 15 15 16 16 16 16 16 16
16 16 15 15 15 14 14 14 13 13 13 13 13 13 13 12 13 13 12 12 12 12 12 12 12 12 12 12 13 13 14 14 15 15 16 15 15 15 15 15 15 16 16
16 15 15 15 15 15 14 13 13 13 13 13 13 13 12 12 12 12 12 12 11 12 12 12 12 12 12 11 11 12 13 13 14 14 14 15 15 15 15 15 15 15 15
16 16 15 15 15 14 13 13 13 13 13 13 12 12 12 12 12 12 12 11 12 11 11 11 11 12 11 11 11 11 12 12 13 13 13 14 14 14 15 14 15 15 15
16 16 16 16 15 15 14 13 13 13 12 12 12 12 12 12 12 11 12 11 11 11 11 12 11 11 11 11 11 10 11 11 11 12 12 13 13 13 14 14 14 14 15
16 16 16 16 15 14 14 14 13 12 12 12 12 12 11 11 12 11 11 11 10 10 10 11 11 10 10 11 11 10 10 11 11 10 10 12 12 13 13 13 13 14 14
16 15 14 14 14 13 14 14 13 11 11 11 10 11 11 10 10 10 10 10 10 10 10 9 9 9 9 10 10 10 9 8 9 9 10 9 11 11 12 12 13 14 14
15 14 14 14 13 11 12 12 11 11 10 10 12 12 13 13 10 9 9 9 9 9 9 9 9 8 8 8 8 9 9 9 9 8 9 9 8 9 10 11 12 13 13
14 14 13 12 12 11 10 11 10 10 12 11 10 13 13 13 13 9 8 9 8 8 7 7 7 7 7 7 7 7 8 8 8 8 7 8 8 8 9 10 11 12 12
13 13 13 12 11 10 9 9 10 9 10 11 9 9 9 10 12 13 9 8 7 7 6 6 6 6 6 6 6 7 7 7 7 7 7 7 7 8 8 9 9 11 12
12 12 12 12 11 9 8 8 8 7 8 8 10 10 7 8 7 10 12 10 6 6 6 6 6 5 5 6 6 6 6 6 6 6 7 6 7 8 8 8 8 8 10
10 11 11 10 9 8 7 5 5 5 5 6 5 5 6 8 8 7 7 7 7 6 5 5 5 5 5 5 5 5 5 5 5 5 5 6 6 6 7 8 8 8 8
8 8 8 7 5 4 3 4 3 3 3 3 2 2 1 1 1 0 0 2 3 5 5 5 4 4 4 4 4 4 4 5 5 5 5 5 6 6 6 6 7 8 8
6 6 5 4 3 4 3 3 3 2 2 1 1 0 0 -0 -0 -0 0 1 2 4 5 5 5 4 4 4 4 3 4 4 4 4 4 5 5 5 6 6 7 7 7
5 3 3 4 5 5 4 4 3 2 0 0 0 0 0 0 0 0 1 1 2 3 6 5 5 4 3 4 3 3 3 3 3 3 4 4 4 4 5 6 7 7 7
3 4 4 3 3 3 2 2 2 1 1 1 1 1 1 1 1 1 1 2 2 3 4 4 4 3 3 3 3 2 2 2 2 2 3 3 3 3 4 5 6 6 7
3 3 3 3 2 1 1 2 3 2 2 2 2 2 2 1 2 2 2 2 2 2 3 3 3 2 2 2 2 2 2 2 2 1 2 2 2 2 3 3 5 5 6
2 1 1 0 0 1 1 2 2 1 1 1 2 1 1 1 1 1 0 0 1 1 1 2 2 1 1 1 1 1 1 1 2 2 1 1 2 2 2 3 3 4 5
1 1 0 1 2 1 2 2 1 1 1 1 0 -0 -0 -1 -1 -1 -1 -1 -1 -0 -0 -0 0 0 0 0 0 0 0 1 1 1 -0 -0 0 1 1 2 2 3 4
1 1 1 1 1 1 0 0 -0 -0 -1 -1 -1 -2 -2 -2 -2 -2 -2 -2 -2 -2 -1 -1 -1 -0 -0 -0 -1 -1 -0 -0 -0 -0 -0 -0 -0 -0 -0 0 1 2 3
1 1 1 0 0 0 -1 -2 -1 -2 -2 -2 -2 -2 -2 -3 -3 -4 -3 -2 -2 -2 -3 -3 -2 -2 -1 -1 -1 -1 -1 -0 -1 -1 -1 -1 -1 -0 -0 -0 -0 1 2
1 0 -0 -1 -1 -2 -2 -2 -3 -3 -3 -3 -3 -3 -3 -4 -4 -4 -5 -4 -4 -4 -3 -3 -2 -2 -1 -1 -1 -2 -2 -2 -0 -1 -1 -1 -1 -1 -0 -0 0 -0 1
-1 -1 -1 -2 -2 -3 -3 -4 -4 -4 -4 -4 -4 -4 -4 -4 -4 -4 -4 -5 -5 -5 -5 -4 -4 -3 -2 -2 -2 -2 -2 -2 -1 -1 -1 -2 -1 -1 -1 -2 -1 -1 -0
-2 -2 -2 -3 -3 -3 -4 -5 -5 -4 -4 -5 -4 -4 -4 -5 -5 -5 -5 -5 -4 -4 -4 -4 -4 -3 -3 -3 -3 -3 -3 -3 -2 -2 -2 -3 -2 -2 -2 -2 -2 -1 -0
-2 -3 -3 -4 -4 -4 -5 -5 -6 -5 -5 -5 -5 -5 -5 -5 -5 -5 -5 -4 -4 -3 -3 -4 -4 -4 -4 -4 -4 -4 -3 -3 -2 -2 -2 -3 -2 -2 -2 -2 -2 -1 -1
-3 -4 -4 -5 -5 -5 -6 -6 -6 -5 -5 -5 -5 -4 -5 -5 -5 -5 -5 -5 -4 -4 -4 -4 -4 -4 -4 -4 -4 -4 -3 -3 -2 -1 -1 -2 -2 -1 -1 -1 -1 -2 -2

GFSMA_925_temp_027.txt.gz
Temp
19 19 18 18 18 18 18 18 18 18 17 17 17 16 16 17 17 17 18 16 15 15 14 14 13 13 13 14 15 15 15 15 15 15 15 15 16 16 16 16 16 16 15
18 18 18 18 18 19 18 18 18 17 17 17 17 16 16 16 17 17 17 16 15 14 14 13 13 13 13 14 14 14 14 14 15 15 15 15 16 15 16 16 16 15 15
18 17 18 18 18 18 18 17 17 17 17 17 17 17 16 15 15 16 16 16 15 14 13 13 13 13 13 13 14 14 13 13 13 14 14 15 15 15 15 15 15 15 15
17 17 18 18 18 17 17 17 17 17 17 18 17 17 17 17 16 15 15 15 16 15 14 13 13 12 13 12 12 13 13 13 12 12 13 14 14 14 14 15 15 15 15
17 17 17 17 17 17 17 17 17 17 17 17 17 18 17 17 17 16 16 15 15 15 15 14 13 13 13 13 12 12 11 12 12 12 12 12 12 13 13 14 14 14 15
17 16 16 16 16 17 17 17 17 17 17 17 17 17 17 17 17 16 16 16 15 14 14 14 13 12 13 13 12 12 11 11 11 11 11 12 12 12 12 13 13 13 14
16 16 16 16 16 16 16 16 16 16 16 16 16 17 17 16 16 16 16 16 16 15 14 14 14 13 12 12 12 12 11 11 11 10 10 10 10 11 11 12 12 12 12
15 15 15 15 15 15 15 15 15 15 15 15 15 15 16 17 17 17 16 15 16 15 15 14 13 13 14 12 12 12 11 11 11 10 9 10 10 10 10 10 11 12 12
14 14 14 14 13 13 14 14 14 14 15 15 15 15 15 16 18 18 17 15 15 15 15 14 13 13 13 12 11 11 11 11 11 11 10 8 9 9 9 10 9 10 10
14 14 14 13 13 12 12 12 13 13 13 14 14 14 15 14 13 14 15 15 15 14 14 14 14 12 12 11 11 11 10 9 10 10 10 9 8 8 8 8 9 9 9
13 13 13 12 12 11 11 11 11 11 11 11 12 11 10 10 11 10 10 13 14 13 12 13 13 13 11 11 11 10 10 9 8 8 9 8 7 7 7 7 7 8 9
12 12 12 11 10 10 10 10 8 7 6 7 7 6 5 5 7 5 6 9 8 9 11 9 9 10 10 10 10 10 8 8 7 7 7 6 6 6 6 6 6 7 8
11 11 10 9 9 9 7 6 6 5 4 3 2 2 2 1 1 1 1 2 2 3 4 5 6 8 8 9 9 9 8 7 6 6 5 5 5 6 6 5 5 6 6
9 9 9 7 6 5 4 4 4 3 2 2 2 1 1 1 1 1 1 1 3 3 4 3 4 5 6 7 8 7 7 6 6 5 5 5 5 4 5 6 5 5 5
8 8 5 4 4 4 3 3 2 3 3 3 3 2 2 2 1 1 1 1 1 3 5 7 6 5 5 5 7 7 7 6 6 5 5 4 4 4 4 4 5 5 4
5 4 3 3 3 3 3 2 2 2 1 1 2 2 2 3 3 3 2 2 2 2 3 5 5 6 6 6 7 7 6 6 5 5 4 4 4 3 3 3 3 4 5
5 4 3 2 2 3 3 3 3 3 3 3 3 3 3 4 4 5 5 4 4 4 4 5 5 6 6 6 6 6 6 5 5 5 5 4 4 3 3 3 3 3 3
5 4 3 3 4 4 4 4 4 4 4 4 4 4 4 4 4 4 4 4 4 5 5 6 5 5 5 5 5 5 5 5 5 5 5 4 4 3 3 3 2 2 2
4 4 3 3 4 4 4 4 4 4 4 4 3 3 3 3 3 3 3 3 3 4 4 4 4 4 5 5 5 5 5 5 5 5 4 4 3 3 3 2 2 2 2
3 3 4 4 5 4 4 4 4 2 2 2 2 2 2 2 2 2 2 2 2 3 3 3 3 4 4 4 4 4 4 4 5 5 5 4 4 3 3 2 2 1 1
5 5 4 4 4 4 3 1 1 -0 0 1 1 1 2 1 0 -0 -0 -0 -0 0 1 2 3 3 3 3 3 3 3 3 3 2 2 2 3 2 2 2 2 2 2
4 4 4 3 3 3 1 -0 -2 -2 -1 -1 0 1 1 1 1 0 -1 -2 -2 -2 -2 -2 -1 0 0 0 0 0 1 1 1 1 1 1 1 1 1 2 2 1 1
4 3 3 3 2 2 -1 -2 -3 -3 -3 -2 -1 -0 0 1 0 -0 -1 -2 -3 -4 -4 -3 -3 -2 -2 -1 -1 -1 -1 -0 0 0 1 0 0 0 0 1 1 1 0
3 3 2 2 1 1 -1 -3 -4 -4 -3 -2 -2 -2 -1 -1 -2 -3 -3 -3 -3 -3 -3 -3 -3 -2 -2 -2 -2 -1 -1 -1 -1 -1 -0 0 0 0 0 -0 -0 -0 -0
2 2 1 0 -1 -1 -2 -5 -5 -4 -4 -4 -3 -3 -3 -3 -3 -3 -4 -4 -3 -3 -2 -3 -3 -3 -3 -3 -3 -3 -2 -3 -1 -1 -0 -0 0 -0 -0 -0 -0 -0 -0
2 1 -1 -2 -3 -3 -3 -4 -5 -5 -5 -5 -4 -4 -4 -4 -4 -4 -4 -4 -4 -3 -3 -3 -3 -3 -3 -3 -3 -3 -3 -2 -2 -1 -0 -0 -1 0 -0 -0 -0 -0 -0

GFSMA_925_temp_030.txt.gz
Temp
19 18 18 18 18 18 19 19 18 18 18 18 17 17 17 16 16 17 17 17 17 17 16 15 13 13 13 14 15 15 15 15 15 15 16 16 16 16 16 16 16 16 16
18 18 18 18 18 18 18 18 18 17 17 17 17 17 17 16 16 16 17 17 16 17 16 15 13 13 13 13 14 14 14 14 14 15 15 15 15 16 16 16 16 16 16
18 18 18 18 18 18 18 17 18 17 17 17 17 17 17 17 16 16 16 16 16 16 16 15 14 14 13 12 13 14 14 14 14 15 15 15 15 15 15 15 16 15 15
17 17 17 17 17 17 17 17 17 17 17 17 17 17 17 17 17 16 16 16 15 15 15 15 14 14 14 14 13 13 13 13 13 13 13 14 14 14 14 15 15 15 15
17 17 16 16 16 16 16 17 17 17 17 17 17 17 17 17 17 17 17 16 15 15 15 15 15 14 14 13 13 13 12 12 12 12 13 12 12 12 13 14 14 14 14
17 16 16 16 16 16 16 16 16 16 16 16 16 16 16 16 17 17 17 17 16 15 15 15 14 14 13 13 13 13 12 12 12 12 12 12 12 12 12 13 13 13 14
16 15 15 15 15 15 15 15 15 15 15 15 15 15 15 15 16 16 16 17 16 16 15 15 14 14 13 13 13 12 11 11 11 11 12 12 11 12 12 12 12 12 12
16 15 15 14 14 14 13 13 13 14 14 14 14 14 13 14 15 15 16 16 16 16 16 15 14 13 13 13 13 12 11 11 10 10 10 11 11 11 11 11 11 12 12
15 14 14 14 13 13 12 12 12 12 12 12 13 13 12 12 13 14 15 15 15 15 15 15 14 14 14 13 13 12 12 11 11 10 9 10 11 11 11 10 10 10 10
14 13 13 12 12 11 11 11 11 10 10 10 10 10 9 9 9 9 12 13 13 13 14 12 12 11 13 13 12 12 12 11 11 10 8 8 8 8 9 9 9 9 9
12 12 11 11 11 10 10 10 9 8 7 7 6 5 6 6 7 7 8 9 10 10 10 9 10 11 10 10 11 11 11 10 10 10 9 8 7 8 7 7 8 8 8
11 10 10 10 9 8 7 7 7 6 5 5 5 5 3 3 3 3 3 4 4 5 7 7 7 7 8 9 8 9 10 10 10 9 9 9 7 6 6 7 7 7 7
10 9 9 8 7 7 6 6 6 5 4 4 2 2 2 1 1 1 1 1 2 2 4 5 6 5 6 5 6 7 7 8 8 8 8 7 7 5 5 5 6 6 6
9 7 7 6 6 5 5 5 4 4 3 3 2 2 2 2 2 1 1 1 2 2 4 4 4 4 4 4 4 5 5 6 7 6 6 6 6 5 5 5 4 4 5
7 6 5 4 4 4 4 4 3 2 2 2 2 2 2 2 2 2 1 1 1 1 2 4 4 3 3 2 3 3 5 5 6 6 6 5 5 5 5 4 4 4 3
6 5 5 4 3 3 3 3 3 3 3 3 2 2 2 3 3 3 2 1 1 1 1 3 4 4 4 5 4 4 6 6 6 5 5 5 5 5 5 4 4 4 4
6 5 5 4 3 4 4 4 4 4 3 3 3 4 3 3 4 4 4 4 3 2 1 2 3 4 4 5 5 5 5 6 6 6 5 5 5 5 4 4 4 4 3
5 5 4 3 3 4 4 4 4 4 4 4 3 3 3 3 3 3 3 3 4 4 4 3 4 4 4 5 5 5 5 5 5 5 5 5 5 5 4 4 4 3 3
4 4 4 4 4 4 5 4 4 4 2 2 1 2 2 2 2 2 2 2 2 3 3 3 2 3 3 3 4 4 4 4 4 4 5 5 5 4 4 4 3 3 3
4 4 4 4 4 4 4 3 3 2 1 0 -0 0 1 1 2 2 1 1 1 -0 -0 0 1 1 2 3 3 3 3 3 4 4 4 4 4 4 4 4 3 3 2
4 4 4 4 4 3 2 1 1 -1 -1 -1 -1 -1 -0 0 1 1 1 0 -0 -0 -1 -1 -1 -1 -1 1 1 1 1 1 1 1 1 2 2 2 2 2 2 2 2
4 4 4 3 3 3 1 -0 -1 -2 -2 -3 -3 -2 -1 -1 0 -0 -0 -1 -2 -2 -2 -2 -2 -2 -2 -2 -1 -1 -0 -1 -2 0 1 1 1 1 1 1 1 2 1
4 3 3 3 2 1 -1 -1 -3 -3 -4 -3 -3 -3 -2 -2 -2 -2 -2 -2 -2 -3 -3 -3 -4 -3 -3 -3 -2 -2 -1 -2 -1 -1 -0 -0 0 0 0 0 1 1 1
3 3 2 1 -0 -1 -1 -3 -3 -4 -4 -4 -4 -4 -4 -4 -3 -3 -3 -3 -3 -3 -3 -3 -4 -4 -4 -3 -3 -3 -3 -3 -3 -2 -1 -2 -1 -1 -0 -0 0 0 0
3 2 1 -0 -1 -2 -2 -3 -4 -4 -5 -5 -5 -5 -4 -4 -4 -4 -4 -4 -4 -4 -3 -3 -3 -3 -3 -3 -3 -3 -3 -4 -3 -3 -2 -2 -2 -1 -0 -0 -0 -0 -0
2 1 -0 -1 -2 -2 -3 -3 -4 -5 -5 -5 -5 -5 -5 -5 -5 -5 -6 -5 -5 -5 -4 -4 -4 -4 -3 -3 -3 -3 -4 -3 -3 -3 -3 -2 -1 -1 -1 -0 0 0 -0

GFSMA_925_temp_033.txt.gz
Temp
18 18 18 18 18 18 18 18 18 18 18 18 17 17 17 17 17 17 16 16 16 16 16 17 17 15 13 14 15 15 15 15 15 15 15 16 16 16 16 16 16 16 16
18 18 18 18 18 18 18 18 17 17 17 17 17 17 17 17 17 17 17 16 16 16 16 16 16 15 13 13 14 15 15 14 15 15 15 15 15 16 16 16 16 16 16
18 17 17 17 17 17 17 17 17 17 17 17 17 17 17 17 17 17 17 17 17 16 16 16 16 16 14 13 13 14 14 14 14 14 14 14 15 15 15 15 15 16 16
18 17 17 17 17 17 17 17 17 16 16 17 17 17 17 17 17 17 17 16 16 16 16 16 15 16 15 15 12 13 13 14 14 14 14 14 14 14 15 15 15 15 15
17 17 17 17 16 16 16 16 15 15 15 15 15 15 16 16 16 16 16 16 16 16 16 16 15 15 15 15 14 12 12 12 13 13 14 14 14 14 14 14 14 14 15
17 16 16 15 15 15 14 14 14 14 13 14 14 14 14 15 15 15 15 15 16 16 15 15 15 15 15 14 14 13 12 12 12 11 12 13 13 13 13 13 13 13 14
16 15 15 14 14 14 13 13 13 12 12 12 12 12 13 13 14 14 14 15 15 15 15 15 15 15 15 14 14 13 12 12 12 12 11 12 12 12 12 12 13 13 13
14 14 13 13 13 12 12 12 11 11 11 10 10 10 10 11 12 12 13 13 12 13 13 13 14 14 15 15 14 14 13 12 12 11 11 10 11 11 12 12 12 12 12
13 12 12 12 11 11 11 10 10 10 9 8 8 7 7 7 8 10 11 11 11 10 11 11 11 11 13 14 14 14 13 12 12 11 10 10 10 10 11 11 11 11 11
12 11 10 10 10 10 10 9 8 8 8 6 7 7 6 4 6 6 9 8 9 7 7 7 7 9 9 10 10 13 13 12 11 11 10 9 9 9 9 9 9 9 10
11 10 10 10 9 8 7 7 7 6 6 6 4 4 4 4 4 2 4 5 4 4 5 5 6 7 7 7 10 8 10 11 10 10 9 8 8 8 8 8 8 8 8
9 9 9 8 7 7 7 6 6 5 5 4 4 4 2 3 3 2 3 3 2 3 3 5 5 5 5 6 6 6 7 8 10 10 10 9 8 7 7 7 7 7 7
8 8 7 7 6 6 5 5 5 5 4 4 3 2 1 2 2 1 1 1 1 1 3 4 4 4 4 4 4 5 6 5 6 7 8 8 8 7 6 6 6 6 6
8 7 7 6 5 4 4 4 4 3 3 2 2 2 2 1 2 1 1 1 1 1 2 4 4 4 4 4 3 3 3 3 4 4 6 7 7 7 6 6 5 4 4
7 6 5 4 4 4 3 3 3 3 3 3 3 3 2 2 2 2 1 1 -0 0 1 3 3 4 4 4 4 2 2 2 2 2 3 5 6 6 6 6 5 5 4
6 5 5 4 5 4 4 3 3 3 3 3 3 3 3 3 3 3 3 3 1 1 1 2 2 3 3 4 4 4 2 0 1 2 3 4 5 5 5 5 5 5 4
5 5 5 4 4 4 4 4 4 4 4 4 3 2 2 2 2 2 3 3 3 2 1 2 2 3 3 4 4 4 4 3 1 2 4 5 5 6 5 5 5 5 4
5 4 5 4 4 4 4 4 4 3 3 2 2 1 1 1 1 1 2 2 2 2 1 0 1 2 2 3 3 3 3 4 4 4 4 4 5 5 5 5 5 4 4
4 4 4 4 4 4 4 3 3 2 1 1 0 -0 -1 -0 -0 -0 1 1 1 1 1 -0 -1 -0 0 1 1 2 3 3 4 4 4 4 4 4 5 5 5 4 4
4 4 4 4 3 3 3 2 1 0 -0 -1 -2 -2 -2 -2 -1 -1 -1 -0 1 1 0 -0 -1 -1 -1 -1 -0 -0 0 1 1 2 2 2 2 2 3 3 3 3 3
4 4 4 3 3 2 1 0 -1 -2 -2 -3 -3 -3 -3 -3 -2 -2 -2 -2 -1 -1 -1 -2 -2 -2 -3 -2 -2 -2 -1 -1 -0 0 1 2 2 2 2 2 2 2 2
4 4 3 2 2 1 -0 -1 -2 -3 -3 -4 -4 -4 -4 -4 -3 -3 -3 -3 -3 -3 -4 -4 -4 -4 -3 -3 -3 -3 -2 -2 -3 -1 -0 -0 -0 0 1 1 1 1 1
3 3 2 1 1 -0 -1 -2 -3 -3 -4 -4 -4 -4 -5 -5 -5 -4 -4 -4 -4 -3 -3 -3 -4 -4 -4 -4 -4 -4 -4 -3 -3 -2 -2 -2 -1 -1 -0 -0 0 0 0
3 3 1 0 -0 -1 -2 -2 -3 -3 -4 -4 -5 -5 -5 -5 -5 -5 -4 -5 -4 -4 -4 -4 -4 -3 -3 -4 -4 -4 -4 -4 -3 -3 -3 -3 -2 -2 -1 -0 -0 -0 0
3 2 1 -0 -1 -2 -3 -3 -3 -4 -4 -5 -6 -6 -6 -6 -6 -5 -5 -6 -5 -5 -4 -4 -4 -4 -4 -4 -4 -4 -3 -4 -3 -3 -3 -3 -3 -2 -2 -1 -1 -1 -0
1 0 -1 -2 -2 -3 -3 -4 -4 -5 -6 -6 -7 -7 -7 -6 -6 -6 -6 -5 -6 -6 -6 -6 -5 -5 -5 -4 -4 -4 -4 -4 -4 -4 -3 -4 -4 -3 -3 -1 -1 0 0

GFSMA_925_temp_036.txt.gz
Temp
18 18 18 18 18 18 18 17 17 17 17 17 17 17 17 17 17 17 17 17 17 16 16 16 16 16 16 14 14 14 14 14 15 15 15 16 16 16 16 16 16 16 16
18 18 18 17 17 17 17 17 17 17 17 17 17 17 17 17 17 17 17 17 17 17 16 16 16 16 16 15 13 14 14 14 14 14 15 15 15 15 16 16 16 16 16
18 18 17 17 17 17 17 16 16 16 15 15 15 15 16 16 16 16 16 16 16 17 17 17 16 16 16 16 15 13 14 14 14 14 14 14 15 15 15 15 15 16 16
18 17 17 17 16 16 16 15 15 15 14 14 14 14 14 14 15 15 15 15 15 15 16 16 17 17 16 16 16 14 13 13 14 14 14 14 14 15 15 15 15 15 15
17 17 16 15 15 15 15 14 14 13 13 13 12 13 13 13 14 14 14 14 14 14 15 15 16 16 16 16 15 15 13 13 12 12 12 13 14 14 14 14 14 14 15
16 15 15 14 14 14 14 13 12 12 12 11 11 12 12 13 13 13 13 13 13 13 12 12 13 15 15 16 16 15 13 13 13 12 12 11 12 12 13 13 13 14 14
14 14 13 13 13 12 11 11 11 11 11 10 10 10 10 11 11 11 11 10 10 11 11 11 10 11 13 14 15 15 14 13 13 13 12 11 11 12 12 12 12 12 13
13 12 12 12 11 11 11 10 10 9 9 8 8 8 7 9 9 9 9 9 9 9 9 9 9 9 9 10 12 13 15 13 13 13 12 11 11 11 11 11 12 12 12
12 12 11 11 10 10 10 9 8 8 7 8 7 7 5 5 6 8 8 8 8 7 7 7 8 8 8 8 9 10 11 13 14 13 12 11 10 10 10 11 11 11 11
11 11 10 10 9 8 8 7 7 7 6 6 6 5 5 5 3 5 6 6 5 5 6 6 5 6 7 7 7 8 8 10 11 13 12 11 10 9 9 9 9 10 10
11 10 10 9 8 7 7 6 6 5 5 5 4 3 3 3 4 2 2 3 2 3 3 4 4 4 4 5 6 6 7 8 8 9 11 11 10 9 9 9 8 8 8
9 9 8 7 7 6 5 4 4 4 3 3 3 2 1 2 2 2 3 3 2 2 2 4 4 3 4 4 4 4 5 5 8 8 9 10 9 9 8 8 8 8 7
8 7 6 6 6 5 4 4 4 3 3 3 2 2 2 2 2 1 1 1 2 2 2 3 3 3 4 4 4 4 4 5 5 5 5 7 8 7 8 7 7 7 7
6 6 6 5 5 4 4 4 3 3 3 3 3 2 2 1 1 1 0 0 1 1 1 2 2 3 3 3 3 4 3 2 3 4 4 5 5 6 6 6 6 6 5
6 5 5 4 4 4 4 4 3 3 3 3 3 3 2 2 2 2 2 1 1 1 1 1 2 2 3 3 3 3 3 2 1 1 2 2 2 3 4 5 5 5 5
5 5 5 5 4 4 4 4 3 3 3 3 3 3 2 2 2 2 1 2 2 0 1 2 2 2 3 3 3 3 3 3 1 1 0 1 1 1 1 2 4 4 4
6 5 4 4 4 4 4 3 3 3 3 2 1 1 1 1 0 0 1 1 1 1 -0 0 1 1 1 2 2 2 2 3 2 2 1 0 1 1 2 4 5 5 4
5 4 4 4 4 4 3 3 3 1 1 0 -0 -0 -1 -1 -1 -1 -1 -1 -1 -0 -0 -1 -0 0 0 1 1 1 2 2 2 3 3 3 2 1 2 3 4 4 4
5 4 4 4 3 3 3 2 1 0 -0 -1 -1 -2 -2 -2 -2 -2 -2 -2 -1 -1 -1 -1 -1 -1 -1 -1 -1 -1 -0 1 1 1 2 3 3 3 2 3 3 4 5
4 4 4 3 3 3 2 1 0 -1 -1 -2 -2 -3 -3 -4 -4 -3 -3 -2 -3 -2 -2 -2 -2 -2 -2 -2 -2 -2 -2 -2 -1 0 1 1 1 2 2 2 3 3 4
4 4 3 3 3 2 1 -0 -1 -2 -2 -3 -3 -4 -4 -4 -4 -4 -4 -4 -4 -4 -4 -4 -4 -4 -3 -3 -3 -3 -3 -3 -3 -2 -1 0 0 1 1 1 2 2 2
1 3 3 3 2 0 -1 -1 -2 -3 -3 -4 -4 -4 -4 -5 -5 -5 -5 -5 -4 -4 -4 -4 -4 -4 -4 -3 -3 -4 -4 -4 -6 -2 -2 -1 -1 -1 -0 -0 0 1 1
0 3 2 1 -0 -1 -2 -3 -3 -3 -4 -4 -5 -5 -5 -6 -5 -6 -5 -5 -5 -5 -4 -4 -4 -4 -4 -4 -4 -4 -4 -4 -4 -3 -3 -3 -3 -2 -1 -1 -1 -0 0
-0 1 1 -1 -1 -2 -3 -3 -4 -4 -5 -5 -5 -6 -6 -6 -6 -6 -6 -6 -5 -5 -5 -5 -5 -4 -4 -4 -4 -4 -4 -5 -4 -4 -4 -4 -3 -3 -2 -1 -1 -1 -1
1 0 -1 -2 -2 -3 -4 -4 -5 -5 -6 -6 -6 -7 -7 -7 -7 -6 -6 -6 -6 -5 -5 -5 -5 -5 -4 -4 -4 -5 -4 -4 -4 -3 -3 -4 -4 -4 -3 -3 -2 -2 -1
1 -1 -2 -2 -3 -4 -4 -5 -6 -7 -7 -8 -8 -8 -8 -7 -7 -7 -6 -6 -6 -6 -6 -6 -6 -5 -5 -5 -5 -5 -5 -5 -4 -4 -3 -4 -4 -4 -4 -2 -2 -1 -1

GFSMA_925_temp_039.txt.gz
Temp
18 18 17 17 17 17 17 17 16 16 16 16 16 16 16 16 16 16 16 16 16 16 16 17 16 15 15 15 15 15 15 15 16 15 15 15 15 15 16 16 16 16 16
18 18 17 17 17 17 16 16 16 15 15 15 15 15 15 15 15 15 15 15 15 15 16 15 16 17 16 15 15 14 15 15 15 15 15 15 15 15 15 15 15 16 16
18 18 17 17 16 16 16 15 15 15 15 14 14 14 14 14 14 14 14 14 14 14 15 15 15 15 16 16 16 15 14 15 15 15 14 14 15 15 15 15 15 15 15
17 16 16 16 15 15 15 14 14 14 13 13 13 13 13 13 13 13 13 13 13 13 13 14 14 14 15 15 16 15 14 13 14 14 14 14 14 14 15 15 15 15 15
16 15 15 14 14 14 13 13 12 12 12 12 12 12 12 12 12 12 11 12 11 11 11 13 13 13 13 13 14 14 14 14 13 13 14 13 14 14 14 14 14 14 15
15 14 14 13 13 13 12 12 11 11 11 10 10 11 10 11 10 10 10 9 10 9 9 10 10 11 11 12 12 12 13 14 14 13 13 12 12 13 13 13 13 13 14
14 14 13 13 12 12 11 11 11 10 10 9 9 8 9 10 9 9 9 8 8 8 8 8 8 8 9 9 10 10 11 12 14 14 13 12 12 12 13 13 12 12 12
13 13 12 12 11 10 10 9 8 8 8 7 7 7 5 8 7 8 8 8 7 7 7 7 6 7 7 8 8 9 9 10 11 13 13 13 12 12 12 12 12 11 11
12 11 11 10 10 9 8 7 7 7 6 7 6 6 4 4 4 7 7 6 6 6 5 5 5 5 5 6 6 7 8 9 10 10 11 12 12 11 12 12 11 11 11
10 10 9 9 8 8 7 7 7 6 5 5 5 5 5 4 2 2 5 4 4 3 3 3 3 4 4 4 4 4 5 6 8 9 10 11 11 11 10 10 10 10 10
9 9 8 8 7 7 6 5 5 4 4 4 3 3 2 2 3 1 2 2 3 2 2 3 3 3 4 4 4 4 4 4 5 7 8 9 10 10 10 9 9 9 9
8 8 7 6 6 5 5 4 4 3 3 2 2 2 1 2 2 2 2 1 1 2 2 2 3 3 3 3 3 3 3 4 4 5 6 7 9 10 9 9 9 9 8
7 7 7 6 5 5 5 4 4 4 3 3 2 2 2 2 1 1 1 1 1 1 1 2 2 3 3 3 3 3 3 3 3 3 4 5 6 8 7 8 8 8 8
7 7 6 5 5 4 4 4 4 3 3 3 3 2 2 2 2 1 1 0 0 1 1 1 2 2 2 3 3 3 3 2 3 3 2 3 4 5 5 7 7 7 7
6 6 5 4 4 4 4 3 3 3 3 3 3 3 2 2 1 1 1 -0 -0 -0 0 1 1 2 2 2 3 2 3 2 2 2 2 1 2 3 3 4 4 5 5
6 6 5 4 4 3 3 3 3 3 3 3 2 2 1 0 0 0 -0 -0 -1 -1 -2 0 1 1 1 2 2 2 2 2 2 2 2 1 0 1 2 2 1 2 3
6 5 5 4 4 3 3 3 3 3 2 2 1 0 -0 -1 -1 -0 -1 -1 -1 -1 -2 -1 -1 0 1 1 1 1 1 1 2 2 2 2 0 0 0 1 0 0 1
5 5 4 4 3 3 3 3 2 1 1 0 -0 -0 -1 -1 -2 -2 -2 -3 -3 -2 -3 -3 -2 -1 -0 -0 -0 0 -0 0 1 1 2 1 2 0 -0 0 0 1 1
5 4 4 3 3 3 3 2 1 0 -0 -1 -1 -2 -3 -3 -4 -4 -4 -4 -3 -3 -3 -3 -3 -2 -2 -1 -1 -1 -1 -1 -1 -0 0 1 0 1 1 2 1 1 2
4 3 3 2 3 2 2 1 0 -1 -1 -2 -3 -3 -4 -4 -4 -4 -4 -4 -5 -4 -4 -4 -4 -4 -3 -2 -2 -3 -2 -2 -2 -1 -1 -0 0 1 1 1 1 2 2
3 2 1 0 2 1 1 -0 -1 -2 -3 -3 -3 -4 -4 -5 -5 -5 -5 -5 -5 -5 -5 -5 -5 -4 -4 -4 -3 -3 -3 -3 -3 -3 -2 -1 -1 -0 0 1 1 1 1
1 0 -0 0 -1 -0 -1 -1 -2 -3 -4 -4 -4 -5 -5 -5 -6 -6 -6 -6 -6 -6 -5 -5 -5 -5 -4 -4 -4 -4 -4 -5 -6 -3 -3 -2 -2 -2 -1 -1 -0 0 1
2 -0 -0 -1 -1 -1 -2 -3 -3 -4 -4 -5 -5 -6 -6 -6 -6 -7 -7 -6 -6 -6 -6 -6 -5 -5 -5 -5 -4 -4 -4 -5 -5 -3 -4 -4 -4 -3 -1 -1 -1 -1 -0
-0 -1 -1 -2 -2 -2 -3 -4 -4 -5 -6 -6 -6 -7 -7 -7 -7 -7 -7 -7 -6 -6 -5 -5 -5 -5 -5 -5 -5 -5 -5 -5 -5 -5 -5 -4 -4 -4 -2 -2 -1 -1 -1
-1 -1 -2 -2 -2 -3 -4 -5 -6 -6 -7 -7 -8 -8 -8 -8 -8 -7 -7 -7 -6 -6 -5 -6 -6 -6 -6 -5 -5 -4 -5 -5 -5 -4 -4 -4 -4 -4 -3 -2 -1 -1 -2
-0 -1 -2 -2 -3 -4 -5 -6 -6 -7 -8 -8 -8 -8 -8 -8 -8 -7 -7 -7 -7 -6 -6 -6 -5 -5 -5 -6 -6 -5 -5 -5 -5 -5 -3 -4 -4 -4 -4 -2 -2 -1 -2

GFSMA_925_temp_042.txt.gz
Temp
18 18 17 17 16 16 16 16 16 16 15 15 15 15 15 15 15 15 15 15 15 15 15 15 15 14 15 15 15 15 16 16 16 15 15 15 15 15 16 16 16 16 16
17 17 16 16 16 16 15 15 15 15 14 14 14 14 14 14 14 13 14 14 14 14 14 14 15 15 14 14 14 14 15 16 16 16 15 15 15 15 15 15 15 16 16
16 16 16 15 15 15 14 14 14 14 14 14 14 14 13 13 13 13 12 12 13 13 13 13 14 14 14 15 13 14 14 14 15 15 15 15 14 14 15 15 15 15 15
15 15 15 15 14 14 14 14 13 13 12 12 12 12 12 13 12 12 11 10 10 11 11 12 12 12 13 14 14 12 13 14 14 14 15 15 15 15 14 14 14 14 15
15 15 14 14 13 13 12 12 12 11 11 11 11 11 11 12 11 10 10 9 9 9 9 9 10 10 10 11 12 12 11 12 13 13 13 14 15 15 15 14 14 14 14
15 14 14 13 12 12 11 11 10 10 9 8 9 9 9 10 9 8 8 8 8 8 8 8 8 9 9 9 9 9 9 10 12 13 13 13 13 14 14 14 14 13 13
14 13 13 12 11 11 10 9 9 8 8 7 7 7 8 8 8 8 8 7 7 7 7 6 6 7 8 8 9 9 7 8 9 10 12 12 13 13 13 13 13 13 12
13 12 11 11 10 10 9 8 7 7 6 6 6 6 4 6 6 7 7 6 6 6 6 5 5 5 5 5 6 7 6 8 8 8 9 11 11 12 12 13 13 13 12
11 10 10 9 9 8 8 7 7 6 5 5 5 5 3 3 3 6 6 4 4 4 4 4 4 4 4 4 4 3 3 7 7 6 7 8 10 11 11 12 12 12 12
10 9 9 8 8 7 7 7 6 6 4 4 4 4 4 3 2 3 4 4 3 3 3 3 3 3 3 3 3 3 3 4 5 5 5 6 8 9 10 11 11 11 11
9 8 8 7 7 6 6 5 5 4 4 3 3 2 2 1 2 2 2 3 2 2 2 2 2 3 3 3 3 3 3 3 3 4 4 6 6 7 9 10 10 10 10
8 8 7 7 6 5 5 4 4 4 3 3 2 1 1 1 2 2 2 2 2 2 2 2 2 2 2 3 3 3 3 3 3 3 4 4 5 6 7 9 10 10 10
9 8 7 7 6 5 5 4 4 4 3 3 2 2 2 1 1 1 1 1 -0 1 1 1 1 2 2 2 3 3 3 3 3 3 3 3 4 4 6 7 9 10 9
8 8 7 7 6 5 4 4 3 3 3 3 3 2 2 2 2 1 0 0 0 1 1 1 1 1 2 2 2 2 3 3 2 2 2 2 3 3 4 5 6 8 8
8 7 6 5 5 4 4 3 3 3 3 3 3 2 2 1 0 -0 -0 -1 -1 -2 -1 -0 -0 1 1 1 2 2 2 2 2 2 2 2 2 3 2 4 5 6 6
7 6 5 5 4 3 3 3 3 3 2 2 2 1 0 -0 -0 -0 -0 -1 -1 -2 -2 -1 -1 -1 -0 0 1 1 1 1 1 2 2 1 2 2 2 1 3 4 3
6 5 5 4 4 3 3 3 3 2 2 2 0 -0 -0 -1 -1 -1 -2 -2 -3 -3 -3 -3 -2 -2 -2 -1 0 0 0 0 1 1 1 1 2 1 2 1 1 1 1
5 4 4 4 3 3 3 3 2 2 1 -0 -1 -1 -1 -2 -3 -3 -3 -4 -4 -4 -5 -4 -4 -3 -3 -2 -1 -1 -0 -0 -0 -0 0 0 1 1 1 1 0 0 0
5 4 4 3 2 2 2 2 1 0 -1 -1 -2 -2 -3 -3 -4 -4 -4 -5 -5 -5 -5 -4 -4 -4 -4 -3 -2 -2 -1 -1 -1 -1 -0 -0 -0 0 -0 1 0 -0 0
4 3 2 2 1 -0 0 0 -1 -1 -2 -2 -3 -3 -4 -4 -5 -5 -5 -5 -5 -5 -6 -5 -5 -5 -5 -4 -3 -3 -3 -2 -2 -2 -1 -1 -0 -0 0 0 1 1 1
2 1 1 0 -1 -0 -0 -1 -2 -2 -2 -3 -4 -4 -4 -5 -5 -5 -5 -6 -6 -6 -6 -5 -5 -5 -5 -5 -4 -4 -4 -3 -3 -3 -2 -2 -2 -1 -1 0 1 1 1
1 1 -1 -1 -1 -1 -1 -2 -3 -3 -4 -4 -5 -5 -6 -6 -6 -6 -6 -6 -6 -6 -6 -6 -6 -5 -5 -5 -5 -5 -5 -5 -4 -3 -3 -3 -3 -3 -2 -1 -0 0 1
-0 -0 -1 -1 -1 -2 -2 -3 -3 -4 -5 -5 -6 -7 -7 -7 -7 -8 -8 -7 -7 -7 -6 -6 -6 -6 -6 -5 -5 -5 -5 -6 -5 -4 -4 -5 -4 -3 -2 -2 -1 -1 -0
0 -1 -1 -2 -2 -2 -3 -3 -4 -5 -6 -6 -7 -8 -8 -8 -8 -8 -7 -7 -7 -7 -6 -6 -6 -6 -6 -6 -6 -6 -5 -5 -5 -5 -6 -5 -4 -4 -3 -2 -2 -2 -1
-1 -1 -2 -2 -2 -3 -4 -5 -6 -6 -7 -7 -8 -8 -8 -8 -8 -7 -7 -7 -7 -7 -6 -6 -6 -6 -5 -5 -5 -6 -5 -5 -5 -4 -5 -5 -4 -4 -4 -3 -2 -2 -2
-1 -2 -2 -2 -3 -4 -5 -6 -6 -7 -7 -8 -8 -8 -8 -8 -8 -7 -7 -7 -7 -7 -7 -6 -6 -6 -6 -6 -6 -6 -6 -6 -5 -5 -4 -5 -4 -4 -4 -3 -2 -2 -2

GFSMA_925_temp_048.txt.gz
Temp
16 16 16 17 17 16 17 16 16 16 16 15 15 15 15 15 15 15 15 15 14 14 14 14 13 14 14 14 14 14 14 14 14 14 14 14 14 15 15 15 15 15 15
16 15 15 16 16 15 15 15 15 15 15 15 15 14 14 14 14 14 14 15 13 12 12 13 12 12 12 13 13 12 13 13 14 14 14 14 14 14 15 15 15 15 15
13 13 14 15 14 13 14 14 14 14 14 14 14 14 14 14 14 13 13 13 13 12 11 11 11 11 11 11 11 10 10 11 11 12 13 13 13 14 14 15 15 15 15
14 13 13 13 12 13 13 13 13 13 14 14 14 14 14 14 14 13 13 12 12 12 11 10 10 10 10 10 10 9 9 10 10 11 11 12 13 13 13 14 14 15 15
14 14 13 12 12 13 12 12 12 12 12 12 13 13 13 13 13 13 12 11 10 10 10 9 8 9 9 9 8 8 8 9 9 9 10 10 11 12 12 12 13 14 14
13 13 13 12 12 12 12 11 11 11 11 11 11 12 12 12 12 12 11 11 10 9 9 8 8 9 8 6 6 6 7 8 8 8 8 9 9 10 11 12 12 13 13
12 12 13 12 11 11 10 10 10 10 11 10 10 12 12 12 11 11 11 10 9 9 8 8 8 8 8 7 6 5 5 5 6 6 7 8 8 8 9 10 11 12 13
11 11 11 11 10 11 10 9 9 9 10 10 9 9 13 13 13 11 10 9 8 7 8 7 6 6 6 7 7 5 4 4 4 5 5 6 7 7 8 9 9 11 12
11 10 10 10 10 10 10 9 9 8 9 9 9 8 10 11 10 10 10 9 8 8 7 7 6 6 6 6 6 6 4 3 3 4 4 5 5 6 6 8 8 9 10
10 10 10 10 9 9 9 9 8 7 8 8 8 8 8 7 7 8 8 8 8 8 7 7 6 6 6 6 5 5 4 3 3 3 3 4 4 5 5 6 7 8 9
10 10 9 9 9 9 8 7 7 7 7 7 7 7 7 7 7 6 6 7 7 7 7 7 6 6 6 5 5 5 4 3 3 2 3 3 3 4 4 5 5 6 8
11 10 9 9 9 8 8 7 7 6 6 6 6 6 5 4 4 4 5 5 5 6 6 5 4 3 4 5 5 4 3 2 2 2 2 2 2 3 3 3 4 5 7
11 11 10 9 9 8 7 6 6 6 5 5 5 5 4 4 4 4 4 4 5 4 4 5 5 4 3 4 4 4 3 2 2 2 2 2 2 2 2 3 3 4 5
10 9 8 8 7 7 6 6 5 5 5 5 4 4 4 4 3 3 3 3 3 5 5 5 5 5 4 4 3 3 3 2 2 2 1 1 1 1 1 2 2 2 3
8 8 7 7 7 6 6 5 5 5 5 4 4 3 3 4 3 3 3 3 3 3 5 4 4 4 4 4 3 2 2 2 1 1 1 1 1 1 1 1 2 2 2
8 7 7 7 7 6 6 5 5 5 4 4 4 3 3 3 3 3 3 3 3 3 3 3 3 3 2 2 2 1 1 1 1 1 1 1 1 1 1 1 2 2 2
7 7 7 6 6 6 5 5 4 4 3 3 3 3 2 2 2 2 2 2 2 2 2 2 2 2 1 1 1 1 1 1 2 2 1 1 0 -0 0 0 1 1 1
6 6 5 5 5 5 4 3 3 2 2 2 3 2 2 2 1 1 1 1 1 1 1 1 1 1 1 1 0 0 -0 0 1 2 1 0 -0 -1 -0 -0 0 0 0
5 5 4 4 4 3 3 2 1 -0 0 1 1 1 1 1 1 1 1 0 0 0 -0 -1 -1 -1 -1 -1 -1 -1 -1 -1 0 1 0 0 -0 -1 -1 -1 -0 -0 0
4 4 4 3 1 0 -0 -1 -0 1 1 1 1 0 0 -0 -0 -1 -1 -1 -1 -1 -1 -3 -2 -2 -2 -1 -1 -1 -1 -1 -0 0 0 -0 -0 -0 -0 -0 -0 0 0
4 3 2 1 0 0 1 1 1 1 1 1 0 -0 -1 -2 -4 -5 -5 -4 -3 -3 -3 -3 -3 -3 -2 -2 -1 -1 -1 -1 -1 -1 -1 -1 0 1 1 1 0 0 0
4 3 2 2 2 1 -0 -1 -1 0 0 -0 -1 -1 -2 -2 -3 -5 -5 -6 -6 -5 -5 -4 -4 -3 -3 -2 -2 -2 -2 -1 -1 -1 -2 -2 -1 -0 1 1 1 0 -0
3 2 2 2 1 1 -1 -2 -2 -1 -1 -1 -2 -2 -2 -3 -4 -4 -5 -6 -5 -6 -6 -5 -5 -4 -4 -3 -3 -3 -2 -2 -2 -2 -2 -2 -2 -1 -1 0 0 -1 -1
2 1 0 0 1 0 -2 -2 -3 -2 -2 -2 -3 -3 -3 -4 -4 -6 -6 -6 -5 -5 -5 -5 -5 -5 -5 -4 -4 -4 -4 -3 -3 -2 -2 -2 -2 -2 -1 -1 -1 -1 -1
2 2 -0 -0 -0 -0 -3 -3 -4 -3 -3 -3 -3 -3 -4 -5 -6 -7 -7 -6 -6 -5 -5 -6 -6 -6 -6 -6 -5 -5 -4 -3 -3 -2 -2 -3 -2 -2 -1 -1 -1 -1 -1
1 1 1 -0 -1 -1 -3 -4 -4 -4 -4 -4 -4 -3 -4 -6 -8 -8 -7 -7 -7 -6 -6 -6 -6 -5 -5 -4 -5 -5 -4 -3 -2 -2 -1 -3 -1 -1 -0 -0 -0 -0 -1

GFSMA_925_temp_051.txt.gz
Temp
17 17 17 18 17 18 19 18 18 18 17 17 17 16 16 16 16 16 16 16 15 14 14 13 12 11 11 11 11 11 11 12 13 13 13 14 15 15 15 15 15 15 15
16 16 16 17 17 17 16 16 16 16 16 16 16 16 16 16 16 16 16 15 15 14 13 12 11 11 11 10 10 10 10 11 11 12 12 13 13 14 15 15 15 15 15
14 14 16 15 15 14 14 14 15 15 15 16 16 16 16 16 16 15 15 15 15 13 12 12 11 10 10 10 9 9 9 10 10 11 11 11 12 12 13 14 14 15 15
14 14 14 13 13 13 13 14 15 15 14 14 15 15 15 15 15 15 15 15 14 13 12 10 10 10 9 8 8 8 9 9 9 10 10 10 11 11 12 12 13 14 14
14 13 14 14 14 15 14 13 13 13 13 13 14 14 14 14 14 14 14 14 13 12 11 11 10 9 9 9 8 7 8 8 8 9 9 9 9 10 10 11 12 13 13
14 15 14 13 14 14 13 12 12 12 12 13 13 13 13 13 13 13 13 13 13 12 11 10 10 10 9 8 7 6 6 7 7 7 7 8 8 8 8 9 10 11 12
14 14 15 14 13 13 12 12 11 12 12 12 12 12 12 12 14 14 13 13 12 11 10 10 9 9 9 8 8 6 6 5 5 6 6 6 6 7 7 7 8 10 10
13 14 13 13 13 12 12 12 11 11 11 11 11 11 12 12 13 12 11 11 12 11 10 10 9 8 8 8 8 7 5 4 4 4 5 5 5 6 6 7 7 8 9
13 13 12 12 12 11 12 11 10 10 10 10 10 10 10 11 11 11 10 10 10 10 9 9 9 9 8 8 7 7 4 5 4 3 4 4 5 5 5 6 6 7 8
13 12 12 11 11 11 10 10 10 9 9 9 9 10 9 9 9 9 8 8 8 9 9 8 8 8 7 7 6 6 5 4 4 3 3 4 4 4 4 5 5 6 6
13 12 11 11 11 10 10 10 9 9 9 8 9 8 8 8 7 7 7 7 7 7 7 7 7 6 6 6 6 5 4 4 3 3 2 3 3 4 4 4 4 5 6
13 13 12 11 11 10 10 10 8 8 8 7 7 6 6 6 6 5 5 6 6 6 7 6 6 6 6 5 5 5 5 3 2 2 2 2 2 3 3 3 4 4 4
13 12 11 11 10 10 9 9 8 7 7 6 6 6 5 5 5 5 5 4 5 5 6 6 6 6 6 5 4 4 4 4 3 3 2 2 2 2 2 2 3 3 3
11 11 10 9 9 9 9 8 7 6 6 5 5 5 5 5 4 5 4 5 5 5 5 5 6 6 6 5 5 4 4 4 3 3 2 1 1 1 1 2 2 2 2
10 10 9 9 9 8 8 8 7 6 6 6 5 4 4 4 4 5 4 4 4 4 4 5 5 5 5 4 4 4 3 3 3 2 2 2 1 1 1 1 1 1 2
9 9 8 8 8 8 8 8 7 6 5 4 5 5 4 4 4 4 3 4 4 4 5 4 4 4 4 3 3 3 3 2 2 2 2 2 2 0 0 0 -0 0 1
8 8 7 7 7 7 7 7 6 5 5 5 4 4 4 4 3 3 3 3 3 3 3 3 3 3 3 2 2 2 2 1 1 2 2 2 1 0 0 0 0 0 0
7 7 7 7 6 6 6 6 5 5 4 3 3 3 2 3 2 2 3 3 3 3 2 2 2 2 1 1 1 0 1 1 1 1 1 1 0 0 0 0 0 0 0
7 6 6 6 6 5 3 3 2 2 2 2 2 2 2 2 2 2 2 2 1 1 1 1 2 1 -0 -1 -0 -0 -0 -0 0 0 0 1 1 0 -0 -0 -0 -0 0
6 6 6 5 3 2 2 2 2 1 1 2 2 1 2 2 1 -0 -1 -1 -1 -1 -1 -0 -0 -0 -1 -1 -1 -1 -0 -0 -0 -0 0 0 0 0 -0 -0 -0 0 1
6 6 6 4 3 2 2 2 2 2 2 2 2 2 1 0 -1 -2 -3 -3 -3 -3 -3 -2 -2 -2 -2 -2 -1 -1 -1 -1 -1 -1 -1 -0 0 0 0 0 0 1 1
6 6 4 3 3 2 1 1 0 1 1 2 2 1 0 -0 -0 -2 -3 -4 -5 -5 -4 -4 -3 -3 -3 -2 -2 -3 -3 -2 -1 -1 -1 -1 -1 -1 0 0 -0 -1 0
5 4 3 2 2 2 -0 0 -1 -1 0 1 0 0 -0 -1 -1 -2 -3 -4 -4 -4 -5 -5 -4 -4 -4 -4 -4 -4 -3 -2 -2 -2 -2 -2 -2 -2 -1 -0 -0 -1 -0
5 3 2 2 0 -0 -1 -1 -2 -2 0 0 -0 -1 -1 -1 -2 -5 -5 -5 -5 -5 -4 -4 -4 -4 -5 -5 -5 -4 -4 -4 -4 -3 -2 -2 -1 -1 -1 -1 -1 -1 -1
4 2 2 2 1 -1 -1 -1 -2 -2 -1 -1 -2 -1 -2 -3 -4 -5 -7 -6 -6 -5 -5 -5 -5 -5 -6 -5 -5 -5 -5 -4 -3 -2 -2 -3 -2 -2 -2 -1 -1 -1 -1
4 2 1 1 -1 -0 -2 -2 -3 -3 -3 -3 -2 -2 -2 -4 -6 -7 -7 -7 -7 -6 -6 -6 -6 -5 -5 -4 -5 -4 -4 -4 -3 -2 -1 -3 -2 -2 -1 -0 -0 -0 -0

GFSMA_925_temp_054.txt.gz
Temp
17 17 17 17 18 18 17 17 17 16 16 16 16 16 16 16 16 16 16 16 16 15 14 13 13 12 10 10 10 10 10 11 11 12 12 12 13 13 13 14 15 15 15
16 16 16 16 15 16 16 15 15 15 15 15 15 16 16 16 15 15 15 15 15 15 13 12 11 10 10 9 9 9 9 10 10 11 11 11 12 12 13 13 13 14 15
15 15 15 15 15 15 14 14 14 14 14 14 14 14 15 15 14 14 14 15 15 14 12 11 10 10 9 9 9 9 9 9 9 10 10 10 10 10 11 12 12 13 13
15 14 14 14 14 14 14 14 13 13 13 13 13 14 14 13 13 14 14 14 14 13 12 11 10 10 9 9 8 8 8 8 8 9 9 9 9 9 10 10 10 11 12
14 14 14 14 14 14 14 13 12 12 12 12 12 13 13 12 13 13 13 13 13 13 12 11 10 10 9 8 8 7 7 7 7 7 7 7 8 8 8 9 10 10 11
14 15 14 13 13 14 13 12 12 11 11 12 11 12 12 12 12 12 12 13 13 12 11 11 10 10 9 9 8 7 7 6 6 6 6 6 7 7 7 7 7 8 9
14 14 14 14 13 13 12 12 11 11 11 11 10 10 11 11 11 12 11 11 11 11 11 10 10 9 9 8 8 7 6 6 6 5 5 5 6 6 6 6 7 7 8
13 14 13 13 12 12 12 12 11 10 10 10 9 10 8 9 11 10 10 10 10 9 9 9 9 9 9 8 8 7 5 5 5 5 5 5 5 5 5 6 6 6 7
13 13 13 12 12 11 11 11 10 10 9 9 9 9 7 7 8 9 8 9 8 8 8 7 8 8 7 7 6 6 5 4 4 4 4 4 4 4 5 5 5 5 6
13 12 12 12 11 11 11 10 10 10 9 9 9 9 8 8 6 5 7 7 7 7 7 7 7 7 6 6 6 6 6 5 4 4 4 4 4 4 4 4 5 5 5
14 13 12 12 11 11 11 10 10 9 9 8 8 7 7 6 6 5 4 5 5 6 6 6 6 6 6 6 6 6 5 4 4 3 3 3 3 3 3 4 4 4 4
14 13 13 12 11 10 10 10 9 9 8 7 7 6 6 5 5 5 3 4 4 5 5 5 5 6 6 6 6 5 5 4 4 3 3 3 3 3 3 3 3 4 4
13 12 11 11 10 10 9 9 9 8 7 7 6 5 5 5 5 5 4 4 3 4 4 5 5 5 5 5 5 5 4 4 4 3 3 2 2 2 2 2 2 2 3
11 11 10 10 9 9 9 8 8 8 7 6 5 5 5 4 4 4 4 4 1 3 4 4 4 4 5 4 5 4 4 3 3 3 3 2 2 2 2 2 1 2 2
10 10 9 9 8 8 8 8 8 8 7 6 5 4 4 4 4 4 4 4 3 1 2 3 4 4 4 3 3 3 3 3 2 2 2 2 2 2 2 1 1 1 1
9 9 8 8 8 7 7 7 7 7 6 5 5 4 4 4 4 4 3 3 3 3 1 3 3 3 3 2 2 2 1 1 1 1 1 1 1 1 1 1 0 0 0
9 8 8 7 7 7 7 7 6 6 5 4 3 3 3 3 3 3 2 2 2 3 2 2 2 2 2 2 1 0 0 0 0 1 1 1 1 0 1 1 0 0 0
8 7 7 7 6 6 5 4 3 3 3 3 2 2 2 2 2 2 2 2 1 0 0 -0 0 1 1 1 -0 -1 -1 -1 -0 -0 -0 0 0 0 0 0 0 -0 0
7 7 6 6 6 5 4 3 2 2 2 2 2 2 2 2 2 1 0 -1 -1 -1 -1 -2 -2 -1 -1 -1 -1 -1 -1 -1 -1 -1 -0 0 -0 0 -0 -1 -1 -1 0
7 6 6 6 5 4 3 3 2 2 2 2 2 2 2 2 1 0 -1 -2 -2 -3 -3 -3 -3 -3 -2 -2 -2 -2 -2 -2 -1 -1 -1 -1 -1 -1 -0 -0 -1 -0 -0
6 6 6 5 4 3 3 2 2 2 2 1 1 2 2 1 0 -1 -1 -2 -3 -4 -4 -4 -4 -4 -3 -3 -3 -3 -3 -3 -3 -3 -2 -2 -1 -2 -1 -1 -0 -0 -0
6 6 5 4 3 3 3 2 1 1 1 1 1 1 1 0 -0 -1 -3 -4 -4 -4 -5 -5 -5 -5 -4 -4 -4 -4 -5 -4 -4 -3 -2 -3 -3 -2 -2 -1 -1 -1 -1
6 6 4 3 3 2 1 0 -2 0 -0 -0 0 0 -0 -0 -1 -2 -3 -4 -5 -5 -5 -5 -5 -5 -5 -5 -5 -5 -5 -5 -5 -4 -4 -4 -3 -2 -2 -2 -1 -1 -1
5 5 4 3 2 2 1 -1 -2 -1 -1 -0 -0 -1 -1 -1 -2 -3 -4 -5 -6 -6 -5 -5 -6 -6 -6 -6 -5 -6 -6 -6 -5 -4 -4 -4 -3 -2 -2 -2 -2 -1 -1
3 4 3 2 1 1 -0 -2 -2 -2 -2 -2 -2 -2 -2 -2 -3 -4 -5 -6 -7 -7 -6 -6 -6 -6 -6 -6 -5 -5 -6 -5 -5 -4 -3 -4 -3 -3 -2 -2 -1 -1 -1
3 3 1 1 0 -1 -1 -2 -2 -3 -3 -3 -3 -3 -3 -3 -4 -5 -6 -7 -8 -7 -7 -7 -7 -6 -6 -5 -5 -5 -5 -5 -4 -4 -3 -3 -3 -2 -2 -1 -2 -2 -1

GFSMA_925_temp_060.txt.gz
Temp
17 17 16 16 16 16 16 15 15 15 15 14 14 14 14 13 13 13 13 13 13 13 11 11 11 10 10 10 9 9 9 9 10 10 9 9 9 9 10 10 10 10 11
17 16 15 15 15 15 15 15 15 14 14 14 13 13 12 12 12 12 12 12 12 12 12 10 10 10 10 9 9 9 9 9 9 9 9 8 9 9 9 9 9 10 10
16 15 15 15 15 15 14 14 14 14 13 13 12 12 12 12 12 11 11 12 12 11 11 10 10 10 9 9 9 8 8 8 8 8 8 8 8 8 8 8 8 8 8
15 16 15 15 14 14 14 14 13 12 12 11 11 11 11 11 10 10 10 10 11 9 9 9 9 9 9 9 9 8 8 8 7 7 7 7 7 7 7 7 7 7 8
15 15 15 14 14 14 13 12 12 11 10 10 10 10 10 10 9 9 9 9 9 9 9 9 9 8 8 9 9 8 8 7 7 7 6 6 6 6 6 6 6 6 7
14 14 14 13 13 13 12 11 11 10 10 10 9 9 9 9 9 8 8 9 9 9 8 8 8 8 8 7 7 7 7 7 6 6 6 6 6 6 6 6 6 6 6
14 14 13 13 12 12 12 11 10 10 10 9 9 9 9 9 8 8 8 8 8 7 7 7 7 7 8 7 7 7 6 6 6 6 6 5 5 5 5 5 5 6 6
14 14 13 13 12 12 11 11 10 10 10 9 9 7 5 7 8 7 8 7 7 7 7 6 6 6 6 6 6 6 6 6 6 6 6 5 5 5 5 5 5 5 5
13 13 13 12 12 11 11 11 10 10 9 9 8 8 4 4 4 7 7 6 6 6 6 6 6 5 5 6 6 6 6 6 5 5 5 5 5 5 5 5 5 5 5
13 13 13 12 12 11 11 10 10 9 9 8 8 8 8 7 3 2 6 6 6 6 5 5 5 5 5 5 5 5 5 5 4 4 4 4 4 4 4 4 4 4 4
13 12 12 11 11 10 10 9 9 9 8 8 8 7 7 6 5 3 2 3 4 5 5 5 4 4 4 4 4 4 4 4 4 4 4 4 4 4 4 4 4 4 4
13 11 11 11 10 10 9 9 8 8 8 7 7 7 6 5 4 4 2 2 1 3 4 4 4 4 4 4 4 4 4 3 3 3 3 3 3 3 4 4 4 4 4
11 10 9 9 9 9 8 8 8 7 7 7 7 6 5 5 5 4 3 3 1 2 3 3 3 3 3 3 3 3 3 3 3 2 2 2 2 2 2 3 3 3 3
10 10 8 9 9 8 8 7 7 7 6 6 6 5 5 5 4 4 3 1 1 -0 1 2 2 2 2 2 1 2 2 2 2 1 1 1 1 1 1 2 2 2 2
10 9 9 9 9 8 7 7 6 6 6 5 5 4 4 4 4 4 3 2 0 -2 -2 1 1 1 0 1 1 0 1 1 0 0 -0 -0 -0 0 0 1 1 1 1
10 9 9 9 8 7 7 6 6 5 5 4 4 3 3 3 3 3 2 0 -1 -1 -2 -1 -1 -1 -1 -1 -2 -1 -1 -1 -1 -1 -1 -1 -1 -1 -1 -0 -0 0 0
9 9 8 8 7 7 6 6 5 5 4 4 3 2 2 2 2 1 1 0 -1 -1 -2 -2 -2 -2 -3 -3 -3 -3 -3 -3 -2 -2 -2 -2 -2 -2 -1 -1 -1 -1 -1
8 8 8 7 7 6 6 5 5 4 4 3 2 2 2 2 1 1 1 0 -0 -1 -2 -3 -3 -3 -3 -4 -4 -4 -4 -3 -3 -3 -3 -3 -3 -2 -2 -2 -1 -1 -1
8 7 7 7 6 6 6 4 4 4 3 2 2 2 1 1 1 1 0 -0 -1 -2 -2 -4 -4 -4 -4 -5 -5 -5 -4 -4 -4 -4 -4 -4 -3 -3 -3 -3 -2 -2 -2
7 7 7 6 6 6 4 4 3 3 2 2 1 1 1 1 1 0 -0 -1 -2 -2 -3 -4 -5 -5 -6 -6 -6 -6 -6 -5 -5 -5 -4 -4 -4 -4 -4 -3 -3 -2 -2
6 6 6 6 6 4 4 3 3 2 2 2 1 0 -1 0 0 -0 -1 -2 -2 -3 -4 -5 -6 -6 -6 -6 -6 -6 -6 -6 -6 -6 -5 -4 -5 -4 -3 -3 -3 -3 -3
5 5 5 5 4 4 3 3 2 2 1 0 0 -1 -1 -0 -1 -1 -2 -2 -3 -4 -5 -6 -7 -7 -7 -7 -6 -7 -7 -7 -6 -6 -5 -6 -6 -4 -3 -3 -3 -3 -3
5 4 4 4 3 3 3 2 1 1 0 -1 -2 -1 -1 -1 -2 -2 -3 -3 -4 -4 -5 -6 -7 -7 -7 -7 -7 -7 -7 -7 -7 -6 -6 -6 -5 -5 -3 -3 -3 -2 -2
4 4 4 3 3 2 2 1 1 -0 -1 -1 -2 -2 -2 -2 -2 -3 -3 -4 -4 -4 -5 -6 -7 -7 -7 -7 -7 -7 -6 -6 -6 -6 -6 -6 -5 -5 -3 -3 -2 -2 -2
4 4 3 3 3 2 1 0 -1 -1 -2 -2 -2 -2 -2 -3 -3 -3 -4 -4 -4 -4 -6 -6 -7 -7 -7 -7 -6 -7 -7 -7 -6 -6 -6 -6 -5 -4 -4 -3 -2 -2 -2
2 2 2 2 2 1 1 0 -1 -1 -2 -2 -2 -3 -3 -3 -3 -4 -5 -5 -5 -5 -6 -6 -6 -6 -7 -7 -7 -7 -7 -7 -7 -6 -5 -6 -5 -5 -5 -3 -2 -2 -2

GFSMA_925_temp_063.txt.gz
Temp
17 17 16 16 16 15 15 15 15 14 14 13 13 13 12 12 12 12 12 12 13 12 12 11 11 10 10 9 9 9 9 9 9 9 9 9 9 8 9 8 9 9 9
16 16 16 15 15 15 15 14 14 14 13 13 13 12 12 11 11 11 11 12 12 12 11 11 10 10 10 9 9 9 9 9 9 8 8 8 8 8 7 7 7 8 8
16 15 15 15 14 14 14 14 13 13 13 13 12 12 11 10 10 10 10 11 11 9 10 9 10 9 9 9 9 8 8 8 8 8 7 7 7 7 7 7 7 7 7
15 15 15 14 14 14 13 13 13 13 12 11 11 10 10 9 9 9 9 9 9 9 9 9 9 9 9 9 9 8 8 8 7 7 7 7 7 7 7 7 7 7 7
15 15 15 14 14 14 14 13 12 11 11 10 10 9 9 9 9 8 9 9 9 9 9 9 8 8 8 8 8 8 8 7 7 7 6 6 6 6 6 6 6 6 6
14 14 14 14 14 13 13 12 11 10 10 9 9 9 9 8 8 8 8 8 8 8 8 8 8 8 8 8 7 7 7 7 7 6 6 6 6 6 6 6 6 6 6
14 14 14 13 13 13 12 11 10 10 9 9 9 8 9 8 8 7 8 7 7 7 7 7 7 7 7 7 7 7 7 7 7 7 6 6 6 5 5 5 5 5 5
14 14 14 13 12 12 11 11 10 10 9 9 8 6 4 6 7 8 7 7 6 6 7 6 6 6 5 6 6 6 6 6 7 7 6 6 5 5 5 5 5 5 5
14 14 13 13 12 11 11 10 10 9 9 8 8 8 4 3 4 7 6 6 6 6 6 5 5 5 5 5 5 5 5 5 5 6 6 5 5 5 5 5 5 5 5
14 13 12 12 11 10 10 9 9 9 8 8 8 8 7 7 3 2 6 6 5 5 5 5 4 4 4 4 4 4 4 4 5 4 5 5 5 5 5 5 5 5 5
12 12 11 10 10 10 9 9 9 8 8 7 7 7 6 6 5 2 1 3 4 4 4 4 4 4 4 4 3 3 4 4 4 4 4 4 4 4 4 4 4 4 4
11 11 10 10 10 9 9 8 8 7 7 7 6 6 5 5 4 3 -0 2 2 3 3 3 4 3 3 3 3 3 3 3 3 3 2 3 3 3 4 4 4 4 4
10 10 10 10 8 9 8 8 8 7 6 6 6 6 5 5 4 4 3 2 3 1 2 2 3 3 2 2 2 2 2 1 1 2 1 2 2 2 2 2 3 3 3
10 11 10 9 9 8 8 7 7 6 6 6 5 5 4 4 4 4 3 3 1 1 1 2 2 2 2 1 1 1 1 1 1 0 -0 -0 0 0 0 1 1 1 2
9 9 9 8 8 8 7 7 6 6 5 5 4 4 4 3 3 3 3 1 1 0 -3 -0 1 0 0 0 -0 -0 -0 -1 -1 -1 -1 -1 -1 -1 -1 -0 0 0 1
8 8 8 8 8 7 7 6 6 5 5 5 4 3 3 2 2 2 2 0 -0 -1 -1 -1 -1 -1 -2 -2 -3 -3 -3 -3 -3 -3 -3 -2 -2 -2 -2 -1 -1 -1 -0
8 8 8 8 8 7 6 6 5 5 5 4 3 3 2 2 1 1 1 1 0 -1 -3 -2 -2 -2 -3 -3 -3 -4 -4 -4 -4 -4 -4 -3 -3 -3 -3 -2 -2 -2 -2
8 8 8 8 7 7 6 6 5 5 4 3 3 2 2 1 1 1 1 1 -0 -1 -2 -3 -3 -3 -3 -4 -5 -5 -5 -5 -5 -5 -4 -4 -4 -4 -3 -3 -3 -3 -2
8 8 7 7 7 6 6 6 5 4 3 3 2 2 2 1 1 1 0 -0 -1 -1 -2 -3 -4 -4 -4 -5 -5 -5 -5 -5 -5 -5 -5 -5 -5 -5 -4 -4 -4 -3 -3
7 7 6 6 6 6 5 5 4 3 3 2 2 1 1 0 0 0 0 -0 -1 -2 -3 -4 -4 -5 -5 -6 -6 -6 -6 -6 -6 -6 -5 -5 -5 -5 -5 -5 -4 -4 -3
6 6 5 5 5 5 4 4 3 3 2 2 1 1 0 -0 -1 -1 -0 -0 -2 -2 -3 -5 -5 -6 -7 -7 -7 -7 -7 -7 -7 -6 -6 -5 -6 -5 -4 -4 -3 -3 -3
6 5 5 5 4 4 4 3 3 2 2 1 1 0 -1 -1 -1 -1 -1 -1 -2 -3 -4 -5 -6 -7 -7 -7 -7 -8 -8 -8 -7 -6 -6 -7 -6 -5 -4 -4 -3 -3 -3
5 5 4 4 4 3 3 2 2 1 1 0 -1 -1 -1 -1 -1 -2 -2 -3 -3 -4 -5 -5 -6 -7 -7 -7 -7 -8 -8 -8 -7 -6 -7 -7 -6 -6 -4 -4 -4 -3 -3
4 4 4 3 3 3 3 2 2 1 0 -0 -1 -2 -2 -2 -2 -2 -3 -4 -4 -4 -5 -5 -6 -7 -7 -7 -7 -7 -7 -7 -7 -7 -6 -7 -6 -6 -5 -4 -3 -2 -2
4 3 3 2 2 2 2 1 1 0 -1 -1 -2 -3 -3 -3 -2 -3 -4 -4 -5 -5 -5 -5 -6 -7 -7 -7 -7 -7 -7 -8 -8 -7 -6 -7 -6 -6 -5 -4 -3 -3 -3
3 3 2 2 2 1 0 0 -0 -1 -2 -2 -2 -3 -3 -3 -3 -3 -4 -5 -5 -5 -5 -6 -6 -6 -6 -7 -7 -7 -8 -9 -8 -8 -6 -7 -7 -6 -5 -3 -3 -3 -3

GFSMA_925_temp_066.txt.gz
Temp
17 16 16 16 15 15 15 15 14 14 14 13 13 13 12 12 12 12 12 12 12 12 11 11 11 10 10 9 9 9 9 9 9 9 8 8 8 8 8 8 7 8 8
16 16 15 15 15 15 14 14 14 13 13 13 12 11 11 11 11 11 11 11 11 10 10 10 10 10 10 9 9 9 9 9 8 8 8 8 7 7 7 7 7 7 7
16 15 15 15 14 14 14 14 13 13 12 12 11 11 10 10 10 10 10 10 9 9 10 9 10 9 9 9 9 8 8 8 8 8 7 8 7 7 7 7 7 7 7
15 15 15 14 14 14 14 13 12 12 11 11 11 10 9 9 9 9 9 9 9 9 9 9 9 9 9 9 9 9 8 8 7 7 7 8 7 7 7 7 7 6 6
15 15 15 14 14 13 13 13 12 11 11 10 10 9 9 9 8 8 8 8 8 9 9 9 8 8 8 8 8 8 8 8 7 7 7 6 6 6 6 6 6 6 6
14 14 14 14 13 13 13 12 12 11 10 10 9 9 8 8 8 8 8 8 8 7 7 7 7 8 8 7 7 8 8 8 7 7 6 6 6 6 6 5 5 5 6
14 14 14 14 13 13 12 12 11 10 9 9 8 8 8 8 7 7 7 7 7 7 7 6 6 7 7 7 7 6 7 7 8 8 7 7 6 5 5 5 6 6 5
14 14 14 13 13 12 11 11 10 10 9 8 8 6 4 6 7 7 7 7 7 7 6 6 6 5 5 5 6 6 6 5 6 7 7 7 7 5 6 5 6 6 5
14 13 13 12 12 11 11 10 10 9 9 8 8 8 4 4 4 7 7 6 6 6 6 5 5 5 5 5 5 5 5 5 5 5 6 6 6 6 5 5 5 6 5
13 12 12 11 11 11 10 9 9 9 8 8 7 7 7 6 3 2 5 6 5 5 5 5 4 4 4 4 4 4 4 4 4 4 4 5 5 5 5 5 5 5 5
12 11 12 11 11 10 9 9 8 8 8 7 7 6 6 6 5 2 1 3 4 4 4 4 3 3 3 3 3 3 3 3 3 3 3 4 4 4 4 4 5 5 4
11 12 11 11 10 9 9 9 8 8 7 6 6 6 5 4 4 3 -0 1 1 3 3 3 3 2 2 2 2 2 2 2 2 2 2 2 3 3 3 3 4 4 4
11 10 10 9 9 8 9 9 8 7 6 6 6 5 5 5 4 3 2 2 1 2 2 2 2 2 2 1 1 1 1 1 1 1 0 1 1 2 2 2 2 2 3
10 10 9 8 8 8 8 8 7 6 6 5 5 5 5 4 4 4 2 2 2 2 0 1 2 1 0 0 0 0 0 0 0 -0 -1 -1 -1 -0 -0 0 1 1 1
10 9 9 8 9 9 8 7 7 6 6 5 5 4 4 4 3 2 2 2 1 1 0 0 0 0 0 -0 -0 -1 -1 -1 -2 -2 -2 -3 -2 -2 -1 -1 -1 -0 -0
9 9 8 8 8 8 7 7 6 5 5 4 4 4 3 3 2 2 2 2 1 -0 -0 -1 -0 -1 -1 -1 -2 -3 -3 -3 -3 -3 -4 -4 -3 -3 -3 -2 -2 -1 -1
9 8 8 8 8 7 6 6 5 5 4 4 4 3 3 2 2 1 1 1 0 -1 -2 -1 -2 -2 -2 -3 -3 -3 -4 -4 -4 -5 -5 -5 -4 -4 -3 -3 -3 -3 -2
7 7 8 8 7 6 6 6 5 5 4 4 3 3 2 2 1 1 1 0 0 -0 -2 -3 -2 -3 -3 -3 -4 -5 -5 -5 -5 -5 -5 -5 -5 -5 -4 -4 -4 -4 -3
7 8 7 6 6 6 6 5 5 5 4 3 3 2 2 1 1 1 0 0 -0 -1 -2 -3 -3 -4 -4 -4 -5 -5 -6 -6 -6 -6 -5 -6 -6 -5 -5 -5 -5 -4 -4
7 7 6 6 6 5 5 5 5 4 3 3 2 2 1 1 1 0 -0 -1 -1 -2 -2 -3 -4 -4 -5 -5 -6 -7 -7 -7 -7 -6 -5 -5 -6 -5 -5 -5 -5 -5 -4
7 6 6 5 5 5 4 4 4 3 3 2 2 1 1 0 -0 -1 -1 -1 -1 -2 -3 -4 -5 -5 -6 -6 -7 -7 -8 -7 -7 -6 -6 -6 -6 -5 -5 -4 -4 -4 -3
6 5 5 4 4 4 4 3 3 2 2 2 1 1 0 -1 -1 -1 -1 -1 -1 -2 -3 -4 -5 -6 -6 -7 -7 -8 -8 -8 -7 -6 -7 -7 -7 -6 -5 -5 -4 -3 -3
5 5 4 4 3 3 3 3 3 2 2 1 1 0 -1 -1 -2 -1 -1 -2 -2 -2 -3 -4 -5 -6 -7 -7 -7 -8 -8 -8 -7 -7 -7 -7 -7 -7 -5 -5 -4 -3 -3
4 4 4 3 3 3 2 2 2 1 1 1 0 -1 -1 -2 -2 -2 -2 -3 -3 -3 -4 -5 -5 -5 -6 -7 -7 -7 -8 -8 -8 -8 -7 -8 -7 -7 -6 -4 -3 -2 -3
4 3 3 3 2 2 2 2 1 0 -0 -0 -1 -1 -2 -2 -2 -3 -4 -3 -4 -4 -4 -5 -5 -6 -7 -7 -7 -7 -7 -9 -9 -8 -8 -8 -7 -7 -6 -4 -3 -3 -3
3 3 3 3 2 2 2 1 0 -1 -2 -2 -1 -1 -2 -2 -3 -3 -4 -4 -4 -4 -5 -5 -5 -6 -6 -6 -6 -7 -7 -9 -9 -8 -7 -7 -7 -7 -6 -5 -5 -4 -3

GFSMA_925_temp_069.txt.gz
Temp
16 16 15 15 15 15 15 15 14 14 13 13 13 12 12 12 12 11 11 12 12 12 12 11 11 10 10 9 9 9 9 9 9 9 8 8 8 8 8 8 8 8 8
16 15 15 15 15 15 14 14 14 14 13 13 12 12 11 11 10 10 10 9 10 11 11 10 10 10 10 9 9 9 9 9 9 8 8 8 8 7 7 7 7 7 7
15 15 15 15 14 14 14 14 13 13 12 12 11 11 10 10 10 10 10 9 9 10 10 10 10 9 9 9 9 9 8 8 8 8 8 7 7 7 7 7 7 7 7
15 15 15 14 14 14 14 13 13 12 11 10 10 10 9 9 9 9 9 9 9 9 9 9 9 9 9 9 9 9 9 8 8 7 7 7 7 7 7 7 6 6 6
15 15 14 14 14 13 13 13 12 12 11 10 10 9 9 8 8 8 8 8 9 8 8 8 8 8 8 8 8 8 9 8 8 7 7 7 7 7 6 6 6 6 6
15 14 14 14 13 13 13 12 12 11 10 10 9 9 8 8 8 7 8 8 7 8 7 7 7 7 7 7 7 7 8 8 9 8 7 7 6 6 6 6 6 6 6
14 14 14 14 13 13 12 12 12 11 9 9 9 9 8 7 7 7 7 7 7 7 7 6 6 6 6 6 6 6 6 6 7 7 7 7 7 6 5 6 6 6 6
14 14 14 13 13 12 12 12 11 9 8 9 9 8 11 10 7 7 7 6 6 6 6 6 5 5 5 5 5 5 5 5 5 6 6 6 7 7 6 6 6 6 6
14 13 13 13 12 12 12 11 10 9 9 8 8 9 10 10 9 7 6 6 6 6 6 5 5 4 4 4 4 4 4 4 4 4 5 5 6 6 6 5 5 6 6
13 13 12 12 12 11 11 10 9 9 9 9 7 7 6 7 9 9 7 6 5 5 5 5 4 4 3 3 3 3 3 3 4 3 4 4 5 5 6 6 6 5 5
12 12 12 12 11 11 10 9 9 8 8 8 7 7 6 6 6 6 8 7 6 5 5 5 4 3 2 2 2 2 2 3 3 3 2 3 4 4 4 5 4 4 5
12 12 12 11 10 10 9 9 8 8 7 7 6 6 6 6 7 6 6 6 6 5 4 4 4 3 2 1 1 1 1 1 1 1 1 1 2 2 3 3 4 4 4
11 11 10 10 9 9 8 8 8 8 7 6 5 5 5 5 5 5 5 5 5 5 4 3 3 2 1 1 0 1 0 1 0 0 0 -1 -0 0 1 2 2 2 3
10 10 10 10 10 9 8 8 8 7 7 6 5 5 4 4 4 4 4 4 4 5 4 3 2 1 1 0 0 0 -1 -1 -1 -1 -2 -2 -2 -1 -1 -0 0 1 1
10 9 9 9 8 8 7 8 7 7 6 5 5 5 4 4 3 3 3 3 3 4 6 4 2 1 1 1 0 -0 -1 -2 -1 -2 -2 -2 -3 -3 -2 -2 -1 -1 -0
9 9 9 8 6 7 8 7 7 6 6 5 4 4 3 3 3 2 2 2 2 3 4 3 2 1 0 -0 -1 -2 -2 -3 -3 -3 -3 -4 -4 -4 -3 -3 -2 -2 -1
9 9 8 8 7 8 8 7 6 6 5 4 3 3 3 2 2 2 2 2 2 1 2 2 1 0 -1 -1 -1 -2 -3 -3 -3 -4 -5 -5 -5 -4 -4 -4 -4 -3 -3
9 9 8 8 8 7 7 6 6 5 4 3 3 2 2 2 2 2 1 1 1 1 0 1 2 -0 -1 -1 -2 -3 -3 -4 -4 -4 -5 -5 -5 -5 -5 -5 -5 -4 -4
7 7 8 7 7 7 6 6 5 4 3 3 3 2 2 2 2 2 1 1 1 0 -1 -1 -0 -1 -2 -2 -2 -3 -3 -4 -4 -5 -5 -5 -5 -5 -5 -5 -5 -5 -4
7 7 7 6 6 6 5 5 4 4 4 3 2 2 2 2 1 1 1 1 -0 -1 -1 -1 -1 -1 -2 -2 -3 -3 -3 -3 -4 -4 -4 -5 -6 -5 -5 -5 -5 -5 -5
7 6 7 6 5 5 5 4 4 3 2 2 2 2 1 1 1 0 -0 -0 -1 -1 -1 -1 -1 -1 -1 -2 -2 -3 -4 -4 -4 -4 -4 -4 -4 -4 -4 -4 -4 -5 -5
6 6 6 5 4 4 4 3 3 2 2 2 2 2 1 1 -0 -0 -1 -2 -2 -1 -1 -1 -1 -1 -2 -2 -4 -4 -5 -4 -4 -4 -5 -4 -4 -4 -4 -4 -4 -5 -5
6 5 4 4 4 4 3 3 3 2 2 2 2 1 1 -0 -0 -1 -1 -1 -2 -2 -2 -2 -3 -2 -3 -4 -4 -5 -5 -4 -4 -4 -5 -5 -5 -4 -4 -4 -4 -5 -4
4 4 4 4 3 3 3 3 2 2 1 1 0 0 -0 -0 -1 -2 -2 -2 -2 -2 -3 -4 -3 -3 -4 -5 -5 -5 -5 -6 -6 -5 -5 -5 -5 -5 -4 -4 -4 -3 -3
4 4 3 3 3 3 3 2 2 1 0 0 -0 -1 -1 -1 -1 -2 -3 -3 -3 -3 -3 -4 -4 -5 -5 -5 -6 -6 -6 -5 -5 -5 -5 -6 -5 -5 -5 -4 -3 -4 -4
4 3 3 3 3 3 3 3 2 -0 -0 -0 -1 -2 -2 -1 -2 -2 -3 -4 -4 -3 -3 -4 -5 -5 -5 -5 -6 -6 -6 -6 -5 -5 -5 -6 -6 -5 -5 -4 -4 -4 -4

GFSMA_925_temp_072.txt.gz
Temp
16 16 15 14 15 14 15 15 14 14 13 13 13 13 13 13 13 14 13 11 12 12 12 11 11 10 10 10 10 10 10 9 9 9 8 8 8 8 8 8 8 8 8
15 14 14 15 15 15 15 15 15 14 14 14 13 12 12 13 12 12 13 11 11 11 11 10 11 10 10 9 9 9 9 9 9 9 8 8 8 8 7 7 7 7 7
14 13 15 15 15 14 13 14 14 14 14 14 13 12 13 12 12 12 12 12 12 10 10 10 9 9 10 10 9 9 9 9 8 8 8 8 8 7 7 7 7 7 7
14 15 15 15 14 14 14 14 14 14 14 14 13 13 13 12 12 11 11 12 11 12 11 9 9 9 9 8 9 9 9 10 8 8 8 8 7 7 7 7 7 7 7
14 15 15 14 13 14 14 14 14 14 14 14 14 13 12 12 11 11 11 11 10 10 11 10 9 9 8 8 7 8 9 9 9 8 8 8 7 7 7 7 7 7 7
14 14 14 14 14 14 13 13 13 13 13 13 13 13 12 11 11 11 11 10 10 9 10 9 9 10 8 7 7 7 7 8 8 8 8 7 7 6 6 6 6 7 7
14 14 14 13 14 14 13 13 13 12 13 12 12 14 13 11 10 10 10 10 10 10 9 9 8 9 9 8 7 6 6 6 6 7 7 7 7 7 7 6 6 6 7
13 14 14 13 13 13 12 12 12 13 12 11 12 13 15 14 11 10 10 10 10 9 9 9 8 7 7 7 7 6 5 5 5 5 6 6 6 6 7 7 6 6 5
13 14 13 13 13 13 13 12 12 12 13 11 10 12 14 15 13 12 10 10 9 9 9 8 8 7 6 6 6 6 4 4 4 4 4 5 5 5 6 6 7 6 6
13 13 13 13 13 13 12 12 11 11 11 12 11 10 10 10 12 12 12 11 9 9 8 8 8 7 6 6 6 4 4 3 3 3 3 3 4 4 5 5 6 6 5
13 13 12 12 12 12 11 10 10 10 11 11 11 11 10 10 10 10 11 11 10 10 9 8 7 7 6 5 5 4 3 2 2 2 2 2 2 3 4 4 4 5 5
13 12 12 12 11 10 10 9 9 8 9 9 10 9 9 10 10 10 10 10 9 9 9 8 7 7 6 5 4 3 1 1 1 1 1 1 1 1 2 2 3 3 4
13 12 12 11 10 10 10 9 7 8 9 9 9 9 8 8 8 8 8 8 8 8 8 8 6 6 5 4 4 2 1 1 0 0 0 -1 -1 -1 -0 0 1 2 2
13 12 11 11 10 10 9 7 7 8 8 8 8 7 8 8 7 7 7 7 7 8 8 8 7 6 5 4 4 2 1 1 -0 -1 -1 -2 -2 -2 -2 -1 -1 -0 0
13 11 10 8 10 9 8 7 8 8 8 7 7 7 7 7 7 6 6 6 6 7 8 8 7 6 4 4 3 2 1 1 -0 -1 -2 -2 -3 -3 -3 -2 -2 -2 -1
11 9 8 9 9 8 7 7 8 8 7 7 7 7 6 6 6 6 6 5 5 6 7 6 6 6 4 3 3 2 1 -0 -1 -1 -2 -3 -3 -4 -3 -3 -3 -2 -2
9 8 10 9 8 7 8 8 8 8 7 7 7 6 6 6 6 6 5 5 5 5 6 6 5 5 3 2 2 2 1 0 0 -1 -2 -3 -4 -4 -4 -4 -4 -4 -3
8 9 8 7 8 9 8 8 8 8 7 7 7 6 6 6 5 5 5 5 5 5 5 4 4 4 3 2 1 1 1 0 -0 -0 -2 -3 -4 -5 -5 -5 -5 -4 -4
7 7 7 8 8 8 8 8 7 7 7 6 6 6 6 6 5 5 5 5 5 5 4 4 3 3 2 1 1 1 1 0 -0 -1 -2 -2 -3 -4 -4 -5 -5 -5 -4
6 7 6 7 7 8 7 7 7 6 6 6 6 5 5 5 5 5 4 4 4 4 3 2 1 1 1 2 1 1 1 1 0 -0 -1 -1 -2 -3 -3 -4 -4 -4 -4
7 6 7 8 7 7 7 6 6 6 5 5 5 5 5 4 4 3 3 3 3 3 1 0 0 1 2 2 2 2 1 -0 -0 -1 -1 -1 -1 -1 -1 -1 -2 -3 -4
5 7 7 7 7 6 6 4 4 4 5 5 5 5 5 4 3 2 1 1 0 0 0 1 1 1 2 2 1 1 0 -1 -0 -1 -1 -1 -2 -1 -1 -1 -2 -3 -4
7 7 6 6 6 6 5 4 4 3 4 4 4 4 4 4 3 2 2 1 -0 -1 -2 -1 0 0 0 -1 -1 -1 -1 -1 -1 -1 -2 -2 -2 -2 -2 -1 -2 -3 -4
6 6 6 6 5 5 4 4 3 2 3 4 4 4 3 3 3 3 2 2 1 1 -1 -1 -1 -0 -0 -1 -1 -2 -2 -2 -3 -3 -2 -2 -2 -2 -2 -2 -2 -3 -3
6 6 6 5 5 5 4 3 2 2 3 3 3 3 3 3 3 2 1 -0 -0 -0 -1 -2 -1 -2 -2 -3 -3 -4 -3 -4 -3 -2 -2 -2 -2 -2 -2 -2 -1 -2 -3
5 5 5 4 4 3 3 2 0 0 0 1 1 1 1 1 0 -0 -1 -1 -1 -1 -1 -1 -2 -3 -4 -4 -4 -5 -4 -4 -3 -3 -2 -3 -3 -3 -2 -3 -2 -3 -2

GFSMA_925_temp_075.txt.gz
Temp
18 18 18 17 17 17 16 16 16 16 15 15 15 15 15 15 15 16 13 13 12 12 12 11 11 11 10 10 10 10 10 9 9 9 9 8 8 8 8 8 7 7 8
16 16 16 17 16 17 17 17 16 16 16 15 14 14 14 15 14 14 15 12 12 11 11 10 11 11 10 10 9 9 9 9 9 9 9 8 8 8 8 7 7 7 7
15 15 16 16 17 17 16 16 16 16 16 16 15 15 15 14 14 13 14 14 12 12 11 11 10 9 9 10 10 10 10 9 9 9 8 8 8 8 7 7 7 7 7
15 16 16 17 16 15 16 16 16 16 16 16 15 15 15 14 13 13 13 13 13 13 11 11 10 9 9 9 8 9 9 9 10 9 8 8 8 8 7 7 7 7 7
15 17 17 16 15 16 16 16 16 16 16 16 16 15 14 14 14 14 13 12 12 11 12 10 10 10 9 9 9 8 8 8 9 9 9 8 8 7 7 7 7 7 7
16 17 17 15 16 16 16 16 15 15 16 15 16 15 14 14 13 13 13 12 12 11 11 11 10 10 9 9 8 8 7 7 8 8 8 8 7 7 7 7 7 6 7
16 16 16 15 16 16 15 14 14 14 15 14 14 16 15 13 12 12 13 12 12 12 11 10 10 10 10 9 8 7 7 6 6 6 7 7 7 7 7 7 7 6 7
14 16 16 15 16 16 14 14 14 15 15 13 14 14 16 16 13 13 12 12 12 11 11 11 10 9 9 9 8 7 6 6 5 5 5 5 6 6 6 6 6 7 6
15 16 16 15 15 15 14 14 14 14 15 14 12 13 15 16 14 14 13 12 11 11 10 10 10 9 9 8 8 7 6 5 4 4 4 4 4 5 5 5 6 6 7
13 15 15 15 14 15 15 14 14 13 13 14 13 13 12 12 13 13 13 13 12 11 11 10 10 9 9 8 7 6 6 5 4 4 3 3 3 3 4 4 5 5 5
13 15 15 14 14 14 14 14 12 11 12 11 11 13 13 12 12 12 12 12 12 12 12 11 10 9 9 8 7 6 4 3 3 3 2 2 2 2 2 3 3 4 5
13 14 14 14 14 13 13 11 11 11 10 10 11 11 11 12 12 12 12 11 11 11 11 10 10 9 8 8 7 6 4 3 2 2 1 1 1 1 1 2 2 3 3
14 14 14 14 13 12 11 11 11 10 9 10 10 10 11 11 10 10 10 10 10 10 10 9 9 9 8 7 7 5 4 2 2 1 1 1 -1 -1 -0 -0 0 1 1
14 14 13 13 12 11 10 10 10 9 9 9 9 9 9 10 10 9 9 9 9 9 9 9 9 9 9 7 6 5 4 3 2 1 -0 -0 -1 -2 -2 -1 -1 -1 -0
14 14 13 13 11 9 9 9 8 8 9 9 9 9 8 9 9 9 8 8 8 8 8 8 9 8 8 7 6 5 4 3 2 1 1 -0 -1 -2 -2 -2 -2 -2 -2
14 14 12 11 8 9 8 8 7 9 10 9 9 9 8 8 8 8 8 8 8 8 8 7 8 8 7 7 6 4 4 3 2 2 1 0 -1 -2 -3 -3 -3 -3 -3
13 11 10 9 8 9 8 8 9 9 10 9 9 8 8 8 8 8 8 8 7 7 8 7 7 7 6 6 6 4 4 3 3 2 1 0 -1 -2 -3 -4 -4 -4 -4
10 9 8 7 7 7 8 8 9 9 9 9 9 8 8 8 8 7 7 7 7 7 7 7 7 7 6 5 5 3 3 3 2 2 1 0 -0 -1 -2 -3 -4 -4 -4
8 7 7 7 6 7 8 9 9 9 9 9 8 8 8 8 8 7 7 7 7 7 7 6 6 6 5 5 4 3 2 2 2 2 2 1 0 -1 -2 -2 -2 -2 -3
7 7 7 6 6 8 9 9 9 9 8 8 8 7 7 7 7 7 7 7 6 6 6 6 6 5 4 3 3 2 2 2 2 2 2 1 1 0 -1 -1 -1 -2 -2
7 6 7 7 7 9 9 9 8 8 7 7 7 7 7 7 6 6 5 5 5 4 4 5 5 3 3 2 2 2 1 2 1 2 1 1 1 1 0 0 0 -0 -2
7 7 7 9 9 8 8 7 6 5 6 6 6 6 6 6 6 6 5 4 3 3 2 2 2 2 2 2 2 1 1 1 2 1 1 1 0 -0 -0 -0 0 -1 -1
7 8 8 8 8 7 7 6 5 4 4 5 5 5 5 6 5 5 5 5 4 3 2 0 0 1 1 1 1 1 1 0 1 1 0 -0 -1 -1 -0 -0 -1 -1 -2
8 8 8 7 7 7 6 5 4 3 3 4 4 5 5 5 5 4 4 4 3 3 2 0 -0 -0 0 1 0 -0 -1 -1 -1 -1 -1 -1 -1 -1 -1 -1 -1 -1 -2
8 8 7 7 7 6 5 4 3 3 3 3 3 3 3 3 3 2 1 2 2 1 1 1 0 -0 -1 -1 -1 -2 -2 -2 -2 -2 -2 -1 -1 -1 -1 -1 -1 -2 -2
7 7 7 6 5 4 4 2 1 0 0 0 1 1 1 0 0 0 -0 -1 -1 -1 -1 -1 -0 -1 -1 -2 -2 -2 -3 -3 -2 -2 -2 -1 -2 -1 -2 -2 -2 -2 -2

GFSMA_925_temp_078.txt.gz
Temp
17 17 16 16 17 17 17 16 16 15 15 15 15 15 15 15 15 14 15 14 14 12 12 12 11 11 10 10 10 10 9 9 9 9 9 9 8 8 8 8 7 7 7
17 17 17 17 17 17 16 16 16 16 16 15 15 14 15 15 14 14 14 13 13 13 12 11 11 11 10 10 9 9 9 10 9 9 9 8 8 8 8 7 7 7 7
17 17 17 17 17 16 17 17 16 16 16 16 15 15 15 14 14 14 14 13 13 12 12 12 11 10 10 9 9 9 9 10 9 9 9 8 8 8 8 8 7 7 7
16 16 16 16 17 17 17 16 16 16 16 16 16 16 15 15 14 13 13 13 12 12 11 11 11 10 10 10 10 9 9 9 9 9 9 9 8 8 8 7 7 7 7
16 16 16 17 17 16 16 16 16 16 16 16 16 15 15 14 14 14 13 13 12 12 11 11 10 10 10 10 9 9 8 8 8 8 9 9 8 8 8 7 7 7 7
15 16 17 17 16 16 16 16 16 16 16 16 16 16 15 14 14 14 13 13 13 12 11 11 10 10 9 9 9 8 8 7 7 7 7 7 7 7 7 7 7 7 7
16 16 17 16 16 16 16 16 15 15 15 14 14 15 15 14 14 13 13 12 12 12 12 11 10 10 9 9 8 8 8 7 7 6 6 6 6 6 6 6 6 6 7
16 16 16 15 15 16 15 15 14 15 15 14 14 14 11 13 13 13 13 12 12 12 11 11 11 10 10 9 8 8 7 6 6 5 5 5 5 5 5 5 6 6 6
16 16 16 16 16 16 15 14 14 15 15 14 13 13 11 11 12 14 13 13 12 12 11 11 10 10 10 9 8 8 7 6 5 5 4 4 4 4 4 4 5 5 5
15 15 16 16 15 15 14 14 14 14 14 13 12 12 12 12 9 9 13 12 12 12 11 11 10 10 10 9 8 8 7 6 5 4 4 3 3 3 3 3 4 4 4
14 15 15 15 15 15 15 14 14 13 13 13 12 12 13 12 12 10 8 11 12 12 12 11 11 10 10 9 8 8 7 6 5 5 4 2 2 2 2 2 3 3 3
13 13 15 15 15 14 14 14 13 12 12 11 11 11 11 11 11 11 8 10 10 10 11 10 10 10 9 9 8 8 7 6 5 4 4 3 1 1 1 1 1 2 2
12 14 14 15 14 14 13 13 12 12 11 10 10 10 11 11 11 10 10 9 9 9 9 9 9 9 9 9 8 8 7 6 4 4 3 2 2 0 0 -0 -0 0 1
13 14 14 14 14 13 12 11 11 10 9 9 10 10 9 9 9 10 9 9 5 8 8 8 8 9 9 8 8 7 6 5 4 3 3 2 1 1 -0 -1 -1 -1 -1
13 13 14 14 13 12 11 11 10 9 9 8 8 9 9 9 9 9 9 8 8 4 4 7 8 8 8 8 8 7 6 5 4 3 3 2 2 1 -0 -1 -2 -2 -2
13 14 13 13 12 11 10 9 8 8 7 8 9 9 9 9 8 8 8 8 8 8 5 7 7 7 7 7 7 7 6 5 4 3 3 3 2 1 0 -0 -2 -2 -3
13 12 11 10 9 9 8 9 8 8 9 9 9 9 9 9 8 8 8 8 8 8 6 6 7 7 7 7 7 6 5 4 4 3 2 3 2 1 1 0 -1 -2 -3
12 11 11 9 8 8 8 7 7 7 7 9 9 9 9 8 8 8 8 7 7 7 7 6 6 6 6 6 6 5 5 4 3 2 2 2 2 2 1 0 -0 -1 -2
11 10 10 9 8 7 7 6 7 7 8 9 9 9 8 8 8 8 8 7 7 7 7 7 6 6 6 6 5 4 3 3 3 2 2 2 2 1 1 0 0 -0 -1
10 10 9 8 8 8 7 7 8 9 9 9 8 8 8 7 7 7 7 7 6 6 6 5 4 4 4 4 3 3 2 2 2 2 1 2 1 1 1 1 0 -1 -0
9 9 7 7 8 7 8 8 9 8 8 7 7 7 7 7 7 7 6 6 6 5 4 4 3 3 3 2 2 2 1 0 1 1 1 1 1 1 1 0 -0 -0 -0
7 7 7 7 8 8 9 8 8 7 7 6 5 5 6 6 6 6 6 5 5 5 4 3 3 1 1 1 1 1 -0 -1 -1 1 1 1 0 -0 -0 -1 -0 -0 -1
7 7 7 8 8 8 8 7 7 6 5 4 4 4 4 5 5 5 5 4 3 3 4 3 2 1 0 0 1 1 0 -0 -0 -0 -0 -1 -1 -1 -1 -1 -1 -1 -1
7 8 8 8 8 7 7 6 5 4 4 3 3 3 3 3 3 2 2 1 1 0 1 2 1 1 0 -0 -0 0 -0 -1 -1 -1 -1 -1 -1 -2 -2 -1 -1 -1 -1
8 8 8 8 7 6 4 4 3 2 2 2 2 1 1 1 1 0 0 -0 -1 -1 -1 -1 -0 -0 -0 -1 -0 -0 -1 -2 -2 -2 -2 -2 -2 -2 -2 -1 -2 -2 -2
8 8 7 6 5 4 3 2 2 1 -0 -1 -1 -1 -1 -1 -1 -1 -1 -2 -2 -2 -2 -2 -2 -1 -1 -2 -1 -1 -1 -2 -3 -3 -2 -2 -2 -2 -3 -2 -2 -3 -3

GFSMA_925_temp_084.txt.gz
Temp
17 17 17 17 17 17 17 16 16 16 16 16 16 15 15 15 14 14 14 13 12 12 12 11 11 10 10 10 9 9 9 9 9 9 9 8 8 8 8 7 7 7 7
17 17 17 17 17 17 16 16 16 16 16 16 15 15 15 14 14 14 13 13 12 12 12 11 11 11 10 9 9 9 9 9 9 9 9 8 8 8 8 8 7 7 7
17 17 17 17 17 16 16 16 16 16 16 16 15 15 14 14 14 13 13 13 13 12 12 12 11 11 10 10 9 9 9 9 9 9 9 9 8 8 8 8 8 7 7
17 17 17 17 16 16 16 16 16 16 16 15 15 15 14 14 14 13 13 13 13 12 12 12 11 11 11 10 10 9 9 8 8 8 8 8 8 7 7 7 7 7 7
16 16 16 17 17 16 16 16 16 16 15 15 15 15 14 14 14 14 14 13 13 12 12 12 11 11 10 10 10 9 8 8 8 8 7 7 7 6 6 6 6 6 7
16 16 16 16 16 16 16 16 16 16 16 15 15 15 14 14 14 14 13 13 13 12 12 11 11 11 10 10 10 9 8 8 8 7 7 6 6 6 5 5 5 6 6
16 16 16 16 16 16 16 16 16 16 15 15 14 14 14 14 14 13 13 13 12 12 12 11 11 10 10 10 9 9 8 8 8 7 7 7 6 5 5 5 5 5 5
16 16 16 16 16 16 16 16 16 15 15 14 14 12 10 12 12 13 13 13 12 12 11 11 11 11 10 10 9 9 9 8 7 7 7 6 6 5 4 4 4 4 5
17 16 16 16 15 16 16 16 16 15 15 14 14 14 8 9 10 12 12 12 12 12 12 11 11 11 10 10 9 9 8 8 8 7 6 7 6 5 4 4 4 4 4
17 16 16 16 15 15 16 16 16 15 15 14 13 14 13 13 8 9 11 12 12 12 11 11 11 10 10 9 9 9 9 8 8 8 6 5 5 5 4 4 3 3 3
16 16 16 15 15 15 16 15 15 15 15 14 13 12 12 11 11 9 7 10 11 11 11 11 10 10 10 9 9 9 9 8 8 8 7 6 5 4 4 3 3 3 3
16 16 16 15 15 15 15 15 15 15 14 14 14 13 12 11 10 9 6 7 8 10 10 10 9 9 9 9 8 8 8 7 7 7 7 6 5 4 3 3 3 2 2
15 16 15 15 15 15 15 15 15 14 13 13 12 11 11 11 11 10 9 7 6 8 9 9 9 9 8 8 8 8 7 7 7 7 6 5 5 4 3 3 2 2 2
16 16 16 15 15 15 15 14 14 13 11 10 9 9 8 8 10 10 9 8 4 5 7 8 8 8 8 8 8 7 7 7 7 7 6 6 5 4 3 2 2 2 1
16 16 15 14 14 14 14 14 13 11 10 9 9 8 7 9 8 8 8 8 7 3 2 7 7 8 8 7 7 7 7 7 7 7 6 5 5 3 3 2 1 1 1
15 14 14 14 14 13 13 13 11 10 10 10 9 9 8 8 8 7 8 8 8 7 2 7 7 7 7 7 7 7 7 7 6 6 5 5 3 2 1 1 1 1 0
14 12 13 12 12 12 12 12 11 10 10 9 9 7 8 8 7 8 8 8 8 7 4 6 6 7 6 7 7 6 6 6 6 5 4 3 2 2 2 2 2 1 0
12 13 13 12 12 12 12 11 11 10 9 8 8 7 7 7 7 8 8 8 7 7 6 4 5 6 6 6 6 5 6 5 5 4 4 3 3 3 2 2 1 2 1
13 12 13 12 12 12 11 11 10 9 8 8 8 7 8 8 8 8 7 7 7 7 6 5 4 5 5 5 4 4 4 4 4 4 3 2 2 2 2 1 1 1 1
12 12 12 12 11 9 9 8 8 8 8 7 7 7 7 8 7 7 6 6 5 5 5 4 3 3 3 3 2 3 3 3 3 2 2 1 1 1 1 1 0 0 0
12 13 10 9 8 8 7 8 8 7 7 7 6 7 7 6 5 5 5 5 4 4 3 2 1 1 0 1 1 1 1 2 2 1 1 1 1 1 0 0 -0 0 -0
9 9 8 8 8 7 8 7 7 7 6 6 6 6 6 5 5 4 3 2 2 2 1 -0 -1 -1 -1 -0 -0 -0 -1 -2 -1 -0 -0 0 0 -0 0 0 -0 -1 -1
8 8 8 8 7 7 6 6 6 6 6 6 5 5 4 3 3 2 2 2 1 0 -0 -1 -2 -2 -2 -2 -2 -2 -2 -2 -2 -1 -1 -1 -0 -0 -0 -0 -1 -1 -2
7 7 7 7 7 5 5 6 5 5 5 4 3 3 2 2 1 0 -0 -0 -1 -1 -1 -1 -2 -2 -2 -2 -3 -2 -3 -2 -2 -2 -2 -2 -1 -1 -1 -1 -2 -2 -2
7 7 7 6 6 5 4 5 5 4 4 3 2 1 1 0 -0 -1 -2 -3 -3 -2 -2 -2 -3 -3 -2 -2 -3 -3 -3 -3 -3 -3 -2 -3 -2 -2 -2 -2 -2 -2 -2
6 6 6 6 5 3 4 4 3 3 2 1 0 -0 -1 -2 -2 -3 -4 -4 -4 -4 -4 -4 -4 -3 -3 -3 -4 -4 -4 -4 -3 -3 -3 -4 -3 -3 -3 -2 -2 -3 -3

GFSMA_925_temp_087.txt.gz
Temp
17 17 17 17 17 17 17 17 17 16 16 16 16 16 15 14 14 14 13 12 12 12 12 11 11 10 10 10 9 9 10 9 9 9 8 8 8 8 8 7 7 8 7
17 17 17 17 17 17 16 17 16 16 16 16 15 15 15 14 14 14 13 12 12 12 11 11 11 10 10 9 9 9 9 9 9 9 9 8 8 8 8 7 8 7 7
17 18 17 16 17 16 16 16 16 16 16 15 15 15 15 14 14 14 13 13 12 12 12 11 11 10 10 10 9 9 9 9 8 9 8 8 8 8 8 7 7 7 7
17 18 17 17 16 16 16 16 16 15 15 15 15 15 14 14 14 13 13 13 13 13 12 12 12 11 11 10 9 9 9 8 8 8 8 7 7 7 6 6 6 6 6
17 17 17 16 16 16 16 16 16 16 15 15 15 15 14 14 14 13 13 13 13 12 12 12 12 11 11 10 10 9 9 8 8 8 7 7 6 6 6 6 6 6 6
16 16 16 16 16 16 16 16 16 15 15 15 15 14 14 14 13 13 13 12 12 12 12 12 11 11 11 10 9 9 9 8 8 8 7 7 7 6 5 5 5 5 5
16 16 16 16 16 16 16 16 15 15 15 15 14 13 13 13 13 13 13 12 12 12 12 12 11 11 11 10 10 9 9 8 8 8 7 7 7 7 6 6 5 5 5
16 16 16 16 16 16 16 15 15 15 15 14 14 12 9 11 12 12 12 12 12 12 12 12 11 11 11 10 10 10 9 9 9 8 7 6 6 7 6 5 5 4 4
16 16 16 16 16 15 16 16 15 16 15 14 14 14 8 9 9 11 11 12 12 12 12 11 11 11 10 10 10 9 9 9 9 8 8 7 6 5 5 5 4 4 4
16 16 16 15 15 15 15 15 16 15 15 15 13 14 13 13 8 9 11 11 11 10 11 11 10 10 10 10 9 9 9 8 8 8 8 7 6 5 5 4 4 4 4
16 16 15 15 15 15 15 15 15 15 15 15 14 13 11 11 11 8 7 9 11 11 11 11 11 10 9 9 9 9 9 8 8 8 7 7 6 6 5 4 4 4 4
15 16 16 16 16 16 15 15 15 15 15 15 15 14 12 11 9 9 7 7 9 10 10 10 10 10 10 9 9 8 8 8 7 7 7 6 6 6 5 5 4 4 4
16 17 17 16 16 15 15 15 14 14 14 14 14 12 12 11 10 9 8 7 7 8 9 9 9 9 9 8 8 8 7 7 7 7 7 6 6 5 5 5 4 4 4
17 17 17 16 16 15 15 14 14 14 13 12 12 11 10 10 10 9 7 8 5 5 6 9 9 9 8 8 7 7 7 7 7 7 7 6 6 6 5 4 3 3 3
15 16 16 16 16 15 14 14 13 13 12 12 11 11 10 10 10 9 8 8 7 5 4 8 8 8 8 8 7 7 7 7 7 6 6 6 6 5 4 3 3 2 1
14 14 15 15 15 14 13 13 12 12 11 11 11 10 10 10 9 8 8 7 7 6 3 7 8 8 7 7 7 7 6 6 6 6 6 6 5 4 3 3 2 2 2
14 14 14 13 13 12 12 12 13 13 11 10 10 10 10 9 8 8 8 7 7 6 3 6 6 7 6 7 6 6 6 6 6 6 5 5 5 4 4 3 3 2 2
13 13 13 13 12 12 13 11 12 11 10 10 10 9 9 8 8 7 8 7 7 7 5 4 5 6 5 5 5 5 5 5 5 4 5 4 4 4 3 3 2 2 2
12 12 13 12 12 12 11 11 11 11 10 9 9 8 8 7 7 7 7 7 7 6 5 4 3 4 4 4 4 4 3 3 3 3 3 3 3 3 2 2 2 2 1
13 14 12 11 12 11 10 9 9 9 8 8 8 8 7 7 7 6 6 6 6 6 5 4 2 2 2 2 2 2 2 2 1 2 2 2 2 2 1 1 1 1 1
14 14 11 10 11 10 9 8 8 8 7 8 7 6 6 6 5 6 6 6 5 4 3 2 1 0 0 0 0 -0 -1 -1 -1 -0 0 0 1 1 1 1 1 0 0
11 11 10 10 10 9 9 8 8 7 7 6 5 5 4 4 5 5 4 4 3 2 1 0 -0 -1 -1 -1 -1 -1 -2 -2 -3 -1 -1 -1 -0 -0 0 0 0 -0 0
11 10 9 9 8 8 7 7 7 7 6 5 5 3 3 3 3 2 2 2 1 1 -0 -1 -2 -2 -2 -2 -2 -2 -3 -3 -3 -3 -2 -3 -2 -2 -1 -0 -0 -0 -1
9 8 7 7 7 7 7 6 6 5 5 4 3 3 3 2 1 1 0 -0 -1 -1 -1 -2 -2 -3 -3 -3 -3 -3 -3 -4 -3 -3 -3 -3 -3 -2 -2 -1 -1 -1 -1
7 6 6 6 6 5 5 5 4 3 3 2 2 1 1 0 -1 -2 -1 -2 -2 -2 -3 -3 -3 -3 -3 -3 -3 -4 -4 -3 -3 -3 -3 -4 -3 -3 -3 -2 -1 -1 -2
6 6 5 5 4 3 2 2 3 2 2 1 -0 -1 -1 -1 -2 -3 -3 -4 -4 -5 -5 -5 -4 -4 -4 -4 -3 -3 -3 -4 -4 -4 -3 -4 -4 -4 -4 -2 -2 -2 -2

GFSMA_925_temp_090.txt.gz
Temp
16 17 17 17 16 16 17 16 16 16 16 16 16 15 14 14 14 13 12 12 12 12 12 11 11 10 10 10 10 10 9 9 9 9 8 8 8 8 8 8 8 8 8
17 18 17 17 16 17 16 17 16 16 16 16 15 15 15 14 14 14 12 12 12 12 11 11 11 10 10 9 9 9 9 9 9 9 8 8 8 8 8 8 7 7 7
17 17 17 17 17 16 16 16 16 16 16 15 15 14 14 14 14 13 13 12 12 11 11 11 11 11 10 10 9 9 9 9 9 8 8 8 7 7 7 7 7 7 7
17 16 16 16 17 16 16 16 16 15 15 15 15 14 14 14 14 13 13 12 12 12 12 12 11 11 10 10 9 9 9 8 8 8 8 7 7 6 6 6 6 6 6
17 16 16 17 16 16 16 16 15 16 15 14 14 14 14 14 14 13 13 13 13 12 12 12 12 11 11 10 10 9 9 8 8 8 7 7 7 6 6 6 6 6 6
16 16 17 16 16 15 15 15 15 15 15 15 14 13 13 13 13 13 13 13 12 12 12 12 11 11 11 11 10 9 9 9 8 8 7 7 7 7 7 7 6 5 5
15 16 16 16 16 15 15 15 15 15 14 14 13 12 12 13 13 13 13 12 12 12 12 12 11 11 11 11 10 9 9 9 8 8 8 7 7 7 7 7 6 6 5
16 16 16 16 16 15 15 15 15 14 14 14 13 12 10 11 12 12 12 12 12 12 11 11 11 11 11 11 10 9 9 9 9 9 8 7 6 6 6 5 5 5 5
16 17 17 16 16 15 15 15 15 15 14 13 14 14 8 9 9 11 12 12 12 12 12 11 11 11 11 10 10 10 9 9 9 9 9 8 7 6 6 5 5 5 4
15 16 16 16 15 15 15 15 15 15 15 14 13 13 12 12 9 9 10 11 11 11 11 11 11 11 10 10 10 10 10 9 9 9 8 8 8 7 6 6 5 5 4
15 15 15 15 15 15 15 15 15 14 14 14 14 13 11 11 11 9 8 9 10 11 11 11 11 11 10 10 10 9 9 9 9 8 8 8 8 7 7 6 5 5 5
15 15 15 15 16 15 15 15 14 14 14 14 14 14 13 12 10 9 8 8 8 9 10 10 11 10 10 9 9 9 9 8 8 8 7 7 7 6 7 6 6 5 5
15 16 16 16 16 15 15 15 15 14 14 13 13 13 13 14 13 12 10 7 7 8 9 9 10 9 9 9 8 8 8 8 7 7 7 7 7 6 6 6 6 6 6
15 16 16 16 16 15 15 15 14 13 13 13 13 13 13 12 12 11 10 8 5 6 6 9 9 9 9 9 8 8 7 7 7 7 7 6 6 6 6 6 5 5 5
14 15 15 15 15 15 15 14 14 14 13 13 13 12 12 11 11 10 11 10 8 5 5 7 8 9 8 8 8 7 7 7 7 6 6 6 6 6 6 5 5 4 4
14 14 15 15 14 14 14 13 13 13 11 11 12 11 11 11 11 10 10 9 8 8 5 8 8 8 8 7 7 7 7 6 6 6 6 6 6 6 5 5 5 4 3
14 15 15 15 14 14 14 12 12 12 11 10 10 10 10 10 10 9 8 8 7 7 5 6 7 7 7 7 7 6 6 6 6 5 5 5 5 5 5 5 4 4 4
14 14 13 13 12 12 12 12 12 11 13 9 9 9 9 9 9 8 8 7 7 7 6 4 6 6 6 6 6 6 5 5 5 4 4 4 4 4 4 4 4 3 3
13 13 12 12 12 12 12 13 12 11 11 9 8 8 9 8 7 7 7 7 7 6 5 4 4 4 5 5 4 4 3 3 3 3 3 3 3 3 3 3 3 2 2
13 13 12 14 12 11 12 12 11 10 9 8 8 8 7 7 7 7 6 6 6 5 4 3 2 3 3 3 2 1 2 2 1 1 2 1 1 1 1 1 1 1 1
12 12 12 12 11 11 10 10 10 9 9 8 7 7 6 6 6 6 6 6 5 4 3 2 1 0 0 0 0 -0 -1 -1 -1 -0 -0 -0 0 -0 0 0 0 0 0
12 12 12 12 11 10 9 10 10 9 8 7 6 6 6 5 5 5 4 3 3 3 3 1 0 -1 -1 -1 -1 -2 -2 -3 -3 -2 -2 -3 -2 -2 -1 -1 -1 -0 -0
12 12 12 11 11 10 10 9 8 7 6 5 5 4 2 2 3 2 2 2 2 1 1 -0 -1 -1 -2 -2 -3 -3 -3 -4 -4 -4 -4 -3 -3 -3 -3 -2 -2 -1 -1
11 10 10 9 8 8 8 7 6 6 5 4 3 3 2 0 1 1 1 1 0 -0 -1 -2 -2 -3 -3 -3 -4 -4 -4 -4 -4 -4 -3 -3 -3 -3 -3 -3 -2 -2 -2
8 7 6 6 6 5 6 6 6 4 3 1 0 0 -0 -1 -2 -1 -2 -2 -2 -2 -3 -3 -4 -4 -4 -4 -4 -4 -4 -3 -3 -3 -3 -4 -3 -3 -4 -3 -2 -2 -2
6 5 4 4 3 2 3 3 3 1 -1 -2 -2 -2 -3 -3 -4 -3 -3 -3 -4 -5 -4 -5 -4 -4 -4 -5 -6 -5 -5 -4 -4 -3 -3 -4 -4 -4 -4 -2 -2 -2 -2

GFSMA_925_temp_093.txt.gz
Temp
14 15 16 16 16 17 17 16 16 15 16 15 15 14 14 13 12 13 13 12 12 12 12 11 11 10 10 10 10 10 9 9 9 9 9 8 8 8 8 8 8 8 8
14 15 16 17 17 17 16 16 16 16 15 15 15 15 14 14 12 12 13 12 12 12 11 11 11 10 10 10 10 10 9 9 9 9 8 8 8 8 8 7 7 7 7
15 15 16 16 17 17 16 16 16 15 15 15 15 14 14 14 13 12 12 12 12 12 11 11 11 10 10 10 9 9 9 9 9 9 8 8 7 7 7 7 7 7 7
16 16 15 16 16 16 16 16 16 14 15 14 14 14 13 14 13 13 12 12 12 12 11 11 11 11 10 10 10 9 9 9 9 8 8 7 7 7 7 7 6 6 6
17 17 16 15 16 15 16 16 15 15 14 13 14 14 13 13 13 13 12 12 12 12 12 11 11 11 11 10 10 10 9 9 8 8 8 8 8 7 7 7 7 6 6
17 16 15 15 15 14 15 16 15 15 14 14 13 12 13 13 13 13 12 12 12 12 12 11 11 11 11 10 10 10 9 9 9 8 8 7 7 7 7 7 7 7 6
17 16 16 16 15 14 15 16 15 14 13 13 12 11 12 12 12 13 12 12 12 12 12 11 11 11 10 11 10 10 10 9 9 9 8 7 7 7 7 7 7 6 6
17 16 16 16 15 15 15 15 15 13 13 13 13 13 14 13 12 12 12 12 12 11 12 12 12 11 11 10 10 10 10 10 9 9 9 8 7 7 6 6 6 5 5
17 17 15 16 16 16 15 15 15 14 13 13 14 14 13 15 13 10 11 11 12 11 11 11 12 11 11 10 10 10 10 9 9 10 10 9 8 7 7 6 6 5 5
16 16 16 16 17 16 15 15 15 14 13 13 12 14 13 13 15 15 10 10 9 10 11 10 10 11 11 11 11 10 10 10 9 9 9 9 9 8 7 7 6 6 6
16 16 15 15 15 16 16 15 14 14 14 13 13 11 10 10 11 14 16 12 9 11 11 10 11 11 11 10 10 10 10 10 9 9 9 8 8 8 8 8 7 7 6
16 15 15 16 16 16 15 14 14 14 14 13 12 13 13 13 11 10 11 9 10 11 10 11 11 11 10 10 10 10 10 9 9 9 9 9 8 7 7 7 7 7 7
14 14 14 14 15 15 15 15 14 14 13 12 12 12 13 12 12 11 12 10 9 10 9 10 11 10 10 10 10 9 9 9 8 8 8 8 8 7 7 6 6 7 7
14 14 14 15 15 15 15 15 15 15 14 14 13 12 11 10 12 13 12 10 6 7 7 9 10 9 10 10 9 8 8 8 8 7 7 7 7 7 6 6 6 6 6
13 14 15 15 15 15 14 14 14 14 14 13 12 12 11 10 10 11 12 11 10 9 7 8 9 10 9 9 8 8 7 7 7 7 7 7 6 6 6 6 6 6 6
12 13 14 14 13 14 14 14 14 13 12 12 11 10 10 10 9 9 9 11 9 10 10 9 9 9 9 9 8 7 7 7 7 7 6 6 6 6 6 6 6 5 5
12 12 13 13 14 14 14 14 13 12 11 11 10 10 11 9 8 8 8 10 8 8 10 9 9 7 8 8 7 7 7 6 6 6 6 6 5 5 5 5 5 5 4
12 13 13 12 12 12 13 13 12 11 11 11 11 10 10 9 8 7 7 8 7 7 7 8 6 7 7 7 7 6 5 5 5 5 5 5 5 4 4 4 4 4 4
13 13 12 12 13 13 14 13 12 11 10 10 10 10 11 10 8 7 7 7 6 6 6 5 5 5 6 6 5 5 5 4 4 4 4 3 3 3 3 3 3 2 2
12 12 12 12 12 12 12 12 11 11 10 10 10 11 10 9 8 7 7 6 5 5 4 4 4 3 3 2 2 3 3 2 2 1 2 2 2 2 2 2 1 1 1
12 12 12 12 12 12 12 12 11 10 10 10 9 9 9 8 8 7 6 5 5 4 3 2 1 1 2 1 1 2 2 2 1 0 0 -0 -0 -0 -0 0 1 1 0
12 12 12 12 12 12 12 12 11 10 10 9 8 7 7 6 6 6 5 5 5 4 2 0 -0 -0 -1 -1 0 0 0 0 1 -1 -1 -1 -1 -1 -1 -1 -1 -1 -1
12 12 12 12 11 11 10 10 10 9 8 7 6 5 5 4 4 4 2 1 0 0 0 -1 -1 -2 -2 -2 -1 -1 -1 -1 -1 -0 -2 -1 -1 -1 -1 -1 -2 -1 -1
11 10 9 9 9 8 8 8 8 7 5 4 3 2 2 1 -0 0 -0 -1 -2 -2 -2 -2 -3 -3 -3 -3 -3 -3 -2 -3 -2 -2 -2 -2 -1 -1 -1 -1 -2 -2 -1
8 7 6 6 5 3 4 5 6 3 1 -1 -1 -1 -2 -2 -3 -2 -2 -3 -4 -4 -4 -4 -4 -4 -4 -4 -4 -4 -3 -3 -2 -1 -1 -2 -1 -1 -1 -1 -2 -2 -1
4 4 2 1 1 0 1 2 3 0 -1 -2 -3 -3 -4 -4 -5 -5 -5 -4 -4 -4 -5 -5 -6 -5 -4 -6 -5 -6 -5 -5 -3 -2 -1 -2 -1 -1 -2 -1 -1 -2 -2

GFSMA_925_temp_096.txt.gz
Temp
17 17 18 18 18 18 17 17 17 16 16 16 16 16 16 16 16 16 14 12 12 12 12 12 11 11 10 10 10 10 10 10 9 9 9 8 8 8 8 8 8 8 8
16 17 17 18 18 18 18 17 17 16 16 16 15 15 16 16 16 16 15 13 12 12 12 12 11 11 11 10 10 10 10 10 9 9 9 8 8 8 8 7 7 7 7
15 16 17 18 17 17 17 17 16 16 16 16 16 15 15 15 15 15 15 14 13 12 12 11 11 11 10 10 10 10 10 10 9 9 9 8 8 8 7 7 7 7 7
15 16 17 17 17 17 16 16 16 16 16 16 16 16 16 15 15 15 15 15 14 13 12 11 11 11 10 10 10 10 9 9 9 9 8 8 8 7 7 7 7 7 7
16 17 17 17 16 16 16 16 16 16 16 16 16 16 16 15 14 15 15 14 14 14 13 12 11 11 10 10 10 10 10 9 9 9 8 8 8 8 8 8 8 7 7
14 16 16 15 16 16 15 16 16 16 16 17 17 16 15 15 14 14 14 13 13 13 13 13 11 11 11 10 10 10 10 9 9 9 8 8 8 8 8 8 7 7 6
14 15 15 15 16 16 16 15 15 15 16 15 16 15 14 13 12 13 13 13 13 13 13 13 13 13 11 11 10 10 10 10 9 9 8 8 8 7 7 7 6 6 6
14 14 15 15 16 16 15 14 15 15 14 13 15 16 16 15 14 13 13 13 14 13 13 13 13 13 13 12 11 10 10 10 10 9 9 8 8 7 7 7 6 6 6
14 14 15 15 15 16 15 14 14 14 15 12 14 16 18 18 18 15 14 14 14 13 14 13 13 13 13 13 12 11 10 10 10 10 9 9 8 8 7 7 7 6 6
14 15 15 15 15 15 15 14 14 14 15 15 13 14 14 15 18 17 15 14 13 13 13 14 13 12 12 12 12 12 11 10 10 10 10 10 10 8 8 7 7 7 7
15 15 16 16 14 14 14 14 14 14 15 16 15 14 14 14 15 15 17 15 13 13 13 13 12 12 11 12 11 11 11 10 10 10 10 9 9 9 9 8 8 7 7
15 16 16 16 16 14 15 14 14 14 14 14 15 14 14 15 15 15 12 11 11 13 12 12 11 11 11 10 11 11 11 11 10 10 10 9 9 8 8 9 8 8 8
14 16 16 15 15 16 15 15 14 14 14 13 13 13 12 13 14 13 12 11 10 11 11 11 11 11 10 11 11 11 10 10 10 10 10 9 9 9 8 7 8 8 8
15 15 15 16 16 16 15 15 15 15 14 14 13 13 13 13 12 12 12 10 10 11 12 11 11 10 11 12 11 11 10 10 9 9 9 9 8 8 8 8 7 7 7
16 15 15 15 15 15 15 15 15 15 14 14 14 13 12 12 11 11 10 9 10 11 12 11 10 11 10 11 10 10 9 9 9 8 8 8 8 7 7 7 7 6 6
16 16 15 15 15 15 15 15 15 15 14 14 14 14 13 12 11 11 10 10 10 10 10 11 10 10 11 10 9 8 8 8 8 8 8 7 7 7 7 6 6 6 6
15 15 15 15 15 15 15 15 15 15 15 15 14 13 12 12 11 10 10 9 8 8 9 10 10 12 11 10 9 7 8 7 7 7 7 7 7 6 6 6 6 6 5
15 15 15 15 15 15 15 15 15 14 13 14 12 11 11 11 10 10 9 8 8 8 8 9 10 10 9 8 8 6 7 7 7 7 6 6 6 6 6 5 5 5 5
14 14 14 15 15 15 15 15 14 12 13 12 12 11 11 10 9 9 9 8 8 8 8 8 9 7 5 6 5 6 6 6 6 6 5 5 5 5 5 5 4 4 4
14 14 14 15 15 15 15 15 13 12 12 12 12 11 11 10 9 9 9 8 8 8 7 6 6 4 3 3 3 3 3 3 3 4 3 3 3 3 3 3 3 3 3
14 14 15 15 15 15 14 14 13 12 12 11 11 10 10 10 10 9 9 8 7 7 5 3 2 2 1 1 1 2 1 1 1 2 2 3 3 2 2 2 2 2 2
15 15 15 15 15 14 12 12 12 11 11 10 10 9 9 8 7 8 7 7 6 5 3 2 0 0 0 0 -0 -0 -0 -0 1 2 2 1 2 2 1 1 1 0 -0
14 14 13 13 12 11 11 11 10 9 9 7 6 5 4 3 3 2 2 2 1 1 1 0 -0 -1 -1 -1 -1 -1 -1 -1 -1 -0 1 2 2 1 1 1 1 -0 -1
11 10 8 8 7 6 7 8 7 6 4 2 1 0 -0 -1 -1 -1 -1 -1 -2 -2 -2 -2 -2 -3 -3 -3 -3 -3 -3 -2 -2 -0 -0 -0 1 1 1 1 1 0 -1
6 3 2 2 2 1 2 3 4 1 -0 -2 -2 -2 -2 -2 -2 -1 -1 -2 -3 -3 -3 -4 -4 -4 -4 -4 -4 -3 -3 -2 -1 -0 -0 -1 -1 0 0 0 1 0 -0
0 -0 -1 -1 -2 -1 -0 0 1 -1 -2 -3 -3 -3 -3 -3 -3 -3 -3 -4 -4 -4 -4 -5 -5 -5 -5 -5 -5 -6 -5 -4 -3 -3 -2 -3 -2 -1 -1 0 0 0 0

GFSMA_925_temp_099.txt.gz
Temp
17 17 17 17 17 17 16 17 17 18 18 18 18 17 18 18 18 17 14 13 12 12 12 12 11 11 11 10 10 10 10 10 9 9 9 9 9 8 8 8 8 8 8
17 17 18 18 18 18 18 18 19 18 18 18 17 17 18 18 18 17 15 13 12 12 12 12 12 11 11 10 10 10 10 10 10 9 9 9 8 8 8 8 8 7 7
17 18 18 19 19 19 19 19 19 18 18 18 17 17 17 17 18 17 16 14 13 12 12 12 12 11 11 11 10 10 10 10 10 9 9 9 8 8 8 7 7 7 7
17 17 18 19 20 19 19 19 18 18 18 18 18 18 18 17 17 17 17 16 14 14 12 12 11 11 11 11 10 10 10 10 10 9 9 8 8 8 7 8 8 7 7
16 17 18 18 18 19 18 19 18 18 18 18 18 18 17 17 17 17 17 17 16 15 14 12 11 11 11 11 10 10 10 10 10 9 9 8 8 8 8 8 8 8 8
15 16 17 16 18 18 18 18 18 18 18 19 19 18 17 17 17 17 16 16 16 15 15 14 12 11 11 11 10 11 10 10 10 10 9 9 8 8 7 7 7 7 7
14 16 16 16 17 17 17 17 17 17 18 18 19 18 17 16 16 16 16 16 15 14 14 14 13 12 12 11 10 10 11 10 10 10 9 9 8 8 8 7 7 7 7
14 15 16 16 16 17 17 17 17 17 18 17 18 18 17 16 15 14 15 15 15 15 14 14 14 14 14 12 11 10 11 11 10 10 9 9 8 8 8 7 7 7 7
13 13 14 15 16 17 16 16 16 17 17 15 16 18 18 18 18 16 14 14 14 14 15 14 14 14 14 14 13 11 11 11 10 10 10 9 9 8 8 7 7 7 7
12 13 14 15 16 16 16 15 15 16 17 16 14 16 16 16 18 17 15 14 15 15 14 14 15 14 14 14 14 13 12 11 11 10 10 10 9 9 8 8 8 7 7
13 13 15 15 15 16 16 16 15 15 16 16 15 15 15 15 15 16 17 16 15 15 15 14 14 15 14 14 13 13 13 12 12 11 10 10 10 9 9 9 8 8 8
13 13 15 15 15 15 15 15 15 14 15 16 16 16 16 16 15 15 15 15 13 15 15 14 14 13 14 13 13 12 13 12 12 11 11 10 10 9 9 9 9 8 8
12 13 14 15 15 15 15 15 15 16 15 15 15 15 15 15 15 15 13 13 13 13 12 12 12 13 12 12 12 12 12 12 12 11 11 10 10 10 9 9 9 9 9
14 13 14 15 15 15 15 15 16 16 16 15 14 15 15 15 14 13 13 12 12 13 12 11 12 11 12 10 12 11 11 11 11 11 11 10 10 10 9 9 9 8 8
15 14 15 15 15 15 15 16 15 16 15 15 14 14 14 14 14 14 14 13 13 12 13 13 12 11 11 11 10 9 9 10 11 11 10 10 10 9 9 9 8 8 8
16 15 15 15 15 15 15 15 15 15 15 15 14 14 14 15 15 14 13 11 11 11 11 13 12 11 11 10 11 11 9 10 10 11 10 10 9 9 9 8 8 7 7
16 17 16 16 16 16 16 16 15 15 15 16 16 15 15 15 15 14 13 12 11 11 10 12 11 10 10 10 9 10 9 8 9 9 10 9 9 8 8 8 7 7 7
16 16 16 16 16 16 16 16 16 16 16 16 16 16 15 15 14 13 12 12 11 10 9 10 10 9 9 9 9 9 8 8 9 9 9 8 8 8 7 7 7 6 6
16 16 16 16 16 16 16 16 16 16 16 16 16 15 14 13 12 12 11 10 10 10 9 8 9 9 9 9 8 8 7 7 7 7 6 6 6 6 6 5 5 5 5
16 16 16 16 16 16 16 16 17 16 16 16 14 13 12 12 12 11 10 10 10 9 8 8 8 7 6 5 4 3 3 4 4 3 3 2 2 1 2 2 3 3 3
16 16 16 16 16 16 16 16 16 16 15 14 13 12 10 10 9 9 8 8 8 8 8 7 5 3 2 2 2 2 2 2 2 1 1 0 0 0 0 -0 1 2 2
16 16 16 16 16 14 14 15 15 14 12 10 9 7 6 5 4 4 4 3 4 4 4 3 1 1 0 0 0 0 0 -0 0 -0 -0 -0 -1 -1 -0 -0 0 2 1
16 14 11 11 9 8 9 10 10 8 7 5 4 3 2 1 1 0 0 1 0 0 -0 -0 -1 -1 -1 -1 -1 -1 -1 -1 -1 -1 -2 -2 -1 -1 -1 0 1 2 1
10 8 6 6 5 3 4 5 6 4 2 0 -0 -1 -1 -1 -1 -1 -0 -0 -1 -1 -1 -1 -1 -2 -2 -2 -2 -2 -2 -2 -2 -2 -2 -2 -1 -1 -0 1 2 2 1
3 1 1 1 1 -0 1 2 3 1 -0 -2 -2 -2 -2 -2 -1 -1 -2 -2 -3 -3 -3 -3 -3 -4 -4 -4 -4 -4 -3 -2 -2 -2 -2 -2 -2 -2 -1 -0 0 1 1
-1 -1 -2 -2 -2 -2 -1 -1 -0 -1 -2 -3 -4 -3 -3 -3 -3 -3 -3 -3 -3 -3 -4 -4 -4 -4 -4 -5 -5 -5 -5 -5 -4 -3 -3 -4 -3 -3 -2 -1 -1 -0 -1

GFSMA_925_temp_102.txt.gz
Temp
16 15 15 15 15 15 15 16 17 17 17 17 17 18 18 18 16 15 13 13 13 12 12 12 11 11 11 10 10 10 10 10 10 9 9 9 9 8 8 8 8 8 8
16 15 16 15 16 16 16 17 17 18 18 18 18 18 18 18 16 15 13 12 12 12 12 12 12 11 11 10 10 10 10 10 10 9 9 9 9 8 8 8 8 8 8
16 16 16 16 16 16 17 17 17 18 18 18 17 18 18 18 17 15 14 13 12 12 12 12 12 11 11 11 10 10 10 10 10 10 9 9 8 8 8 8 8 7 7
16 17 17 17 17 17 17 18 18 18 18 18 17 17 17 18 17 16 15 14 13 12 12 12 12 11 11 11 11 10 10 10 10 10 9 9 9 8 8 8 8 7 7
16 17 17 18 18 18 18 18 18 18 18 18 18 17 17 17 17 17 16 15 14 13 13 12 12 11 11 11 11 11 11 10 10 10 9 9 9 8 8 8 7 7 7
15 17 18 18 18 18 19 18 18 18 18 18 18 18 17 17 17 17 17 16 15 14 14 14 13 12 12 11 11 11 11 11 10 10 10 9 9 8 8 8 7 7 7
16 16 18 18 18 18 18 18 18 18 18 18 18 17 17 17 17 17 17 16 16 15 15 14 14 13 12 12 11 11 11 11 11 10 10 9 9 8 8 8 8 7 7
15 16 17 18 18 18 17 18 18 18 18 18 18 17 14 16 16 16 16 16 16 15 15 15 14 13 13 12 12 12 11 11 11 11 10 10 9 9 8 8 8 8 7
14 15 16 17 17 17 17 17 17 17 18 17 17 17 14 14 15 15 15 15 15 15 15 14 14 14 13 13 13 13 13 12 11 11 11 10 9 9 8 8 8 8 7
13 14 15 16 17 15 16 17 17 17 17 16 16 17 16 16 14 13 15 14 15 14 14 14 14 14 14 14 14 13 13 13 12 11 11 10 10 9 9 8 8 8 8
13 14 14 14 15 15 16 16 15 16 16 16 15 16 16 15 15 14 13 14 14 14 14 14 14 15 14 14 14 14 14 13 13 12 11 10 10 9 9 9 9 8 8
11 12 13 14 14 14 14 14 15 16 16 16 16 16 15 15 14 14 12 13 14 15 15 15 15 14 15 14 14 14 14 14 13 13 12 11 10 10 10 9 9 9 9
12 12 12 13 13 13 13 15 15 15 15 15 16 16 15 15 16 15 14 13 12 14 14 15 15 15 15 14 14 13 13 13 13 12 12 12 11 11 10 10 9 9 9
12 12 12 12 13 14 15 15 14 15 15 15 15 15 16 15 15 15 15 13 12 12 13 13 14 14 14 14 14 13 13 13 12 12 12 12 12 11 11 10 10 9 9
12 12 12 13 14 15 15 15 15 15 15 16 16 16 16 15 15 15 14 14 13 12 12 14 13 13 13 13 12 12 12 12 11 10 11 10 10 10 11 10 10 9 9
14 13 14 14 14 15 15 15 15 15 15 15 15 15 15 15 15 15 14 14 13 12 12 14 13 13 13 12 12 11 11 11 10 10 10 9 9 9 9 10 10 10 9
14 14 14 15 14 14 15 15 15 15 15 15 15 14 15 15 14 14 14 14 13 12 11 13 13 12 11 11 11 11 11 10 10 10 10 9 8 8 8 8 8 8 8
15 15 15 14 14 15 15 15 15 15 15 15 15 15 15 15 15 14 14 13 12 12 11 12 12 11 10 10 10 9 9 9 9 9 8 7 7 7 6 6 6 6 5
16 16 16 15 15 15 16 16 16 16 16 16 16 16 16 15 15 14 13 12 12 12 11 10 10 10 9 9 9 9 8 8 7 6 6 6 6 5 5 4 4 3 2
16 16 16 16 16 16 16 16 16 16 16 16 15 14 13 12 10 10 9 9 9 9 9 9 9 8 7 6 6 5 5 5 5 5 4 4 4 4 3 3 2 1 1
16 16 16 16 16 16 16 16 16 16 14 13 11 9 6 4 4 4 6 5 5 5 5 4 4 3 2 2 1 2 2 2 3 3 3 3 2 2 2 1 1 1 0
16 16 16 16 14 12 10 14 14 13 11 9 7 3 2 1 1 1 1 2 3 2 2 1 -0 0 -1 -1 -1 -0 -0 -0 0 1 1 0 0 0 0 0 0 0 -0
12 12 10 10 8 6 7 10 11 8 6 3 1 1 -0 -0 0 0 0 -0 0 -0 -1 -1 -1 -2 -2 -2 -2 -2 -2 -1 -1 -1 -1 -1 -0 -1 -0 -1 -1 -1 -1
8 6 4 3 3 2 3 4 4 3 1 -0 -1 -1 -1 -1 -1 -1 -1 -1 -2 -2 -2 -2 -3 -3 -3 -3 -3 -4 -4 -3 -2 -2 -2 -2 -2 -2 -1 -1 -1 -1 -1
3 1 1 0 -0 -1 0 1 2 0 -1 -2 -3 -3 -3 -3 -2 -2 -3 -3 -3 -3 -3 -3 -3 -3 -4 -4 -4 -4 -4 -5 -4 -3 -4 -5 -3 -4 -3 -2 -1 -1 -1
-1 -2 -2 -2 -2 -2 -1 -1 -0 -1 -2 -3 -4 -4 -4 -4 -4 -4 -4 -4 -5 -5 -4 -4 -4 -4 -4 -4 -4 -5 -6 -6 -6 -4 -6 -7 -6 -6 -5 -4 -2 -4 -5

GFSMA_925_temp_105.txt.gz
Temp
15 14 14 15 16 16 16 16 17 17 18 18 18 18 17 17 16 16 13 13 12 12 12 12 11 11 11 10 10 10 10 10 10 9 9 9 9 9 8 8 8 8 8
15 14 14 15 15 16 16 17 17 17 17 17 18 18 17 16 16 15 13 12 12 12 12 12 12 11 11 10 10 10 10 10 10 9 9 9 9 8 8 8 8 8 8
15 14 14 14 15 16 16 16 16 17 17 17 17 17 16 16 16 15 14 13 12 12 12 12 12 11 11 11 10 10 10 10 10 10 9 9 9 8 8 8 8 8 8
15 15 14 15 15 16 17 16 16 17 17 17 17 17 16 16 16 15 15 14 13 12 12 12 12 11 11 11 11 10 10 10 10 10 9 9 9 8 8 8 8 8 7
17 15 15 15 16 16 17 17 16 17 17 17 17 17 17 16 16 15 15 14 14 13 13 12 12 12 11 11 11 11 11 11 10 10 10 9 9 9 8 8 8 8 7
17 16 15 16 16 16 17 17 17 18 18 17 17 17 17 17 16 15 15 15 14 14 14 14 13 12 12 11 11 11 11 11 11 10 10 10 9 9 8 8 8 8 8
17 16 17 17 17 16 17 17 18 18 18 17 17 17 17 17 17 17 15 15 15 14 14 14 14 13 13 12 12 11 11 11 11 11 11 10 10 9 9 8 8 8 8
16 16 16 17 17 17 17 17 18 18 18 17 16 16 12 15 16 16 16 15 15 15 14 14 14 14 13 13 13 12 12 11 12 12 11 10 10 10 9 8 8 8 8
15 16 16 17 17 17 17 17 18 18 18 17 17 16 12 13 13 16 16 16 16 15 15 15 14 14 14 13 13 13 13 13 12 12 11 11 10 10 9 9 8 8 8
15 15 17 17 17 16 16 16 17 18 18 17 17 17 17 16 12 12 15 15 15 15 15 15 15 15 14 14 14 14 14 14 13 13 12 11 11 10 10 9 9 8 8
13 14 16 16 16 15 16 15 17 17 17 17 16 16 16 15 15 12 11 13 14 15 15 15 15 14 14 14 14 14 14 14 14 14 13 13 11 11 10 9 9 9 8
13 13 15 15 15 15 16 16 16 16 15 15 16 17 16 15 14 13 11 12 13 15 16 15 15 15 15 14 14 14 15 15 14 14 13 13 12 11 11 10 9 9 9
12 12 13 14 15 15 16 15 15 15 14 14 16 17 16 16 16 16 14 12 12 14 15 15 15 15 15 15 15 15 15 14 13 13 13 13 13 12 10 10 10 9 9
12 12 12 12 13 14 14 13 14 14 15 15 15 15 15 15 15 16 15 14 10 11 13 14 15 15 15 15 15 15 15 14 14 14 12 11 11 11 10 9 10 10 9
12 12 12 12 12 13 13 13 13 14 15 14 15 16 16 16 15 16 16 15 13 12 13 13 13 14 14 14 14 14 14 13 13 13 12 12 10 10 9 9 8 9 9
12 12 12 11 12 12 13 13 13 14 14 15 15 15 15 15 16 16 15 15 14 13 13 14 14 14 14 13 13 13 12 12 12 11 11 11 11 10 10 9 8 8 8
12 11 11 11 12 13 14 13 13 14 15 14 15 15 15 15 15 15 15 14 13 12 12 13 13 13 13 12 12 11 11 11 11 11 11 10 10 9 9 9 8 8 7
12 13 12 12 12 13 13 14 14 15 14 14 15 15 15 15 15 15 14 13 12 12 12 12 13 12 11 11 11 10 10 10 9 9 8 8 8 8 7 7 7 6 6
13 13 13 13 13 13 13 14 14 14 14 15 15 15 14 14 13 12 12 11 11 11 11 9 9 9 9 9 8 7 7 7 6 6 6 6 6 6 6 6 6 5 4
14 14 14 14 14 14 14 14 14 15 15 14 13 12 12 11 9 8 8 8 7 7 8 7 6 5 4 4 3 2 3 3 4 4 3 3 4 4 4 4 3 2 3
15 15 15 15 15 14 14 14 15 15 14 12 9 7 5 4 4 4 5 4 4 5 4 2 1 1 -0 -1 -1 -1 -1 0 1 1 1 1 1 1 1 1 1 1 1
15 15 15 14 14 12 12 14 14 12 10 7 4 2 1 1 1 0 0 0 2 1 -0 -1 -2 -2 -2 -3 -3 -2 -2 -2 -1 -1 -2 -2 -1 -1 -0 -0 -0 -0 -0
13 12 11 10 9 7 9 10 11 9 6 2 1 -0 -1 -1 -1 -1 -1 -1 -2 -2 -2 -2 -3 -4 -4 -4 -4 -4 -4 -4 -3 -3 -3 -3 -2 -2 -2 -2 -2 -2 -1
8 6 5 5 5 3 4 5 6 3 0 -1 -1 -2 -2 -2 -2 -2 -2 -3 -3 -3 -3 -3 -4 -4 -4 -4 -4 -5 -5 -5 -4 -4 -5 -5 -4 -6 -5 -4 -3 -3 -2
2 1 0 -0 -0 -1 0 1 2 -0 -2 -3 -3 -3 -3 -3 -4 -4 -3 -4 -4 -4 -4 -4 -4 -4 -5 -5 -6 -6 -7 -7 -7 -6 -7 -7 -7 -7 -7 -6 -4 -4 -5
-1 -2 -2 -2 -2 -2 -2 -1 -1 -2 -4 -5 -5 -5 -4 -4 -4 -4 -5 -5 -6 -6 -5 -5 -6 -6 -7 -7 -8 -8 -8 -8 -8 -8 -7 -8 -8 -8 -8 -7 -7 -7 -7

GFSMA_925_temp_108.txt.gz
Temp
15 15 14 14 16 16 16 17 17 18 18 16 16 17 16 15 15 14 13 13 13 12 12 12 12 11 11 11 11 10 10 10 10 10 9 9 9 9 9 9 8 8 9
15 15 14 15 15 16 16 16 18 18 18 17 16 16 16 16 15 14 14 13 13 12 12 12 12 11 11 11 10 10 10 10 10 10 9 9 9 9 8 8 8 8 8
15 14 14 14 15 15 16 18 17 17 17 17 16 16 16 15 15 15 14 13 12 12 12 12 12 11 11 11 10 10 10 10 10 10 9 9 9 8 8 8 8 8 8
15 14 13 14 15 15 17 17 17 17 17 17 16 16 16 16 15 15 14 14 13 12 12 12 12 11 11 11 11 10 10 10 10 10 10 9 9 9 8 8 8 8 8
15 14 14 14 15 16 17 17 17 17 17 17 16 16 16 16 15 15 14 14 13 13 12 12 12 11 11 11 11 11 11 11 10 10 10 10 9 9 8 8 8 8 8
14 14 14 14 15 15 15 16 16 16 17 17 17 16 16 15 15 15 15 14 14 13 13 12 12 12 12 12 11 11 11 11 11 11 10 10 10 9 9 9 8 8 8
14 14 14 15 15 15 16 16 15 16 16 17 17 15 14 15 15 15 15 14 14 14 13 13 13 13 12 12 12 12 11 12 12 11 11 10 10 10 10 9 8 8 8
14 14 14 15 15 15 16 16 16 15 16 17 16 15 12 14 13 14 14 15 15 14 14 13 13 13 13 13 13 13 12 12 12 12 12 11 11 10 10 10 9 9 8
14 14 15 15 15 15 15 15 16 16 16 16 17 16 11 12 13 14 14 14 14 14 14 14 14 14 14 14 14 13 13 13 13 12 12 12 11 11 11 10 9 9 9
14 14 15 15 15 15 15 15 16 16 16 15 16 17 17 16 12 12 15 15 14 14 14 14 14 14 14 14 14 14 14 14 14 13 13 13 12 11 11 11 10 9 9
14 14 14 15 14 15 15 15 16 17 17 15 16 15 15 15 14 12 11 13 16 15 15 15 15 14 14 14 14 15 15 15 14 14 14 13 13 12 11 11 10 10 9
13 14 14 14 14 14 15 16 16 16 15 15 16 16 15 15 13 13 10 11 13 17 16 16 15 15 15 15 15 15 15 15 14 14 14 14 13 13 12 11 11 10 10
13 13 13 14 14 14 15 15 14 13 13 13 15 15 15 16 17 15 15 13 11 15 15 16 16 16 16 16 15 16 15 15 15 15 15 14 13 13 12 12 10 10 10
13 12 12 12 13 14 13 13 12 12 13 14 14 14 14 15 15 16 16 13 10 10 13 14 15 15 15 15 16 16 15 15 15 14 14 13 13 12 12 12 11 10 10
13 12 12 12 13 13 13 12 12 13 13 13 13 14 15 15 15 15 15 15 14 13 12 14 14 14 14 15 15 15 15 15 14 13 12 12 12 11 11 11 11 10 9
12 12 12 12 12 12 11 12 12 13 13 13 14 14 15 15 15 15 15 15 14 13 13 14 14 14 14 14 14 14 14 13 12 11 11 11 10 10 10 10 9 9 9
12 12 12 11 11 12 12 12 12 13 13 13 14 14 15 15 15 15 15 14 13 12 12 13 13 13 13 13 12 12 11 11 10 9 9 9 8 8 8 8 7 7 7
12 12 11 12 12 11 12 12 12 12 13 13 14 14 14 15 14 14 13 13 12 12 11 12 12 12 11 10 9 10 9 7 7 7 7 6 6 6 6 6 6 6 6
12 11 11 11 11 12 12 13 13 13 13 13 13 13 13 13 12 11 11 10 10 9 9 8 8 8 7 6 6 5 5 4 4 4 3 3 3 3 3 3 3 3 3
12 12 12 12 12 12 12 13 13 13 13 12 12 12 10 9 9 8 8 7 6 6 6 4 3 2 1 0 0 -1 -0 0 1 1 0 1 1 1 1 1 1 1 1
12 13 13 12 12 12 12 12 12 12 12 11 8 7 5 3 3 4 4 3 3 3 1 1 -0 -1 -2 -2 -3 -3 -2 -3 -1 -1 -2 -2 -2 -2 -2 -2 -2 -2 -1
12 12 12 12 12 11 12 12 13 12 10 7 4 2 2 1 1 0 0 1 1 0 -1 -1 -2 -2 -4 -4 -4 -5 -5 -4 -3 -3 -5 -4 -3 -3 -4 -4 -3 -3 -3
12 11 10 9 9 8 9 11 11 9 6 2 1 0 -1 -1 -1 -1 -1 -1 -2 -3 -3 -3 -4 -4 -5 -5 -5 -6 -6 -6 -6 -6 -6 -5 -4 -5 -6 -6 -4 -4 -5
9 8 6 6 6 3 5 7 8 4 1 -1 -1 -2 -2 -2 -3 -3 -3 -3 -4 -4 -4 -4 -5 -5 -6 -6 -7 -7 -8 -7 -6 -6 -8 -8 -8 -8 -8 -7 -6 -7 -7
4 3 2 2 2 -0 1 2 4 -0 -2 -3 -4 -3 -3 -4 -4 -4 -4 -5 -5 -5 -6 -6 -7 -7 -8 -9 -9 -8 -10 -10 -9 -8 -10 -10 -9 -9 -9 -8 -7 -8 -8
1 0 -0 -1 -1 -2 -2 -1 -1 -2 -4 -5 -5 -6 -6 -6 -6 -5 -6 -6 -7 -7 -7 -7 -7 -8 -9 -10 -10 -11 -11 -11 -11 -10 -10 -11 -10 -11 -10 -9 -10 -9 -9

GFSMA_925_temp_111.txt.gz
Temp
14 15 14 15 16 16 15 15 15 15 15 16 16 16 16 15 14 14 13 13 13 12 12 12 12 12 11 11 11 11 10 10 10 10 10 10 9 9 9 9 9 9 9
14 15 15 14 15 16 16 16 15 15 16 16 16 16 16 15 15 14 13 13 12 12 12 12 12 12 11 11 11 11 10 10 10 10 10 9 9 9 9 8 8 8 9
14 15 14 14 15 16 16 16 16 15 16 16 16 15 15 15 15 14 13 13 12 12 12 12 12 12 11 11 10 10 10 10 10 10 10 9 9 9 8 8 8 8 8
14 14 14 14 15 16 15 15 16 15 15 16 16 15 15 15 14 14 13 13 12 12 12 12 12 11 11 11 11 10 10 10 10 10 10 9 9 9 9 9 8 8 8
14 14 14 13 15 15 16 16 16 16 16 16 16 15 15 15 15 14 13 13 13 13 12 12 12 11 11 11 11 11 11 11 10 10 10 10 9 9 9 8 8 8 8
14 15 14 14 15 15 15 15 15 16 16 16 15 15 14 15 14 14 14 13 13 13 13 12 12 12 12 11 11 11 11 11 11 11 10 10 10 10 9 9 9 8 8
14 14 13 14 14 15 15 15 15 16 15 15 14 12 12 13 14 14 13 14 14 14 14 13 13 12 12 12 12 11 11 12 12 12 11 11 10 10 10 10 9 9 8
14 14 14 13 14 14 15 14 14 15 16 15 14 13 10 12 12 13 12 14 15 14 14 14 13 13 13 12 12 12 12 12 12 12 12 12 11 11 11 10 10 9 9
14 13 14 14 14 14 14 15 15 15 15 14 16 15 11 12 12 12 13 13 15 14 14 14 14 14 13 13 13 13 13 13 13 12 12 12 12 12 11 11 11 10 10
14 14 14 14 14 14 14 14 15 15 15 14 15 16 17 15 12 12 13 13 14 14 14 14 14 14 14 14 14 14 14 14 14 13 13 13 13 12 12 11 11 11 11
14 14 14 13 13 14 14 14 14 15 16 14 15 15 15 15 14 12 11 12 13 15 16 15 15 15 14 14 14 14 14 14 14 14 14 13 13 13 13 13 12 11 11
14 14 14 14 14 14 14 14 14 15 15 15 15 16 16 15 13 13 11 11 13 15 16 16 16 16 16 16 15 15 15 15 15 15 14 14 14 14 13 12 11 11 11
14 14 14 14 13 14 14 14 14 15 15 15 15 15 15 16 16 15 14 12 11 15 16 16 17 17 16 16 16 16 16 16 16 15 15 14 14 13 13 12 11 11 11
14 13 13 13 13 13 14 14 14 14 14 14 13 13 14 14 13 13 14 14 10 11 13 15 16 16 16 16 16 16 15 15 15 15 14 14 14 13 11 11 10 10 9
13 13 13 13 13 13 13 13 12 13 13 12 12 12 12 13 13 13 13 14 13 12 13 14 14 15 15 15 15 15 14 14 14 12 10 9 10 10 9 9 9 9 8
13 13 13 13 13 13 13 12 12 13 12 12 12 12 12 12 12 12 13 13 13 12 12 14 14 14 14 13 13 13 12 11 10 9 10 9 9 9 8 8 8 7 7
12 12 12 12 12 12 12 12 12 12 12 11 12 12 12 12 12 13 13 13 13 12 11 13 13 13 12 11 11 10 9 9 8 7 7 7 6 6 6 5 5 5 5
12 12 12 12 12 12 12 12 11 12 11 11 12 12 12 12 12 12 12 12 12 11 11 11 11 10 9 7 6 6 6 4 4 3 4 3 3 2 2 1 2 2 1
12 12 12 12 11 11 11 12 12 11 11 12 11 11 11 12 12 11 11 10 10 10 9 8 6 5 4 4 4 3 3 3 2 0 1 1 1 1 0 0 -0 -1 -1
12 12 11 11 12 11 12 11 11 12 11 11 11 11 10 10 10 9 8 7 6 6 5 4 2 1 0 -1 -1 -1 -2 -1 -0 -2 -1 -1 -2 -3 -3 -2 -2 -2 -3
11 11 11 11 11 11 11 11 12 12 11 10 9 7 6 6 6 5 5 3 3 2 1 0 -1 -2 -3 -4 -4 -5 -5 -4 -2 -3 -3 -2 -4 -4 -4 -3 -3 -4 -4
12 11 11 11 11 11 12 12 12 11 10 9 6 3 1 1 1 1 1 1 1 1 -1 -3 -4 -4 -5 -5 -5 -6 -7 -6 -5 -4 -6 -6 -5 -5 -6 -6 -5 -6 -6
11 11 11 11 11 11 11 11 11 10 7 4 2 0 -1 -1 -1 -1 -2 -2 -2 -3 -3 -4 -5 -6 -7 -8 -7 -7 -8 -8 -8 -7 -8 -8 -7 -8 -8 -8 -6 -7 -7
10 9 8 8 8 7 9 11 10 6 2 -0 -1 -1 -2 -2 -2 -2 -3 -4 -5 -5 -5 -6 -7 -8 -9 -9 -8 -9 -9 -10 -8 -8 -10 -10 -10 -10 -11 -9 -8 -8 -9
6 5 4 4 5 2 3 6 8 1 -1 -2 -2 -3 -3 -4 -4 -3 -3 -5 -7 -8 -8 -9 -9 -9 -10 -10 -10 -9 -11 -12 -12 -10 -11 -12 -11 -12 -11 -9 -9 -10 -10
3 2 1 0 -1 -2 -2 -1 0 -1 -4 -5 -4 -5 -5 -5 -5 -5 -5 -7 -8 -9 -8 -8 -8 -9 -9 -11 -11 -12 -13 -13 -13 -13 -11 -13 -12 -13 -12 -11 -11 -12 -12

GFSMA_925_temp_114.txt.gz
Temp
15 15 17 16 16 16 16 15 15 15 16 15 15 16 14 15 15 14 13 13 13 13 13 13 12 12 12 12 11 11 11 11 11 10 10 10 10 10 9 9 9 9 9
14 14 15 16 15 16 16 15 15 15 15 15 15 15 16 15 14 13 13 13 13 13 13 13 12 12 12 11 11 11 11 10 10 10 10 9 9 9 9 9 9 9 9
14 15 14 14 14 16 16 15 15 15 15 15 14 16 15 14 14 13 13 13 13 12 12 12 12 12 12 11 11 11 10 10 10 10 10 9 9 9 9 9 8 9 8
14 14 14 14 14 15 16 15 15 15 15 15 15 15 14 14 15 14 13 13 12 12 12 12 12 12 11 11 11 10 10 10 10 10 10 9 9 9 9 8 8 8 8
14 14 14 14 15 14 15 15 15 15 14 15 14 14 14 15 14 13 13 13 12 12 12 12 12 12 11 11 11 11 11 11 10 10 10 10 10 9 9 9 8 8 8
14 14 14 14 14 14 14 14 15 14 15 14 14 13 14 14 13 14 13 13 13 13 12 12 12 12 11 11 11 11 11 11 11 11 11 10 10 10 10 9 9 9 8
14 14 14 13 14 14 15 14 15 14 14 13 12 11 11 12 13 13 13 13 13 13 12 12 12 12 12 12 12 12 11 12 12 12 12 11 11 11 11 10 10 9 9
13 13 13 13 13 13 14 14 13 12 13 14 13 12 10 11 11 12 13 13 13 13 13 12 13 13 13 13 13 12 12 12 12 12 12 12 12 12 11 11 11 11 11
14 14 14 14 13 14 14 14 14 14 13 13 14 14 11 11 11 12 12 12 13 13 12 13 14 14 14 14 14 13 13 13 13 12 12 12 12 12 12 12 12 11 11
14 14 14 13 14 14 14 14 14 14 14 13 14 15 16 15 11 11 12 13 13 13 13 14 15 15 15 15 14 14 14 14 14 13 13 13 13 13 12 12 12 12 11
14 13 14 14 14 13 14 14 14 14 15 14 14 14 15 15 15 12 11 12 13 14 14 14 15 15 15 15 15 15 15 15 15 14 14 14 13 13 13 13 13 12 12
14 13 14 14 13 14 14 15 14 14 15 15 15 15 16 15 13 13 11 11 12 14 15 14 15 16 16 16 16 16 16 16 15 15 15 14 14 13 13 12 11 11 11
14 14 14 13 13 14 14 14 13 14 15 15 15 15 16 17 16 15 15 11 12 14 15 16 16 16 16 16 16 16 16 16 15 15 14 12 11 11 11 10 10 9 9
14 14 14 13 13 13 13 13 13 14 15 15 15 15 15 15 15 14 13 13 11 11 13 15 15 15 14 14 14 15 15 13 12 12 11 11 11 10 10 10 10 9 9
14 14 14 14 13 13 13 13 13 13 14 14 13 13 14 13 12 13 13 13 12 11 11 14 14 14 14 14 13 13 12 11 11 10 10 9 9 8 8 7 8 8 7
13 13 13 14 13 13 12 12 12 13 13 12 11 11 11 12 12 12 12 12 11 11 11 13 13 13 13 12 11 11 9 9 8 6 5 4 4 5 5 5 4 5 4
13 13 13 13 13 13 12 12 12 12 12 12 11 11 11 11 11 12 12 12 11 11 11 11 12 11 10 9 7 7 6 5 4 4 3 3 2 2 2 2 2 2 2
13 13 13 13 13 12 12 12 12 12 12 11 11 11 11 11 11 11 11 11 11 11 11 11 10 8 6 4 4 4 3 2 1 1 1 0 1 0 -0 0 -0 -0 -1
12 12 12 12 13 12 12 12 12 12 12 12 12 11 11 11 11 11 11 11 11 10 9 9 4 3 2 2 1 1 1 1 -0 -1 -0 -1 -2 -3 -2 -2 -2 -3 -3
12 12 12 12 12 12 12 12 12 11 11 11 11 11 11 10 10 10 10 9 8 7 6 6 2 0 0 -1 -1 -2 -2 -1 -3 -3 -2 -2 -3 -4 -4 -3 -3 -4 -4
12 12 12 12 11 11 11 11 11 11 11 10 9 9 8 8 8 8 7 6 5 4 3 1 -1 -3 -4 -4 -6 -6 -5 -3 -4 -4 -3 -3 -5 -6 -5 -4 -5 -6 -6
11 11 11 11 11 11 11 11 11 11 10 9 6 4 3 4 4 4 3 3 3 2 1 -2 -4 -6 -7 -7 -7 -7 -7 -7 -6 -5 -7 -5 -7 -7 -7 -5 -6 -7 -7
11 11 11 11 11 11 11 11 11 10 8 6 5 2 0 -1 0 0 -0 -0 -1 -1 -2 -3 -6 -7 -9 -8 -7 -8 -9 -9 -8 -9 -9 -9 -8 -10 -10 -8 -7 -8 -8
10 10 9 9 9 9 10 11 10 7 3 1 -0 -1 -2 -2 -3 -2 -3 -4 -5 -6 -6 -7 -7 -9 -9 -9 -9 -10 -10 -9 -8 -10 -11 -12 -11 -11 -12 -9 -9 -9 -9
7 7 6 7 7 3 5 7 9 2 -1 -2 -2 -2 -3 -4 -4 -4 -4 -6 -8 -9 -9 -9 -10 -10 -11 -11 -10 -9 -12 -12 -12 -11 -12 -13 -12 -12 -12 -11 -11 -10 -11
4 3 2 1 1 -0 -0 1 3 -0 -3 -4 -5 -5 -5 -6 -6 -5 -5 -7 -9 -10 -10 -10 -10 -10 -12 -12 -11 -12 -13 -13 -13 -13 -12 -13 -13 -14 -13 -12 -12 -12 -13

GFSMA_925_temp_117.txt.gz
Temp
15 16 15 15 15 15 15 15 14 14 14 14 14 14 13 13 14 14 14 14 14 13 13 13 13 12 12 12 11 11 11 11 11 11 10 10 10 10 10 9 10 10 10
15 15 15 15 15 15 14 14 15 15 14 14 14 13 13 14 13 13 14 14 13 13 13 13 13 12 12 12 11 11 11 11 11 11 10 10 10 9 10 10 10 10 10
15 16 15 15 14 15 14 14 14 15 14 14 14 13 14 13 13 13 13 14 13 13 13 13 12 12 12 12 11 11 11 11 10 10 10 10 9 9 10 10 10 10 9
14 14 14 14 14 14 14 14 14 14 14 14 14 14 13 13 13 13 13 13 13 13 12 13 12 12 12 12 11 11 11 10 10 10 10 10 9 9 9 9 9 9 9
14 14 14 14 14 14 14 13 14 14 14 14 14 13 13 13 12 13 13 13 13 13 13 12 12 12 12 11 11 11 11 11 10 10 10 10 10 10 9 9 9 9 9
14 14 14 14 14 13 13 13 14 14 14 14 14 13 13 13 12 13 13 13 12 12 12 12 12 12 12 11 11 11 12 11 11 11 11 11 10 10 10 10 10 10 9
14 14 14 14 13 13 13 13 13 13 13 14 13 12 12 12 12 12 13 13 12 12 12 12 12 12 12 12 12 11 12 12 12 12 12 12 12 11 11 11 11 11 10
14 14 14 13 13 13 12 13 14 14 14 13 15 15 14 13 12 12 12 12 12 12 12 12 12 12 12 12 12 13 13 12 12 12 12 12 12 12 12 12 12 11 11
13 13 14 13 12 12 12 13 13 14 14 13 14 17 15 16 14 12 12 12 12 12 12 12 13 13 12 12 13 14 14 14 14 13 13 13 13 13 12 12 12 12 12
13 13 13 13 12 12 12 13 13 14 13 13 13 14 16 15 17 14 12 12 12 12 13 13 14 14 12 13 14 14 14 15 14 14 14 13 13 13 13 13 13 12 12
12 13 13 13 12 12 13 13 13 14 14 14 14 14 14 14 15 16 16 14 12 13 13 13 13 14 14 14 14 15 15 15 14 14 14 13 13 13 12 12 12 11 11
13 13 13 13 13 12 13 13 13 13 14 14 15 15 15 16 16 16 16 16 16 14 13 14 14 15 15 14 15 15 15 14 13 12 13 12 12 11 11 10 10 10 10
13 13 13 13 13 13 13 13 13 13 14 14 14 14 15 16 16 15 15 13 14 13 13 15 15 15 14 14 14 13 13 14 14 13 13 12 12 11 11 10 10 9 9
14 13 13 13 13 13 13 13 13 13 13 14 14 14 16 16 17 16 15 14 13 14 13 14 15 15 14 13 14 14 13 13 13 12 12 11 11 10 9 9 8 8 8
14 14 13 13 13 13 13 13 12 12 13 13 14 14 15 15 15 15 15 14 13 12 13 13 14 13 13 13 13 12 10 8 9 8 8 8 7 6 5 6 5 5 5
14 14 14 13 13 13 13 12 12 12 13 13 13 13 14 14 13 14 13 13 12 12 11 13 12 12 11 11 9 8 7 5 3 3 3 3 3 3 2 2 2 2 1
13 13 13 14 13 13 12 12 12 12 12 12 13 14 13 13 12 12 11 11 11 12 11 12 11 9 8 7 5 4 3 3 2 1 1 0 -0 1 0 0 0 -0 -0
13 13 13 13 13 13 12 12 11 11 12 11 13 13 12 12 12 11 10 10 11 11 11 11 10 6 4 3 2 2 2 -0 0 -0 0 -0 -2 -0 -0 -1 -2 -2 -2
12 13 13 13 13 13 13 12 12 11 11 11 11 11 11 11 11 11 11 11 11 11 11 10 6 3 1 0 0 -0 -0 -1 -2 -2 -2 -2 -2 -3 -2 -3 -3 -2 -2
12 12 12 12 12 12 12 12 12 11 11 11 11 11 11 11 11 11 11 11 10 10 9 7 3 -0 -1 -2 -2 -3 -3 -3 -3 -3 -3 -3 -4 -5 -4 -3 -4 -5 -6
12 12 12 12 12 12 12 12 12 11 11 11 11 10 10 10 11 10 10 8 8 7 5 3 -1 -3 -4 -5 -6 -6 -5 -4 -5 -5 -5 -5 -5 -6 -6 -6 -6 -6 -7
12 11 11 11 11 11 11 11 11 12 9 8 7 6 6 6 6 6 6 5 4 3 1 -3 -5 -6 -7 -7 -7 -7 -7 -6 -4 -6 -7 -5 -7 -6 -7 -7 -6 -7 -8
11 11 11 11 11 11 11 10 10 8 8 6 6 3 2 0 2 2 1 1 -0 -0 -1 -2 -6 -8 -9 -9 -8 -8 -8 -6 -5 -7 -8 -6 -7 -7 -7 -7 -8 -8 -8
11 10 9 9 9 7 10 10 9 6 3 1 0 -0 -1 -2 -2 -1 -1 -3 -5 -5 -4 -5 -6 -8 -8 -8 -9 -9 -9 -8 -7 -8 -10 -8 -8 -8 -8 -8 -8 -8 -9
7 7 6 7 6 3 4 8 8 2 -1 -2 -2 -2 -2 -3 -4 -3 -3 -7 -9 -9 -9 -10 -10 -11 -8 -7 -8 -10 -9 -9 -8 -8 -11 -10 -9 -9 -9 -9 -8 -9 -10
4 3 2 2 2 1 1 2 5 1 -3 -4 -5 -5 -5 -4 -5 -4 -5 -7 -9 -10 -10 -10 -10 -11 -12 -12 -12 -12 -12 -11 -11 -9 -10 -12 -10 -10 -10 -10 -9 -9 -9

GFSMA_925_temp_120.txt.gz
Temp
18 17 17 17 16 16 16 16 16 17 17 17 17 17 17 17 17 18 16 14 14 14 13 13 13 13 13 12 12 12 12 11 11 11 11 10 10 10 10 10 10 10 10
16 15 17 16 17 16 17 16 17 18 17 17 16 17 17 17 16 17 16 14 14 14 13 13 13 13 13 12 12 12 11 11 11 11 11 10 10 10 10 10 10 10 10
16 15 15 15 16 16 15 16 16 17 17 17 17 17 16 16 16 16 16 15 14 13 13 13 13 13 12 12 11 11 11 11 11 11 10 10 10 10 10 10 10 10 10
16 15 15 15 15 15 15 15 16 17 17 17 17 17 17 16 16 16 17 16 16 15 13 13 13 13 12 12 11 11 11 11 11 11 10 10 10 10 9 10 10 10 10
15 15 15 14 14 14 14 15 15 17 17 17 17 17 17 16 16 16 16 16 16 16 15 13 13 13 12 12 12 12 11 11 11 11 10 10 10 10 10 10 10 10 10
15 15 15 14 14 14 13 13 15 17 17 18 18 17 17 17 16 16 16 16 16 16 16 14 13 13 12 12 12 12 12 12 11 11 11 11 11 11 10 11 11 11 11
15 14 14 14 14 13 13 14 15 17 18 17 17 16 16 16 16 16 16 16 16 15 15 15 15 15 13 12 12 12 12 12 12 12 12 12 12 12 12 12 12 12 12
14 14 14 14 14 13 13 14 15 17 18 17 17 17 16 15 15 15 16 16 16 16 15 15 15 15 16 14 13 13 12 12 12 13 13 12 13 13 12 12 12 12 12
15 14 14 14 13 13 13 13 15 16 17 17 18 18 18 18 17 16 15 16 15 15 16 15 15 15 14 15 14 13 14 13 13 13 13 13 13 13 13 12 12 12 12
14 14 14 14 13 13 13 13 14 16 17 17 18 19 19 20 19 17 16 16 15 15 15 15 14 13 14 15 14 14 14 14 14 13 13 13 13 13 13 12 12 12 12
14 14 13 13 13 13 13 13 14 16 16 17 18 18 19 18 19 20 18 17 16 16 16 14 14 13 15 15 14 14 13 13 13 13 13 12 12 12 12 12 12 11 11
13 13 13 12 12 12 12 12 13 15 16 17 17 17 18 18 19 20 21 18 17 16 16 15 14 15 15 15 13 13 12 13 14 14 14 13 13 13 12 12 10 10 10
12 12 12 12 11 11 12 12 13 15 15 16 16 17 18 18 19 19 20 19 19 16 15 15 16 16 14 13 13 12 12 13 14 13 13 13 12 11 11 10 9 8 8
13 13 12 12 11 11 12 12 13 15 15 16 16 17 17 18 19 19 19 17 17 16 15 15 14 13 12 12 12 12 11 13 13 12 12 10 9 8 7 7 7 6 5
14 13 13 12 12 11 11 11 12 14 14 15 16 16 17 17 17 17 16 16 16 15 15 13 11 10 11 10 9 10 9 8 9 7 7 7 5 4 4 4 4 4 3
14 14 13 13 12 12 11 12 12 13 13 14 15 15 16 15 14 15 16 14 15 15 14 13 11 10 9 8 6 8 6 5 4 3 3 3 2 2 2 2 3 2 1
14 14 14 13 13 12 12 12 11 12 13 14 14 14 14 12 15 15 15 14 14 13 12 11 10 7 6 6 4 3 3 3 1 1 -1 0 0 0 0 0 -0 -0 0
15 14 14 13 13 13 12 12 12 12 13 14 13 13 13 12 13 13 14 13 13 13 12 11 8 5 4 3 2 2 -0 -1 -1 -1 -2 -2 -1 -0 -0 -1 -1 -1 -1
13 13 13 13 13 13 12 12 12 12 13 13 13 13 12 12 12 13 13 12 12 11 11 11 6 3 -0 0 -0 -1 -1 -2 -2 -2 -2 -2 -2 -2 -1 -1 -2 -3 -5
12 12 13 13 13 13 13 12 12 12 11 12 11 11 11 13 13 11 11 11 11 10 10 9 3 -0 -2 -2 -2 -3 -3 -3 -3 -3 -3 -4 -4 -4 -4 -4 -5 -6 -7
12 12 12 12 12 12 12 12 12 11 11 10 10 11 11 11 10 11 11 11 11 9 7 3 -0 -3 -4 -4 -5 -4 -4 -5 -5 -4 -4 -4 -4 -3 -2 -3 -4 -7 -7
12 12 12 12 12 12 12 12 12 11 10 8 7 7 6 10 10 10 10 8 7 7 4 -0 -4 -5 -6 -6 -5 -5 -5 -5 -4 -5 -5 -2 -3 -2 -3 -4 -6 -7 -6
11 11 11 11 10 9 11 12 11 7 5 6 4 4 3 3 6 5 4 3 2 2 2 -0 -4 -6 -7 -7 -6 -7 -6 -4 -4 -6 -6 -4 -4 -4 -5 -6 -6 -7 -8
10 10 9 9 8 5 10 9 7 4 3 1 1 0 3 1 1 3 1 -1 -3 -3 -3 -3 -4 -6 -7 -8 -8 -7 -7 -6 -4 -5 -8 -7 -6 -6 -6 -6 -6 -7 -7
7 7 6 6 6 3 5 7 7 2 -0 -2 -2 -1 -0 -1 -3 -0 0 -5 -8 -9 -9 -8 -9 -7 -7 -6 -8 -8 -7 -5 -5 -5 -8 -8 -6 -6 -6 -5 -5 -7 -7
5 4 2 2 2 1 1 4 6 1 -2 -4 -4 -4 -3 -4 -4 -4 -4 -7 -9 -10 -10 -9 -9 -9 -9 -10 -10 -8 -8 -7 -6 -5 -8 -8 -7 -7 -7 -6 -6 -6 -6

GFSMA_925_temp_126.txt.gz
Temp
19 19 19 18 17 17 17 16 17 17 17 17 18 18 19 20 18 17 15 15 15 15 14 14 13 13 13 12 13 12 12 12 12 11 11 11 11 11 11 11 11 11 11
19 19 19 18 18 18 17 16 17 17 17 18 17 19 19 20 17 17 16 15 15 15 14 14 13 13 13 13 12 12 12 12 11 11 11 11 11 11 11 11 11 12 12
20 19 19 18 18 18 17 17 17 17 17 16 18 19 19 19 18 17 16 15 14 14 14 14 13 13 13 12 12 12 12 11 11 11 11 10 11 11 11 11 11 12 12
20 19 19 18 18 18 17 17 16 15 16 16 17 19 19 19 18 17 16 15 14 14 14 14 14 13 13 12 12 12 12 11 11 11 11 11 11 11 11 11 11 12 13
19 19 19 18 17 17 17 16 15 14 15 16 17 17 18 19 18 17 15 15 15 14 14 13 13 13 13 12 12 12 12 11 11 11 11 11 11 11 11 11 12 12 12
18 18 18 17 16 16 16 16 15 15 15 15 16 18 18 18 18 18 16 16 15 15 14 14 13 13 13 12 12 12 12 12 11 11 11 11 11 11 12 12 12 12 12
19 18 17 17 17 15 15 16 14 14 14 15 16 18 18 18 18 18 17 17 16 16 15 15 14 13 13 12 12 12 12 12 12 12 11 12 12 12 12 12 12 12 12
18 18 17 16 16 15 15 15 15 14 14 15 16 16 14 17 18 18 18 18 17 16 16 15 14 14 14 13 13 12 12 13 13 13 13 13 13 12 12 12 12 12 12
19 18 17 16 16 15 14 14 15 14 14 14 15 17 15 14 16 17 17 17 17 17 16 15 15 15 15 15 15 14 13 12 13 13 13 12 12 12 12 12 12 12 12
17 17 17 16 15 15 14 14 14 14 14 14 14 17 17 17 15 14 16 17 17 17 17 17 16 16 16 15 16 16 15 14 13 13 13 13 13 12 12 12 12 11 11
17 16 16 16 15 14 14 14 14 13 13 14 15 15 17 18 17 16 15 15 16 17 17 17 17 16 16 16 15 15 14 13 12 12 12 12 12 12 11 11 10 10 10
16 16 17 16 15 14 14 14 14 13 13 14 14 15 16 17 17 16 15 15 15 17 17 17 17 16 16 15 14 14 14 13 13 13 13 13 13 12 10 9 9 8 8
16 16 17 15 15 14 14 14 13 13 13 13 14 15 17 18 17 17 16 16 15 17 17 17 16 16 15 14 13 14 13 13 13 13 12 12 11 10 9 8 7 6 6
16 16 16 15 15 14 14 14 14 13 13 13 14 15 16 18 18 18 17 16 15 16 17 15 13 14 14 13 12 12 13 13 13 12 10 9 8 7 7 6 6 5 5
16 15 14 13 14 14 13 13 13 13 13 13 13 14 15 18 18 19 19 18 17 14 15 12 10 10 10 10 10 10 10 9 10 9 7 6 6 4 4 4 4 4 4
16 14 14 13 13 13 13 13 13 13 13 12 13 14 14 16 19 19 20 18 17 17 13 11 8 7 8 7 7 8 5 4 4 4 4 3 3 3 3 2 2 2 2
16 15 14 13 12 12 12 12 12 13 13 12 13 13 14 16 16 19 19 18 17 16 11 6 7 5 5 6 5 5 4 3 2 1 1 2 0 1 1 1 1 1 1
16 16 14 13 12 12 12 12 12 12 13 13 13 13 13 14 15 18 18 17 16 15 12 7 4 4 3 3 3 3 2 1 1 0 0 -0 -0 -1 -0 0 -0 -1 -2
16 15 14 13 13 13 12 12 12 12 12 13 13 12 13 13 14 16 17 17 16 14 13 8 4 3 0 1 1 0 1 -0 -1 -0 -1 -1 -2 -2 -2 -2 -3 -3 -3
16 15 14 14 13 13 12 12 11 12 12 12 12 13 13 13 14 15 15 16 16 13 11 8 5 2 1 -1 0 -1 -2 -3 -3 -3 -2 -2 -2 -2 -2 -3 -4 -3 -3
16 16 15 14 14 13 12 12 11 11 11 12 12 13 13 13 14 14 14 13 13 12 11 9 4 1 -1 -2 -1 -2 -3 -4 -4 -3 -3 -2 -2 -2 -3 -3 -3 -3 -5
15 14 14 13 13 13 12 12 12 11 11 11 11 12 12 13 13 13 12 13 13 12 9 11 7 3 -1 -1 -2 -2 -4 -5 -5 -3 -3 -3 -2 -2 -3 -3 -4 -4 -5
13 13 12 12 12 12 12 12 12 12 12 11 10 11 11 10 12 11 11 12 11 11 11 11 7 1 -3 -3 -2 -4 -3 -4 -4 -4 -2 -3 -3 -3 -3 -4 -4 -5 -5
12 11 11 10 10 10 11 12 12 10 7 5 6 6 9 6 7 10 9 7 5 5 6 6 3 -0 -0 -2 -1 -2 -3 -3 -5 -5 -4 -4 -4 -4 -4 -3 -4 -5 -5
10 9 8 7 8 5 6 9 10 5 3 2 2 2 3 2 2 4 4 1 -3 -4 -3 -1 -2 -3 -3 -3 -3 -3 -4 -3 -4 -5 -5 -5 -4 -5 -4 -4 -4 -5 -5
7 5 4 3 3 2 2 3 6 3 0 -1 -1 -1 -0 1 -0 4 5 0 -6 -7 -7 -7 -7 -5 -4 -5 -5 -4 -4 -4 -4 -5 -6 -6 -6 -6 -6 -5 -5 -5 -5

GFSMA_925_temp_129.txt.gz
Temp
18 18 18 18 18 18 17 17 18 18 18 18 18 19 18 17 17 16 15 15 14 14 14 14 14 13 13 12 12 12 12 12 12 11 12 11 10 10 11 11 11 11 11
19 18 18 18 18 18 17 17 18 17 17 17 18 18 18 17 17 16 15 15 15 14 14 14 13 13 13 12 12 12 12 12 12 11 11 10 10 11 11 11 12 12 12
19 19 18 18 18 18 17 17 17 17 17 17 17 16 16 17 17 16 15 15 15 14 14 14 14 13 13 12 12 12 12 12 11 11 11 10 11 11 11 11 12 12 13
19 19 19 18 18 18 17 17 17 16 16 16 16 16 15 17 17 16 16 15 14 14 14 14 14 13 13 12 12 12 12 11 11 11 10 10 11 11 12 12 12 12 13
20 19 19 18 18 17 17 17 16 16 15 15 16 15 17 17 16 16 15 15 14 14 14 14 13 13 13 12 12 12 12 11 11 11 10 10 11 11 11 12 12 12 12
20 19 19 18 18 18 17 16 16 15 15 15 15 15 16 15 16 16 16 15 14 14 14 13 13 13 13 13 12 12 12 12 11 11 11 11 11 12 12 12 12 12 12
20 20 19 18 18 17 17 16 15 15 15 14 14 14 14 15 17 17 16 15 14 14 14 14 13 13 13 13 12 12 12 12 12 11 11 12 12 12 12 12 12 12 12
20 20 19 18 17 16 16 15 15 14 14 14 14 14 13 15 17 16 16 15 15 15 14 14 14 13 13 13 12 12 12 13 12 12 12 13 12 12 12 12 12 12 12
20 19 19 18 17 16 16 15 15 14 14 14 14 15 13 14 15 16 16 15 15 15 15 14 14 14 14 14 13 13 12 12 13 13 13 12 12 12 12 12 12 12 12
19 19 18 18 18 16 15 15 15 14 14 14 14 15 17 17 15 15 16 16 16 15 15 15 15 14 15 15 15 14 14 13 13 13 12 12 12 12 12 12 12 12 11
18 18 17 17 17 16 15 15 14 14 14 14 14 14 15 17 17 16 15 15 16 15 16 16 15 15 15 15 15 15 14 13 13 13 12 12 12 12 12 12 11 10 9
17 17 16 16 16 15 15 14 14 14 13 14 14 14 15 16 16 16 15 16 16 16 16 16 16 15 15 15 15 15 14 13 13 13 12 12 12 12 11 9 9 8 8
16 16 16 16 16 16 16 14 14 14 14 13 14 14 15 16 16 16 16 15 14 15 16 15 15 16 15 14 14 14 14 13 12 12 12 12 11 10 8 7 7 7 6
17 16 16 15 16 15 15 14 14 14 14 13 13 13 14 14 16 16 16 15 13 13 15 13 11 13 14 14 14 13 12 12 11 12 11 11 9 8 7 7 6 5 3
17 16 16 16 16 15 14 14 14 14 14 13 13 13 13 14 15 16 16 16 15 13 13 10 8 8 10 11 11 11 10 9 10 10 8 8 7 6 5 4 3 3 0
17 17 16 16 15 15 14 14 13 13 13 13 13 13 13 14 14 15 16 15 16 16 13 10 7 6 7 8 7 8 6 5 5 6 6 6 4 4 3 2 1 0 -0
17 17 15 15 15 14 13 13 13 13 13 13 13 13 13 13 14 13 15 15 15 16 11 5 6 5 5 5 5 5 4 4 3 3 3 3 2 2 1 1 1 0 0
16 16 15 15 14 12 12 13 12 12 13 13 13 13 13 13 13 13 13 14 15 15 11 6 3 3 2 3 4 4 3 2 2 1 1 1 1 -0 -0 -0 -0 -1 -2
15 15 14 14 15 12 12 12 12 12 12 13 12 13 13 12 13 13 13 13 14 13 10 6 3 2 0 1 1 1 1 0 0 -0 -1 -1 -2 -2 -2 -2 -2 -3 -3
15 15 14 14 15 13 12 12 12 12 12 13 12 12 13 13 13 13 13 12 11 10 9 6 3 1 -0 -1 1 -0 -2 -2 -2 -2 -2 -2 -2 -3 -4 -4 -4 -4 -3
15 15 15 14 14 14 13 12 12 12 12 12 13 12 12 12 13 13 12 12 11 8 6 4 2 0 -1 -2 -1 -2 -3 -3 -4 -3 -3 -3 -3 -3 -4 -4 -4 -4 -5
14 14 14 14 13 13 13 12 13 12 12 12 12 12 12 12 13 12 12 13 13 12 6 4 3 1 -0 -0 -1 -1 -3 -5 -5 -4 -3 -3 -3 -3 -3 -3 -3 -4 -5
14 14 14 14 13 13 13 13 12 12 11 11 11 12 11 12 12 12 12 12 12 12 13 13 7 3 0 1 1 -2 -3 -3 -5 -4 -3 -3 -3 -3 -3 -4 -4 -4 -5
13 13 13 13 12 12 12 12 12 11 11 10 10 10 10 9 11 12 10 9 9 9 8 9 9 7 6 1 1 -1 -2 -3 -4 -4 -3 -4 -4 -4 -4 -4 -5 -5 -5
12 12 11 11 10 10 9 9 11 9 7 5 5 5 5 6 8 11 8 4 1 -1 1 4 5 2 1 -0 -0 -1 -5 -5 -6 -5 -5 -5 -5 -4 -4 -5 -4 -5 -5
10 9 7 7 7 6 5 7 8 6 3 1 1 0 2 2 -0 5 7 2 -3 -4 -3 -3 -4 -3 -3 -4 -3 -2 -3 -4 -6 -6 -5 -5 -6 -5 -5 -5 -5 -5 -5

GFSMA_925_temp_132.txt.gz
Temp
18 18 18 18 18 18 18 18 18 18 18 18 18 18 17 18 17 17 16 15 15 15 14 14 14 13 13 12 13 12 12 12 12 11 12 11 10 10 10 10 11 11 11
18 18 17 17 18 18 18 18 18 18 17 17 18 17 16 17 17 16 15 15 15 15 14 14 14 13 13 12 12 12 12 12 12 11 11 10 10 11 11 11 11 12 11
18 18 18 17 18 18 18 18 17 17 17 16 16 16 16 16 17 16 15 15 14 14 14 14 14 13 13 12 12 12 12 12 11 11 11 10 11 11 11 11 12 12 12
18 18 18 18 18 18 17 17 17 16 16 16 16 16 15 15 16 15 15 14 14 14 14 14 14 13 13 12 12 12 12 12 11 11 11 11 11 11 11 11 12 12 13
18 18 18 18 18 18 17 17 16 17 16 16 16 16 15 14 15 15 15 14 14 14 14 14 14 13 13 13 12 12 12 12 11 11 10 10 11 11 11 12 12 12 12
19 19 19 18 18 17 16 15 16 16 16 16 15 15 15 14 14 15 15 14 14 14 14 14 14 13 13 13 12 12 12 12 11 11 11 10 11 11 12 12 12 12 12
20 19 18 17 18 17 16 15 15 15 14 15 14 14 13 14 13 13 15 15 14 14 14 14 13 13 13 12 12 13 13 12 12 11 11 11 11 12 12 12 12 12 12
20 20 18 17 17 16 15 15 15 14 14 14 14 14 13 13 13 13 13 14 15 14 14 13 13 13 13 12 12 12 13 13 12 12 11 11 12 12 12 12 12 12 12
19 20 19 17 16 16 16 15 15 14 14 14 15 15 13 14 13 13 13 14 14 14 14 14 13 13 13 13 12 12 12 13 13 12 13 12 12 12 12 12 12 12 11
20 19 19 18 18 16 16 16 15 15 14 14 13 15 16 16 14 12 13 13 15 14 14 14 13 13 13 13 13 13 13 12 13 13 13 12 12 12 12 12 12 11 11
20 20 19 18 16 16 16 15 15 14 14 14 14 14 15 16 16 15 14 12 13 13 15 15 14 14 14 13 13 13 13 12 12 12 12 12 12 12 12 12 11 10 10
20 19 19 19 18 16 16 15 16 15 14 14 14 14 15 15 15 16 15 14 14 13 14 15 15 15 14 14 14 14 13 13 12 12 12 12 12 12 11 10 9 9 8
17 18 18 17 17 16 16 16 15 15 14 14 14 14 14 15 16 16 16 15 13 13 12 12 12 14 14 14 14 14 13 13 12 12 12 11 11 10 9 8 7 7 6
18 18 18 17 17 16 16 15 15 15 14 14 14 14 14 14 15 16 16 15 14 12 12 10 10 12 13 13 14 14 13 13 12 11 11 10 10 9 9 8 8 5 3
17 17 17 16 16 17 15 15 14 14 14 14 13 13 13 13 13 13 15 16 16 14 12 9 8 9 10 10 12 13 11 11 11 11 10 8 8 7 7 7 5 2 1
16 16 16 16 15 15 15 14 14 14 14 14 14 13 13 13 13 12 13 14 15 16 14 9 6 7 8 8 8 10 9 8 9 9 8 7 7 7 5 4 2 1 2
15 15 16 16 15 15 14 14 14 14 14 14 13 13 13 13 13 12 13 13 14 16 13 4 5 5 5 7 6 7 6 7 5 5 6 5 5 4 3 2 1 -0 -1
14 15 15 16 16 16 15 14 14 14 13 13 13 13 13 13 13 13 13 13 13 14 10 5 2 3 3 3 4 5 4 4 4 3 2 1 3 2 0 -1 -1 -1 -1
14 14 14 15 15 15 15 14 14 13 12 13 13 13 13 13 13 13 12 12 12 13 10 5 3 2 0 1 2 1 1 -0 0 0 0 -1 -3 -2 -2 -3 -2 -2 -2
13 14 14 15 15 15 14 13 12 12 12 12 12 13 13 13 13 13 12 12 12 10 8 6 3 1 -0 -1 0 -0 -2 -2 -3 -2 -4 -3 -5 -4 -4 -3 -3 -2 -2
12 14 14 14 14 14 14 13 12 11 12 12 12 12 12 13 13 12 12 12 11 9 7 4 3 1 -1 -2 -1 -2 -3 -4 -4 -3 -3 -4 -4 -5 -5 -5 -4 -4 -3
11 13 14 13 13 14 14 14 13 12 12 12 12 12 12 12 13 13 12 12 11 8 6 5 4 2 0 -0 -0 -1 -4 -5 -4 -4 -4 -5 -4 -4 -4 -4 -4 -4 -5
9 11 14 13 13 13 15 14 13 12 12 12 12 12 12 12 12 12 12 12 12 12 12 8 4 3 1 1 3 -1 -2 -2 -4 -4 -5 -5 -4 -3 -4 -4 -4 -4 -5
6 10 13 13 14 14 14 13 13 12 12 11 11 11 11 12 12 12 10 8 9 10 10 9 9 7 6 5 4 2 -1 -1 -4 -5 -5 -5 -4 -4 -4 -4 -5 -5 -5
4 8 11 12 12 12 13 13 12 11 10 9 9 9 9 10 9 9 9 6 4 4 6 8 9 8 6 4 5 2 -1 -3 -6 -7 -5 -6 -6 -6 -5 -5 -5 -5 -5
4 6 7 8 12 11 10 11 11 9 7 5 5 5 5 6 6 4 6 5 1 -1 2 2 1 1 1 0 1 2 -1 -4 -6 -7 -6 -7 -6 -5 -5 -5 -5 -5 -5